     2.11           OBSERVATION DATA    M (MIXED)           RINEX VERSION / TYPE
JPS2RIN v.2.0.133 JAVAD GNSS 20170410 125537 UTC            PGM / RUN BY / DATE
-Unknown- -Unknown-                                         OBSERVER / AGENCY
P09_ref0409d                                                MARKER NAME
8Q7WSEJAARK JAVAD MGGDT MAXOR 2.7.0 Mar,31,2008             REC # / TYPE / VERS
  3292490.0174   671756.8881  5403048.5577                  APPROX POSITION XYZ
-Unknown-                                                   ANT # / TYPE
        0.0000        0.0000        0.0000                  ANTENNA: DELTA H/E/N
     1     1                                                WAVELENGTH FACT L1/2
     7    C1    P1    L1    D1    P2    L2    D2            # / TYPES OF OBSERV
     1.000                                                  INTERVAL
  2017     4     9    16    14   39.0000000     GPS         TIME OF FIRST OBS
  2017     4     9    17    42    6.0000000     GPS         TIME OF LAST OBS
    14                                                      # OF SATELLITES
   G 2  5241  5241  5241  5241  5241  5241  5241            PRN / # OF OBS
   G 5  4375  4357  4357  4375  4357  4357  4357            PRN / # OF OBS
   G 6   881   588   588   881   588   588   588            PRN / # OF OBS
   G 9  1882  1868  1868  1882  1868  1868  1868            PRN / # OF OBS
   G12  3500  3500  3500  3500  3500  3500  3500            PRN / # OF OBS
   G14  2257  2257  2257  2257  2257  2257  2257            PRN / # OF OBS
   G16  2563  2556  2556  2563  2556  2556  2556            PRN / # OF OBS
   G20  1780  1745  1745  1780  1745  1745  1745            PRN / # OF OBS
   G21  3838  3818  3818  3838  3818  3818  3818            PRN / # OF OBS
   G23  5040  5014  5014  5040  5014  5014  5014            PRN / # OF OBS
   G25  5248  5248  5248  5248  5248  5248  5248            PRN / # OF OBS
   G26  5248  5248  5248  5248  5248  5248  5248            PRN / # OF OBS
   G29  5248  5248  5248  5248  5248  5248  5248            PRN / # OF OBS
   G31  5248  5248  5248  5248  5248  5248  5248            PRN / # OF OBS
                                                            END OF HEADER
 17  4  9 16 14 39.0000000  0  7G26G14G25G12G29G 2G31               -0.000492983
  24293181.738    24293183.648   127661536.437 3      7105.344    24293190.038
  99476541.923 3      5536.693
  23736803.094    23736802.564   124737739.910 4       939.456    23736804.194
  97198258.085 3       731.947
  20326418.405    20326415.965   106816110.742 4      2381.719    20326421.115
  83233302.028 3      1855.874
  22692131.252    22692131.652   119247965.801 4       296.315    22692132.552
  92920503.442 4       230.843
  20359775.481    20359775.221   106991398.612 5      5248.813    20359776.811
  83369925.935 5      4089.976
  22228271.431    22228268.311   116810337.118 5      2691.919    22228268.061
  91021062.574 6      2097.748
  21131462.114    21131462.104   111046575.583 4      4425.462    21131462.584
  86529818.764 4      3448.392
 17  4  9 16 14 40.0000000  0  7G26G14G25G12G29G 2G31               -0.000495274
  24291829.259    24291830.159   127654429.756 3      7105.705    24291837.269
  99471004.232 3      5536.916
  23736624.687    23736623.967   124736802.349 4       939.661    23736626.317
  97197527.503 3       732.183
  20325964.758    20325962.748   106813728.907 4      2382.292    20325967.808
  83231446.032 3      1856.317
  22692075.089    22692075.449   119247669.715 4       296.248    22692076.259
  92920272.725 4       230.838
  20358776.779    20358776.479   106986149.911 5      5248.135    20358777.839
  83365836.052 5      4089.457
  22227758.015    22227755.145   116807645.628 5      2689.208    22227756.275
  91018965.321 6      2095.392
  21130620.126    21130619.816   111042150.133 4      4424.801    21130620.506
  86526370.347 4      3447.883
 17  4  9 16 14 41.0000000  0  7G26G14G25G12G29G 2G31               -0.000497563
  24290478.114    24290477.864   127647323.198 3      7107.762    24290484.584
  99465466.679 3      5538.478
  23736446.550    23736445.670   124735865.233 4       936.875    23736447.760
  97196797.201 3       730.045
  20325511.808    20325509.548   106811347.786 4      2380.670    20325515.178
  83229590.660 3      1855.097
  22692018.814    22692018.824   119247373.709 4       295.557    22692020.664
  92920042.157 4       230.227
  20357778.112    20357777.872   106980901.770 6      5247.830    20357779.382
  83361746.599 5      4089.144
  22227245.635    22227241.305   116804954.409 5      2689.807    22227243.895
  91016868.260 6      2095.963
  21129777.853    21129777.803   111037725.391 4      4424.170    21129778.223
  86522922.449 4      3447.452
 17  4  9 16 14 42.0000000  0  7G26G14G25G12G29G 2G31               -0.000499853
  24289125.980    24289125.570   127640216.843 3      7106.208    24289132.630
  99459929.266 3      5537.094
  23736268.438    23736267.378   124734928.431 4       936.058    23736268.928
  97196067.174 3       729.566
  20325058.138    20325056.608   106808966.967 6      2380.188    20325061.848
  83227735.399 7      1854.676
  22691962.705    22691962.375   119247078.111 3       295.548    22691964.295
  92919811.804 3       230.211
  20356779.640    20356779.220   106975654.153 6      5246.538    20356780.730
  83357657.515 6      4088.112
  22226734.446    22226730.926   116802264.052 5      2690.389    22226732.616
  91014771.912 6      2096.327
  21128936.182    21128935.772   111033301.177 6      4424.679    21128936.452
  86519475.008 6      3447.902
 17  4  9 16 14 43.0000000  0  7G26G14G25G12G29G 2G31                0.000497862
  24587567.353    24587567.233   129208537.622 3      7105.964    24587574.063
 100681997.421 3      5537.148
  24035882.203    24035881.833   126309412.816 4       936.681    24035883.463
  98422938.098 3       729.890
  20624397.883    20624396.713   108382009.142 7      2379.741    20624401.683
  84453482.554 7      1854.429
  22991698.768    22991698.598   120822203.050 6       295.445    22991700.648
  94147181.904 6       230.246
  20655574.360    20655574.120   108545832.279 6      5246.990    20655575.760
  84581172.943 6      4088.547
  22526015.831    22526012.431   118374996.885 5      2690.158    22526013.861
  92240278.066 2      2096.147
  21427887.970    21427887.270   112604302.031 6      4423.189    21427887.950
  87743631.513 5      3446.675
 17  4  9 16 14 44.0000000  0  7G26G14G25G12G29G 2G31                0.000495573
  24586215.153    24586214.953   129201431.402 3      7106.101    24586221.403
 100676460.133 3      5537.268
  24035704.401    24035703.451   126308476.636 4       936.096    24035705.391
  98422208.591 3       729.404
  20623944.833    20623943.953   108379629.413 7      2379.636    20623948.703
  84451628.227 7      1854.292
  22991642.779    22991642.349   120821907.811 6       294.415    22991644.419
  94146951.869 6       229.446
  20654576.072    20654575.802   108540585.730 6      5246.165    20654577.372
  84577084.735 6      4087.930
  22525503.627    22525501.837   118372307.624 2      2689.713    22525502.017
  92238182.553 2      2095.962
  21427046.079    21427045.569   112599879.099 6      4422.798    21427046.319
  87740185.077 6      3446.316
 17  4  9 16 14 45.0000000  0  7G26G14G25G12G29G 2G31                0.000493284
  24584862.883    24584862.633   129194325.182 3      7105.204    24584868.853
 100670922.839 3      5536.428
  24035526.220    24035525.570   126307540.835 4       935.924    24035527.020
  98421479.381 3       729.295
  20623491.824    20623491.164   108377250.191 7      2378.584    20623495.934
  84449774.293 7      1853.427
  22991586.157    22991586.027   120821612.803 5       294.855    22991588.127
  94146721.996 5       229.748
  20653578.160    20653577.510   108535339.681 6      5245.583    20653579.120
  84572996.898 6      4087.483
  22524991.773    22524990.463   118369618.952 5      2688.199    22524990.513
  92236087.486 4      2094.640
  21426204.527    21426204.057   112595456.747 6      4421.938    21426204.877
  87736739.087 6      3445.642
 17  4  9 16 14 46.0000000  0  7G26G14G25G12G29G 2G31                0.000490994
  24583510.943    24583510.253   129187219.127 3      7106.446    24583516.483
 100665385.648 3      5537.488
  24035348.372    24035347.372   126306605.419 3       935.529    24035349.062
  98420750.488 3       728.966
  20623039.091    20623038.541   108374871.452 7      2378.709    20623043.321
  84447920.732 7      1853.549
  22991529.443    22991529.743   120821318.000 5       294.239    22991532.163
  94146492.278 5       229.284
  20652580.058    20652579.368   108530094.163 6      5245.567    20652580.898
  84568909.481 6      4087.467
  22524480.325    22524479.145   118366930.780 5      2688.128    22524479.025
  92233992.802 6      2094.669
  21425363.278    21425362.708   112591035.036 6      4421.593    21425363.438
  87733293.596 6      3445.417
 17  4  9 16 14 47.0000000  0  7G26G14G25G12G29G 2G31                0.000488705
  24582158.969    24582158.109   129180113.112 3      7105.872    24582164.069
 100659848.486 3      5537.036
  24035169.990    24035169.490   126305670.300 3       935.117    24035171.230
  98420021.814 3       728.617
  20622586.533    20622585.923   108372493.238 7      2377.792    20622590.763
  84446067.578 7      1852.830
  22991473.372    22991473.592   120821023.394 5       294.631    22991476.122
  94146262.720 5       229.597
  20651581.652    20651581.192   108524849.152 7      5244.843    20651582.742
  84564822.467 7      4086.888
  22523968.790    22523967.730   118364243.193 6      2687.339    22523967.580
  92231898.578 6      2094.047
  21424521.585    21424521.375   112586613.914 6      4420.650    21424522.045
  87729848.564 6      3444.664
 17  4  9 16 14 48.0000000  0  7G26G14G25G12G29G 2G31                0.000486415
  24580806.891    24580805.851   129173007.226 3      7105.675    24580811.881
 100654311.444 3      5536.879
  24034992.531    24034991.621   126304735.576 3       934.221    24034993.001
  98419293.443 3       727.938
  20622134.074    20622133.484   108370115.563 7      2377.093    20622138.284
  84444214.844 7      1852.287
  22991417.544    22991417.644   120820729.045 5       294.011    22991420.054
  94146033.358 5       229.101
  20650583.807    20650583.197   108519604.719 7      5244.172    20650584.777
  84560735.893 7      4086.377
  22523457.865    22523456.495   118361556.194 6      2686.583    22523456.335
  92229804.805 6      2093.451
  21423680.593    21423680.233   112582193.464 6      4419.992    21423680.813
  87726404.066 6      3444.149
 17  4  9 16 14 49.0000000  0  7G26G14G25G12G29G 2G31                0.000484126
  24579454.913    24579453.783   129165901.532 3      7105.782    24579459.763
 100648774.544 3      5536.949
  24034814.608    24034813.798   126303801.254 3       933.956    24034815.218
  98418565.425 3       727.782
  20621682.062    20621681.212   108367738.439 7      2377.131    20621685.932
  84442362.539 7      1852.291
  22991361.797    22991361.727   120820434.961 5       293.681    22991364.007
  94145804.194 5       228.850
  20649585.669    20649585.369   108514360.874 6      5243.639    20649586.859
  84556649.779 6      4085.932
  22522946.557    22522945.227   118358869.799 6      2686.049    22522945.187
  92227711.519 6      2093.013
  21422839.406    21422839.196   112577773.695 6      4419.489    21422839.746
  87722960.088 6      3443.762
 17  4  9 16 14 50.0000000  0  8G26G14G 6G25G12G29G 2G31             0.000481837
  24578102.266    24578101.786   129158795.906 3      7105.857    24578107.346
 100643237.694 3      5537.023
  24034636.504    24034635.974   126302867.298 3       933.782    24034637.424
  98417837.666 3       727.619
  24598502.451                                         497.332

  20621229.711    20621228.981   108365361.873 7      2376.327    20621233.701
  84440510.665 7      1851.697
  22991305.907    22991305.857   120820141.077 5       293.895    22991308.167
  94145575.194 5       229.015
  20648587.800    20648587.510   108509117.581 6      5243.146    20648589.090
  84552564.095 6      4085.577
  22522435.486    22522434.276   118356183.987 6      2685.612    22522434.006
  92225618.676 6      2092.702
  21421998.638    21421998.358   112573354.584 6      4418.703    21421998.808
  87719516.618 6      3443.158
 17  4  9 16 14 51.0000000  0  8G26G14G 6G25G12G29G 2G31             0.000479547
  24576750.112    24576749.682   129151690.488 4      7105.227    24576755.212
 100637701.010 3      5536.525
  24034458.970    24034458.180   126301933.762 3       933.607    24034459.940
  98417110.236 3       727.496
  24598407.424                                         494.144

  20620777.711    20620776.881   108362985.841 7      2375.772    20620781.501
  84438659.211 7      1851.253
  22991249.807    22991249.987   120819847.506 5       293.511    22991252.397
  94145346.438 5       228.712
  20647590.387    20647589.957   108503874.854 7      5242.313    20647591.497
  84548478.856 6      4084.905
  22521924.477    22521923.287   118353498.796 6      2685.063    22521922.957
  92223526.322 6      2092.245
  21421157.681    21421157.541   112568936.122 6      4418.050    21421157.981
  87716073.668 6      3442.638
 17  4  9 16 14 52.0000000  0  8G26G14G 6G25G12G29G 2G31             0.000477258
  24575398.061    24575397.511   129144585.074 4      7105.189    24575402.981
 100632164.328 4      5536.534
  24034281.616    24034280.566   126301000.556 3       932.888    24034282.416
  98416383.055 3       726.910
  24598314.180                                         494.259

  20620325.661    20620324.731   108360610.309 7      2375.351    20620329.421
  84436808.145 7      1850.913
  22991194.565    22991194.035   120819554.106 5       293.541    22991196.485
  94145117.812 5       228.739
  20646592.912    20646592.462   108498632.632 6      5242.020    20646594.002
  84544394.016 6      4084.697
  22521413.598    22521412.568   118350814.151 6      2684.585    22521412.038
  92221434.387 6      2091.908
  21420316.608    21420316.728   112564518.269 6      4417.761    21420317.288
  87712631.184 6      3442.412
 17  4  9 16 14 53.0000000  0  8G26G14G 6G25G12G29G 2G31             0.000474969
  24574046.301    24574045.171   129137479.702 4      7105.375    24574050.991
 100626627.681 4      5536.623
  24034103.755    24034103.025   126300067.680 3       932.732    24034104.995
  98415656.144 3       726.815
  24598220.431                                         493.047

  20619873.531    20619872.711   108358235.209 7      2375.061    20619877.441
  84434957.420 7      1850.678
  22991138.605    22991138.325   120819260.836 5       293.300    22991140.715
  94144889.287 5       228.544
  20645595.405    20645594.955   108493390.893 7      5241.742    20645596.635
  84540309.545 7      4084.455
  22520902.781    22520901.841   118348129.980 6      2683.846    22520901.331
  92219342.824 6      2091.307
  21419475.783    21419476.053   112560100.980 6      4417.038    21419476.733
  87709189.138 6      3441.848
 17  4  9 16 14 54.0000000  0  8G26G14G 6G25G12G29G 2G31             0.000472680
  24572694.586    24572693.116   129130374.377 4      7105.424    24572699.196
 100621091.073 4      5536.696
  24033926.521    24033925.611   126299135.081 4       932.134    24033927.481
  98414929.424 3       726.327
  24598126.619                                         491.540

  20619421.827    20619420.807   108355860.575 7      2374.259    20619425.507
  84433107.057 7      1850.066
  22991082.649    22991082.539   120818967.741 5       292.923    22991084.859
  94144660.901 5       228.287
  20644598.339    20644597.659   108488149.627 7      5240.917    20644599.319
  84536225.440 7      4083.851
  22520392.106    22520391.116   118345446.317 6      2683.457    22520390.556
  92217251.663 6      2091.009
  21418635.075    21418635.495   112555684.262 6      4416.551    21418636.205
  87705747.537 6      3441.464
 17  4  9 16 14 55.0000000  0  8G26G14G 6G25G12G29G 2G31             0.000470391
  24571342.170    24571340.980   129123269.168 4      7105.212    24571346.970
 100615554.547 4      5536.544
  24033749.452    24033748.232   126298202.827 4       932.414    24033750.132
  98414202.975 3       726.600
  24598033.722                                         493.612

  20618970.153    20618969.073   108353486.464 7      2373.850    20618973.733
  84431257.100 7      1849.760
  22991027.152    22991026.962   120818674.872 5       292.706    22991029.132
  94144432.689 5       228.081
  20643600.994    20643600.404   108482908.897 7      5240.575    20643602.054
  84532141.757 6      4083.576
  22519881.707    22519880.657   118342763.263 6      2682.787    22519879.937
  92215160.962 6      2090.497
  21417794.629    21417794.959   112551268.188 6      4415.879    21417795.789
  87702306.445 6      3440.946
 17  4  9 16 14 56.0000000  0  8G26G14G 6G25G12G29G 2G31             0.000468102
  24569990.279    24569989.009   129116164.129 4      7105.144    24569994.909
 100610018.156 4      5536.473
  24033571.960    24033570.960   126297271.024 4       931.565    24033572.860
  98413476.894 3       725.923
  24597940.446                                         490.792

  20618518.376    20618517.366   108351112.927 7      2373.361    20618522.136
  84429407.597 7      1849.386
  22990971.374    22990971.194   120818382.271 5       292.601    22990973.524
  94144204.682 5       228.024
  20642603.827    20642603.197   108477668.791 6      5239.867    20642604.867
  84528058.561 6      4083.025
  22519371.306    22519370.206   118340080.801 6      2682.299    22519369.516
  92213070.733 6      2090.118
  21416954.520    21416954.750   112546852.779 6      4415.285    21416955.690
  87698865.869 6      3440.484
 17  4  9 16 14 57.0000000  0  8G26G14G 6G25G12G29G 2G31             0.000465812
  24568638.066    24568636.846   129109059.147 4      7105.000    24568642.876
 100604481.806 4      5536.339
  24033394.251    24033393.751   126296339.539 4       931.174    24033395.631
  98412751.062 3       725.572
  24597846.166                                         491.571

  20618066.642    20618065.732   108348739.890 7      2372.686    20618070.562
  84427558.473 7      1848.851
  22990915.660    22990915.550   120818089.879 5       292.221    22990917.900
  94143976.838 5       227.726
  20641606.479    20641606.089   108472429.176 6      5239.505    20641607.759
  84523975.745 6      4082.737
  22518860.778    22518859.838   118337398.892 6      2681.573    22518859.148
  92210980.930 6      2089.542
  21416114.410    21416114.600   112542437.990 6      4414.321    21416115.640
  87695425.784 6      3439.735
 17  4  9 16 14 58.0000000  0  8G26G14G 6G25G12G29G 2G31             0.000463523
  24567286.289    24567284.999   129101954.365 4      7104.647    24567290.729
 100598945.615 4      5536.100
  24033217.277    24033216.547   126295408.490 4       930.678    24033218.577
  98412025.557 4       725.202
  24597752.035                                         491.705

  20617615.197    20617614.257   108346367.426 7      2372.307    20617619.047
  84425709.802 7      1848.530
  22990859.818    22990860.018   120817797.743 5       291.957    22990862.358
  94143749.207 5       227.491
  20640609.535    20640609.125   108467190.186 7      5238.661    20640610.695
  84519893.419 7      4082.061
  22518350.552    22518349.552   118334717.605 6      2681.076    22518348.952
  92208891.617 6      2089.146
  21415274.338    21415274.678   112538023.915 6      4413.590    21415275.728
  87691986.243 6      3439.167
 17  4  9 16 14 59.0000000  0  8G26G14G 6G25G12G29G 2G31             0.000461233
  24565934.386    24565932.986   129094849.683 4      7104.771    24565938.906
 100593409.506 4      5536.153
  24033039.425    24033039.385   126294477.795 4       930.858    24033041.565
  98411300.351 4       725.372
  24597657.183                                         492.009

  20617163.828    20617162.858   108343995.501 7      2371.920    20617167.648
  84423861.550 7      1848.243
  22990803.528    22990804.348   120817505.835 5       292.029    22990806.608
  94143521.739 5       227.551
  20639612.718    20639612.228   108461951.721 7      5238.258    20639613.908
  84515811.500 7      4081.750
  22517840.354    22517839.474   118332036.894 6      2680.528    22517838.854
  92206802.752 6      2088.705
  21414434.341    21414434.831   112533610.465 6      4413.107    21414435.911
  87688547.188 6      3438.803
 17  4  9 16 15  0.0000000  0  8G26G14G 6G25G12G29G 2G31             0.000458943
  24564581.790    24564581.040   129087745.102 4      7104.319    24564587.100
 100587873.456 4      5535.824
  24032862.078    24032862.208   126293547.483 4       930.269    24032864.428
  98410575.433 4       724.886
  24597563.573                                         491.741

  20616712.607    20616711.597   108341624.090 7      2371.134    20616716.357
  84422013.694 7      1847.649
  22990748.082    22990748.752   120817214.169 5       291.371    22990750.912
  94143294.458 5       227.032
  20638615.971    20638615.531   108456713.815 7      5237.743    20638617.061
  84511730.014 7      4081.368
  22517330.027    22517329.477   118329356.740 6      2679.938    22517328.897
  92204714.314 6      2088.270
  21413594.747    21413595.117   112529197.652 6      4412.588    21413596.217
  87685108.631 6      3438.373
 17  4  9 16 15  1.0000000  0  8G26G14G 6G25G12G29G 2G31             0.000456654
  24563230.389    24563228.909   129080640.562 4      7104.664    24563235.259
 100582337.455 4      5536.119
  24032685.338    24032684.948   126292617.512 4       930.304    24032687.758
  98409850.778 4       724.908
  24597469.761                                         492.082

  20616261.532    20616260.442   108339253.154 7      2370.684    20616265.232
  84420166.213 7      1847.290
  22990692.504    22990693.204   120816922.654 5       291.237    22990695.334
  94143067.306 5       226.928
  20637619.489    20637618.809   108451476.402 6      5237.368    20637620.369
  84507648.914 6      4081.066
  22516820.135    22516819.515   118326677.121 6      2679.654    22516819.025
  92202626.300 6      2088.044
  21412755.031    21412755.491   112524785.421 6      4412.182    21412756.631
  87681670.527 6      3438.061
 17  4  9 16 15  2.0000000  0  8G26G14G 6G25G12G29G 2G31             0.000454364
  24561877.757    24561877.267   129073536.189 4      7104.410    24561883.497
 100576801.582 4      5535.911
  24032508.307    24032507.987   126291687.917 4       929.221    24032510.647
  98409126.408 4       724.095
  24597376.062                                         490.106

  20615810.135    20615809.305   108336882.771 7      2370.237    20615814.135
  84418319.158 7      1846.956
  22990637.183    22990637.773   120816631.400 5       291.054    22990639.903
  94142840.353 5       226.820
  20636622.811    20636622.261   108446239.574 7      5236.698    20636623.841
  84503568.264 7      4080.554
  22516310.529    22516309.709   118323998.105 6      2678.976    22516309.249
  92200538.759 6      2087.531
  21411915.488    21411915.988   112520373.854 6      4411.510    21411917.158
  87678232.946 6      3437.554
 17  4  9 16 15  3.0000000  0  8G26G14G 6G25G12G29G 2G31             0.000452075
  24560525.559    24560525.109   129066431.884 4      7104.243    24560531.789
 100571265.752 4      5535.791
  24032331.815    24032331.075   126290758.652 4       928.946    24032334.005
  98408402.299 4       723.833
  24597282.330                                         489.874

  20615358.999    20615358.279   108334512.871 7      2369.563    20615363.169
  84416472.489 7      1846.413
  22990581.743    22990582.263   120816340.290 5       291.266    22990584.533
  94142613.524 5       226.960
  20635626.482    20635625.862   108441003.242 6      5236.002    20635627.322
  84499488.010 6      4080.000
  22515800.791    22515800.001   118321319.614 6      2678.277    22515799.601
  92198451.623 6      2086.958
  21411076.009    21411076.519   112515962.877 6      4410.701    21411077.779
  87674795.831 6      3436.901
 17  4  9 16 15  4.0000000  0  8G26G14G 6G25G12G29G 2G31             0.000449785
  24559173.616    24559173.146   129059327.682 4      7104.154    24559179.906
 100565730.010 4      5535.698
  24032154.909    24032154.459   126289829.728 4       928.565    24032157.289
  98407678.463 4       723.567
  24597189.549                                         489.342

  20614908.112    20614907.462   108332143.481 7      2369.161    20614912.322
  84414626.207 7      1846.108
  22990526.908    22990527.038   120816049.485 5       290.720    22990529.168
  94142386.914 5       226.537
  20634630.064    20634629.474   108435767.439 6      5235.727    20634630.974
  84495408.168 6      4079.783
  22515291.037    22515290.387   118318641.681 6      2677.742    22515289.987
  92196364.922 6      2086.558
  21410236.820    21410237.330   112511552.558 6      4410.209    21410238.490
  87671359.210 6      3436.529
 17  4  9 16 15  5.0000000  0  8G26G14G 6G25G12G29G 2G31             0.000447496
  24557821.510    24557821.280   129052223.600 4      7103.853    24557828.170
 100560194.351 4      5535.462
  24031977.956    24031977.896   126288901.184 4       928.535    24031980.686
  98406954.922 4       723.532
  24597097.481                                         490.010

  20614457.655    20614456.745   108329774.637 7      2368.595    20614461.665
  84412780.353 7      1845.656
  22990471.905    22990471.845   120815758.859 5       290.632    22990473.825
  94142160.440 5       226.467
  20633633.870    20633633.280   108430532.237 6      5234.917    20633634.750
  84491328.781 6      4079.151
  22514781.425    22514780.975   118315964.338 6      2677.201    22514780.415
  92194278.689 6      2086.129
  21409397.843    21409398.303   112507142.895 6      4409.229    21409399.323
  87667923.099 6      3435.764
 17  4  9 16 15  6.0000000  0  8G26G14G 6G25G12G29G 2G31             0.000445207
  24556470.191    24556469.461   129045119.519 4      7104.664    24556476.311
 100554658.713 4      5536.155
  24031801.764    24031801.234   126287972.962 4       928.044    24031803.924
  98406231.637 4       723.161
  24597005.005                                         488.426

  20614007.100    20614006.210   108327406.257 7      2368.051    20614011.060
  84410934.862 7      1845.226
  22990416.797    22990416.647   120815468.449 5       290.110    22990418.447
  94141934.139 5       226.058
  20632637.381    20632637.081   108425297.507 7      5234.221    20632638.641
  84487249.772 7      4078.613
  22514271.991    22514271.551   118313287.545 6      2676.335    22514270.911
  92192192.874 6      2085.448
  21408559.022    21408559.312   112502733.792 6      4408.810    21408560.292
  87664487.437 6      3435.413
 17  4  9 16 15  7.0000000  0  8G26G14G 6G25G12G29G 2G31             0.000442917
  24555118.311    24555117.571   129038015.549 4      7103.908    24555124.581
 100549123.162 4      5535.524
  24031625.793    24031624.613   126287045.067 4       927.385    24031627.273
  98405508.617 4       722.636
  24596911.592                                         488.195

  20613556.338    20613555.598   108325038.378 7      2367.552    20613560.388
  84409089.757 7      1844.848
  22990361.854    22990361.554   120815178.179 5       290.007    22990363.124
  94141707.956 5       225.968
  20631641.496    20631641.046   108420063.286 6      5234.024    20631642.636
  84483171.156 7      4078.461
  22513762.572    22513762.302   118310611.263 6      2676.044    22513761.622
  92190107.454 6      2085.237
  21407720.185    21407720.405   112498325.305 6      4408.060    21407721.445
  87661052.249 6      3434.856
 17  4  9 16 15  8.0000000  0  8G26G14G 6G25G12G29G 2G31             0.000440628
  24553765.928    24553765.488   129030911.780 4      7103.592    24553772.838
 100543587.756 4      5535.266
  24031449.484    24031448.124   126286117.604 4       927.262    24031451.004
  98404785.916 4       722.550
  24596818.468                                         488.027

  20613105.875    20613105.125   108322671.055 7      2367.021    20613109.895
  84407245.094 7      1844.422
  22990306.624    22990306.364   120814888.190 5       289.805    22990307.894
  94141481.987 5       225.813
  20630645.620    20630645.150   108414829.650 7      5233.403    20630646.790
  84479093.001 7      4077.949
  22513253.538    22513253.148   118307935.624 6      2675.421    22513252.458
  92188022.539 6      2084.740
  21406881.524    21406881.534   112493917.496 6      4407.566    21406882.614
  87657617.601 6      3434.469
 17  4  9 16 15  9.0000000  0  8G26G14G 6G25G12G29G 2G31             0.000438339
  24552414.288    24552413.928   129023808.017 4      7103.425    24552421.058
 100538052.359 4      5535.119
  24031273.401    24031271.821   126285190.471 4       927.143    24031274.761
  98404063.466 4       722.451
  24596724.948                                         487.238

  20612655.394    20612654.674   108320304.258 7      2366.393    20612659.504
  84405400.834 7      1843.960
  22990251.516    22990251.226   120814598.415 5       289.356    22990252.806
  94141256.186 5       225.477
  20629649.901    20629649.341   108409596.553 6      5232.760    20629650.931
  84475015.263 7      4077.478
  22512744.507    22512744.097   118305260.510 6      2674.735    22512743.477
  92185938.036 6      2084.217
  21406042.593    21406042.703   112489510.301 6      4406.728    21406043.853
  87654183.422 6      3433.831
 17  4  9 16 15 10.0000000  0  8G26G14G 6G25G12G29G 2G31             0.000436049
  24551062.864    24551062.144   129016704.433 4      7103.283    24551068.954
 100532517.100 4      5535.027
  24031096.548    24031095.538   126284263.713 4       926.749    24031098.498
  98403341.326 4       722.157
  24596631.103                                         487.904

  20612205.103    20612204.383   108317937.955 7      2366.002    20612209.213
  84403556.958 7      1843.647
  22990196.289    22990196.169   120814308.849 5       289.230    22990197.419
  94141030.560 5       225.377
  20628654.080    20628653.630   108404364.001 7      5232.247    20628655.120
  84470937.947 7      4077.092
  22512235.824    22512235.204   118302585.993 6      2674.087    22512234.474
  92183853.998 6      2083.715
  21405204.129    21405204.139   112485103.744 6      4406.044    21405205.279
  87650749.744 6      3433.289
 17  4  9 16 15 11.0000000  0  8G26G14G 6G25G12G29G 2G31             0.000433760
  24549711.251    24549710.311   129009600.955 4      7103.749    24549717.311
 100526981.913 4      5535.396
  24030920.359    24030919.429   126283337.364 4       926.232    24030922.579
  98402619.480 4       721.728
  24596538.020                                         487.476

  20611754.927    20611754.267   108315572.214 7      2365.493    20611759.057
  84401713.523 7      1843.245
  22990141.654    22990141.274   120814019.560 5       289.017    22990142.504
  94140805.143 5       225.175
  20627658.296    20627658.036   108399132.018 7      5231.765    20627659.456
  84466861.074 6      4076.700
  22511726.782    22511726.332   118299912.057 6      2673.830    22511725.732
  92181770.415 6      2083.510
  21404365.696    21404365.686   112480697.873 6      4405.543    21404366.926
  87647316.595 6      3432.897
 17  4  9 16 15 12.0000000  0  8G26G14G 6G25G12G29G 2G31             0.000431471
  24548359.446    24548358.576   129002497.583 4      7103.453    24548365.616
 100521446.832 4      5535.151
  24030743.879    24030743.059   126282411.351 4       926.097    24030746.349
  98401897.910 4       721.633
  24596445.029                                         486.272

  20611304.786    20611304.116   108313206.973 7      2364.942    20611308.946
  84399870.485 7      1842.809
  22990086.461    22990086.221   120813730.460 5       289.002    22990087.801
  94140579.861 5       225.232
  20626662.910    20626662.470   108393900.568 7      5231.122    20626663.960
  84462784.621 7      4076.203
  22511218.294    22511217.524   118297238.676 6      2673.146    22511216.894
  92179687.265 6      2082.956
  21403527.614    21403527.494   112476292.606 6      4404.847    21403528.694
  87643883.917 6      3432.349
 17  4  9 16 15 13.0000000  0  8G26G14G 6G25G12G29G 2G31             0.000429182
  24547007.413    24547006.733   128995394.256 4      7103.082    24547013.893
 100515911.777 4      5534.871
  24030567.296    24030566.816   126281485.671 4       925.337    24030570.416
  98401176.590 4       721.057
  24596352.496                                         487.046

  20610854.914    20610854.134   108310842.226 7      2364.575    20610858.884
  84398027.824 7      1842.517
  22990031.506    22990031.186   120813441.533 5       288.959    22990032.766
  94140354.725 5       225.155
  20625667.304    20625667.064   108388669.623 6      5230.735    20625668.544
  84458708.561 6      4075.886
  22510709.150    22510708.940   118294565.841 6      2672.371    22510708.180
  92177604.530 6      2082.398
  21402689.473    21402689.303   112471887.939 6      4404.330    21402690.473
  87640451.709 6      3431.940
 17  4  9 16 15 14.0000000  0  8G26G14G 6G25G12G29G 2G31             0.000426893
  24545655.601    24545655.041   128988291.004 4      7102.838    24545662.121
 100510376.780 4      5534.672
  24030391.477    24030390.687   126280560.301 4       924.620    24030394.197
  98400455.529 4       720.477
  24596259.118                                         486.388

  20610404.938    20610404.198   108308477.945 7      2364.094    20610408.948
  84396185.525 7      1842.147
  22989976.449    22989976.189   120813152.767 5       288.772    22989977.809
  94140129.714 5       225.025
  20624671.405    20624671.655   108383439.174 7      5230.107    20624673.295
  84454632.883 7      4075.403
  22510200.603    22510200.313   118291893.498 6      2672.155    22510199.683
  92175522.190 6      2082.192
  21401851.435    21401851.275   112467483.857 6      4403.754    21401852.385
  87637019.951 6      3431.489
 17  4  9 16 15 15.0000000  0  8G26G14G 6G25G12G29G 2G31             0.000424603
  24544304.204    24544303.434   128981187.851 4      7103.153    24544310.394
 100504841.850 4      5534.932
  24030215.458    24030214.738   126279635.294 4       924.946    24030218.258
  98399734.739 4       720.737
  24596167.043                                         486.462

  20609955.273    20609954.373   108306114.181 7      2363.408    20609959.123
  84394343.636 7      1841.620
  22989921.742    22989921.352   120812864.274 5       288.272    22989922.892
  94139904.913 5       224.616
  20623676.051    20623676.411   108378209.274 6      5229.271    20623678.111
  84450557.634 6      4074.751
  22509691.825    22509691.715   118289221.746 6      2671.594    22509691.225
  92173440.306 6      2081.748
  21401013.226    21401013.226   112463080.397 6      4402.988    21401014.386
  87633588.688 6      3430.900
 17  4  9 16 15 16.0000000  0  8G26G14G 6G25G12G29G 2G31             0.000422314
  24542952.602    24542951.892   128974084.773 4      7103.147    24542958.372
 100499306.987 4      5534.902
  24030039.736    24030038.756   126278710.626 4       924.291    24030042.226
  98399014.224 4       720.210
  24596074.685                                         484.293

  20609505.691    20609504.671   108303750.910 7      2362.856    20609509.401
  84392502.127 7      1841.186
  22989866.783    22989866.393   120812575.941 5       287.892    22989868.073
  94139680.240 5       224.343
  20622680.985    20622681.265   108372979.876 7      5228.921    20622682.925
  84446482.777 7      4074.479
  22509183.462    22509183.432   118286550.539 6      2670.931    22509182.802
  92171358.849 6      2081.261
  21400175.552    21400175.362   112458677.544 6      4402.697    21400176.492
  87630157.890 6      3430.715
 17  4  9 16 15 17.0000000  0  8G26G14G 6G25G12G29G 2G31             0.000420024
  24541600.611    24541600.321   128966981.860 4      7102.687    24541606.811
 100493772.262 4      5534.549
  24029864.158    24029862.838   126277786.371 4       924.047    24029866.628
  98398294.023 4       720.021
  24595982.092                                         485.654

  20609056.140    20609055.170   108301388.226 7      2362.541    20609059.850
  84390661.075 7      1840.952
  22989811.684    22989811.534   120812287.905 5       287.822    22989813.384
  94139455.789 5       224.266
  20621685.705    20621686.215   108367751.114 7      5228.448    20621688.055
  84442408.415 6      4074.123
  22508675.506    22508675.236   118283879.979 6      2670.319    22508674.516
  92169277.891 6      2080.781
  21399338.041    21399337.651   112454275.424 6      4401.772    21399338.821
  87626727.675 6      3429.947
 17  4  9 16 15 18.0000000  0  8G26G14G 6G25G12G29G 2G31             0.000417735
  24540249.243    24540248.593   128959879.010 4      7102.745    24540255.263
 100488237.594 4      5534.621
  24029688.438    24029687.188   126276862.382 4       923.721    24029690.478
  98397574.047 4       719.793
  24595890.901                                         486.017

  20608606.691    20608605.681   108299025.990 7      2362.094    20608610.281
  84388820.374 7      1840.607
  22989756.732    22989756.702   120811999.997 5       288.132    22989758.582
  94139231.445 5       224.516
  20620690.658    20620691.288   108362522.790 6      5228.361    20620693.158
  84438334.398 6      4074.054
  22508167.305    22508167.105   118281209.897 6      2669.749    22508166.435
  92167197.306 6      2080.327
  21398500.313    21398499.993   112449873.832 6      4401.391    21398501.153
  87623297.862 6      3429.662
 17  4  9 16 15 19.0000000  0  8G26G14G 6G25G12G29G 2G31             0.000415446
  24538897.065    24538896.995   128952776.190 4      7102.776    24538903.715
 100482702.923 4      5534.599
  24029512.937    24029511.527   126275938.774 4       923.107    24029514.867
  98396854.343 4       719.259
  24595799.344                                         484.848

  20608157.075    20608156.195   108296664.209 7      2361.531    20608160.805
  84386980.025 7      1840.156
  22989702.112    22989702.012   120811712.248 5       287.770    22989703.872
  94139007.232 5       224.202
  20619695.484    20619696.414   108357294.967 7      5227.661    20619698.384
  84434260.776 7      4073.502
  22507659.308    22507659.098   118278540.307 6      2669.597    22507658.388
  92165117.109 6      2080.213
  21397662.870    21397662.490   112445472.857 6      4400.707    21397663.610
  87619868.522 6      3429.134
 17  4  9 16 15 20.0000000  0  8G26G14G 6G25G12G29G 2G31             0.000413156
  24537544.918    24537545.228   128945673.479 4      7103.076    24537551.928
 100477168.344 4      5534.879
  24029336.861    24029335.821   126275015.441 4       922.956    24029339.011
  98396134.866 4       719.201
  24595706.391                                         483.989

  20607707.598    20607706.768   108294302.926 7      2361.065    20607711.408
  84385140.070 7      1839.798
  22989647.185    22989647.245   120811424.730 5       287.386    22989649.145
  94138783.188 5       223.981
  20618701.259    20618701.679   108352067.648 7      5227.021    20618703.649
  84430187.545 7      4073.016
  22507151.233    22507151.173   118275871.294 6      2668.824    22507150.503
  92163037.363 6      2079.621
  21396825.390    21396825.160   112441072.447 6      4400.120    21396826.270
  87616439.629 6      3428.655
 17  4  9 16 15 21.0000000  0  8G26G14G 6G25G12G29G 2G31             0.000410867
  24536193.531    24536193.521   128938570.852 4      7102.304    24536200.411
 100471633.827 4      5534.218
  24029160.573    24029160.093   126274092.455 4       922.817    24029163.193
  98395415.649 4       719.081
  24595614.367                                         484.533

  20607258.207    20607257.477   108291942.154 7      2360.534    20607262.167
  84383300.500 7      1839.373
  22989592.580    22989592.550   120811137.402 5       286.962    22989594.280
  94138559.278 5       223.621
  20617706.667    20617707.147   108346840.864 6      5226.503    20617709.037
  84426114.725 6      4072.594
  22506643.422    22506643.392   118273202.822 6      2667.931    22506642.802
  92160958.034 6      2078.888
  21395988.317    21395988.007   112436672.683 6      4399.425    21395989.037
  87613011.238 6      3428.115
 17  4  9 16 15 22.0000000  0  8G26G14G 6G25G12G29G 2G31             0.000408577
  24534842.619    24534841.999   128931468.299 4      7102.474    24534848.909
 100466099.379 4      5534.376
  24028984.728    24028984.458   126273169.905 4       922.779    24028987.778
  98394696.765 4       719.054
  24595521.718                                         484.272

  20606808.985    20606808.315   108289581.919 7      2359.862    20606812.995
  84381461.357 7      1838.855
  22989537.656    22989537.866   120810850.311 5       287.042    22989539.446
  94138335.566 5       223.671
  20616712.011    20616712.601   108341614.649 7      5225.938    20616714.521
  84422042.348 6      4072.167
  22506135.790    22506135.630   118270534.937 6      2667.308    22506135.110
  92158879.167 6      2078.443
  21395151.296    21395150.936   112432273.565 6      4398.742    21395151.906
  87609583.356 6      3427.590
 17  4  9 16 15 23.0000000  0  8G26G14G 6G25G12G29G 2G31             0.000406288
  24533491.015    24533490.345   128924365.891 4      7102.339    24533497.225
 100460565.034 4      5534.267
  24028808.954    24028808.994   126272247.640 4       922.088    24028812.214
  98393978.110 4       718.489
  24595429.755                                         484.024

  20606359.645    20606359.225   108287222.177 7      2359.453    20606363.965
  84379622.598 7      1838.533
  22989483.640    22989483.320   120810563.412 5       286.675    22989484.790
  94138112.007 5       223.398
  20615717.762    20615718.162   108336388.959 7      5225.309    20615720.142
  84417970.379 7      4071.660
  22505628.006    22505628.006   118267867.589 6      2667.014    22505627.676
  92156800.713 6      2078.163
  21394314.145    21394313.995   112427875.059 6      4398.077    21394314.915
  87606155.948 6      3427.077
 17  4  9 16 15 24.0000000  0  8G26G14G 6G25G12G29G 2G31             0.000403998
  24532139.028    24532138.888   128917263.665 4      7101.932    24532145.618
 100455030.837 4      5534.014
  24028633.866    24028633.706   126271325.836 4       921.675    24028636.626
  98393259.834 4       718.196
  24595338.487                                         481.481

  20605910.688    20605910.278   108284863.034 7      2358.827    20605915.068
  84377784.306 7      1838.049
  22989429.109    22989428.949   120810276.789 5       286.549    22989430.269
  94137888.671 5       223.284
  20614723.372    20614723.772   108331163.872 6      5224.716    20614725.842
  84413898.887 6      4071.215
  22505120.742    22505120.582   118265200.898 6      2666.425    22505120.242
  92154722.777 6      2077.741
  21393477.468    21393477.098   112423477.254 6      4397.352    21393478.128
  87602729.088 6      3426.508
 17  4  9 16 15 25.0000000  0  8G26G14G 6G25G12G29G 2G31             0.000401709
  24530788.012    24530787.562   128910161.437 4      7102.339    24530794.112
 100449496.625 4      5534.316
  24028458.584    24028458.274   126270404.309 4       920.953    24028460.994
  98392541.758 4       717.589
  24595247.149                                         482.108

  20605461.818    20605461.458   108282504.361 7      2358.183    20605466.208
  84375946.377 7      1837.545
  22989374.835    22989374.525   120809990.349 5       286.458    22989375.735
  94137665.464 5       223.219
  20613728.853    20613729.523   108325939.286 7      5224.343    20613731.593
  84409827.778 7      4070.931
  22504613.431    22504613.231   118262534.726 6      2665.783    22504612.871
  92152645.241 6      2077.252
  21392640.680    21392640.330   112419080.062 6      4396.893    21392641.380
  87599302.706 6      3426.171
 17  4  9 16 15 26.0000000  0  8G26G14G 6G25G12G29G 2G31             0.000399420
  24529436.764    24529436.134   128903059.326 4      7101.909    24529442.734
 100443962.513 4      5533.955
  24028283.168    24028282.788   126269483.098 4       920.920    24028285.488
  98391823.932 4       717.639
  24595155.297    24595156.097   129248427.471 1       482.967    24595166.607
 100713067.630 1       376.093
  20605012.901    20605012.711   108280146.137 7      2358.101    20605017.451
  84374108.799 7      1837.484
  22989320.346    22989320.186   120809704.076 5       286.166    22989321.506
  94137442.398 5       223.000
  20612735.078    20612735.438   108320715.203 7      5223.704    20612737.408
  84405757.062 7      4070.420
  22504106.305    22504105.925   118259869.055 6      2665.331    22504105.575
  92150568.100 6      2076.875
  21391804.158    21391803.748   112414683.433 6      4396.130    21391804.768
  87595876.763 6      3425.566
 17  4  9 16 15 27.0000000  0  8G26G14G 6G25G12G29G 2G31             0.000397130
  24528085.477    24528084.607   128895957.261 4      7102.245    24528091.297
 100438428.440 4      5534.248
  24028108.086    24028107.616   126268562.319 4       920.425    24028110.346
  98391106.440 4       717.244
  24595063.422    24595064.302   129247945.589 1       483.048    24595073.782
 100712692.120 1       376.394
  20604564.512    20604564.092   108277788.454 7      2357.618    20604568.752
  84372271.644 7      1837.101
  22989266.221    22989265.681   120809418.027 5       285.933    22989267.141
  94137219.500 5       222.796
  20611740.954    20611741.434   108315491.676 7      5223.410    20611743.374
  84401686.778 6      4070.192
  22503599.290    22503598.740   118257203.997 6      2664.666    22503598.580
  92148491.426 6      2076.376
  21390967.295    21390967.155   112410287.446 6      4395.980    21390968.305
  87592451.319 6      3425.445
 17  4  9 16 15 28.0000000  0  8G26G14G 6G25G12G29G 2G31             0.000394841
  24526733.714    24526733.274   128888855.326 4      7102.562    24526739.794
 100432894.466 4      5534.479
  24027933.216    24027932.536   126267641.796 4       920.541    24027935.296
  98390389.139 4       717.316
  24594972.866    24594972.506   129247464.039 1       480.484    24594982.336
 100712316.895 1       374.396
  20604116.039    20604115.519   108275431.226 7      2357.073    20604120.139
  84370434.844 7      1836.686
  22989211.384    22989211.144   120809132.161 5       285.589    22989212.864
  94136996.752 5       222.539
  20610747.118    20610747.518   108310268.610 7      5222.958    20610749.568
  84397616.861 6      4069.840
  22503092.218    22503091.688   118254539.437 6      2664.272    22503091.448
  92146415.138 6      2076.060
  21390130.483    21390130.643   112405892.065 6      4394.856    21390131.893
  87589026.349 6      3424.558
 17  4  9 16 15 29.0000000  0  8G26G14G 6G25G12G29G 2G31             0.000392552
  24525383.003    24525381.783   128881753.448 4      7100.954    24525388.563
 100427360.532 4      5533.204
  24027757.863    24027757.353   126266721.613 4       919.749    24027760.113
  98389672.117 4       716.709
  24594881.143    24594880.073   129246982.618 1       481.587    24594890.923
 100711941.752 1       375.279
  20603667.600    20603667.080   108273074.498 7      2356.289    20603671.730
  84368598.431 7      1836.064
  22989156.645    22989156.685   120808846.471 5       285.498    22989158.525
  94136774.134 5       222.460
  20609753.342    20609753.752   108305046.092 7      5222.262    20609755.772
  84393547.362 7      4069.286
  22502585.298    22502584.758   118251875.393 6      2663.434    22502584.598
  92144339.253 6      2075.386
  21389294.072    21389294.202   112401497.253 6      4394.393    21389295.542
  87585601.814 6      3424.206
 17  4  9 16 15 30.0000000  0  8G26G14G 6G25G12G29G 2G31             0.000390262
  24524031.399    24524030.479   128874651.718 4      7101.541    24524037.149
 100421826.719 4      5533.697
  24027583.561    24027582.431   126265801.856 4       919.421    24027585.041
  98388955.422 4       716.417
  24594789.055    24594788.505   129246501.870 1       480.782    24594798.685
 100711567.156 1       374.643
  20603219.204    20603218.694   108270718.343 7      2356.032    20603223.374
  84366762.470 7      1835.889
  22989102.312    22989102.512   120808561.059 5       285.330    22989104.262
  94136551.736 5       222.342
  20608759.505    20608760.055   108299824.150 7      5221.764    20608762.045
  84389478.318 7      4068.914
  22502078.509    22502077.909   118249211.986 6      2663.083    22502077.739
  92142263.871 6      2075.136
  21388457.830    21388457.940   112397103.167 6      4393.748    21388459.380
  87582177.851 6      3423.697
 17  4  9 16 15 31.0000000  0  8G26G14G 6G25G12G29G 2G31             0.000387973
  24522679.772    24522679.042   128867550.017 4      7101.499    24522685.692
 100416292.928 4      5533.611
  24027409.085    24027407.205   126264882.405 4       919.122    24027410.025
  98388238.955 4       716.128
  24594696.545    24594697.515   129246021.207 1       480.363    24594705.955
 100711192.607 1       374.408
  20602770.908    20602770.438   108268362.688 7      2355.255    20602775.108
  84364926.898 7      1835.261
  22989048.437    22989048.267   120808275.838 5       285.217    22989049.787
  94136329.487 5       222.269
  20607766.069    20607766.449   108294602.749 6      5221.056    20607768.419
  84385409.695 6      4068.367
  22501571.740    22501571.150   118246549.125 6      2662.550    22501571.110
  92140188.917 6      2074.701
  21387621.570    21387621.830   112392709.660 6      4393.083    21387623.270
  87578754.339 6      3423.172
 17  4  9 16 15 32.0000000  0  8G26G14G 6G25G12G29G 2G31             0.000385684
  24521328.343    24521327.593   128860448.555 4      7101.201    24521334.343
 100410759.319 4      5533.402
  24027233.361    24027232.371   126263963.450 4       918.541    24027235.091
  98387522.884 4       715.739
  24594604.017    24594606.027   129245541.120 1       480.327    24594614.357
 100710818.493 1       374.282
  20602322.833    20602322.363   108266007.630 7      2354.954    20602327.033
  84363091.788 7      1835.039
  22988994.291    22988994.191   120807990.906 5       284.933    22988995.611
  94136107.462 5       222.045
  20606773.058    20606773.058   108289381.955 6      5220.631    20606774.978
  84381341.540 6      4068.035
  22501065.110    22501064.540   118243886.932 6      2662.070    22501064.470
  92138114.479 6      2074.366
  21386785.661    21386785.821   112388316.873 6      4392.486    21386787.301
  87575331.393 6      3422.711
 17  4  9 16 15 33.0000000  0  8G26G14G 6G25G12G29G 2G31             0.000383394
  24519976.556    24519976.166   128853347.156 4      7101.157    24519983.056
 100405225.769 4      5533.369
  24027058.386    24027057.426   126263044.784 4       918.147    24027060.266
  98386807.040 4       715.426
  24594513.929    24594515.229   129245061.287 2       479.821    24594522.429
 100710444.607 1       373.801
  20601874.879    20601874.279   108263653.052 7      2354.377    20601878.989
  84361257.052 7      1834.587
  22988940.430    22988940.090   120807706.176 5       284.582    22988941.420
  94135885.593 5       221.727
  20605779.815    20605779.725   108284161.682 7      5219.913    20605781.675
  84377273.798 7      4067.478
  22500558.971    22500558.001   118241225.244 6      2661.467    22500557.941
  92136040.437 6      2073.875
  21385950.136    21385950.036   112383924.698 6      4391.786    21385951.526
  87571908.919 6      3422.176
 17  4  9 16 15 34.0000000  0  8G26G14G 6G25G12G29G 2G31             0.000381105
  24518625.788    24518624.948   128846245.889 4      7100.904    24518631.818
 100399692.313 4      5533.139
  24026883.538    24026882.608   126262126.488 4       918.275    24026885.218
  98386091.480 4       715.511
  24594422.984    24594424.554   129244581.808 2       479.996    24594430.844
 100710071.013 2       373.976
  20601426.856    20601426.336   108261299.010 7      2353.692    20601431.036
  84359422.735 7      1834.027
  22988886.579    22988886.059   120807421.665 5       284.403    22988887.269
  94135663.895 5       221.610
  20604786.659    20604786.509   108278941.946 6      5219.287    20604788.379
  84373206.466 6      4066.961
  22500052.528    22500051.648   118238564.143 6      2660.819    22500051.588
  92133966.854 6      2073.340
  21385114.382    21385114.272   112379533.133 6      4391.329    21385115.902
  87568486.931 6      3421.816
 17  4  9 16 15 35.0000000  0  8G26G14G 6G25G12G29G 2G31             0.000378816
  24517273.784    24517273.624   128839144.702 4      7101.544    24517280.674
 100394158.921 4      5533.665
  24026708.420    24026707.930   126261208.531 4       918.089    24026710.590
  98385376.199 4       715.387
  24594331.819    24594332.989   129244102.741 2       478.587    24594339.739
 100709697.729 2       373.023
  20600978.942    20600978.452   108258945.476 7      2353.436    20600983.222
  84357588.812 7      1833.848
  22988832.399    22988831.829   120807137.375 5       284.090    22988833.159
  94135442.366 5       221.366
  20603793.536    20603793.376   108273722.759 6      5219.047    20603795.166
  84369139.567 6      4066.785
  22499545.912    22499545.382   118235903.615 6      2660.361    22499545.492
  92131893.712 6      2072.997
  21384278.640    21384278.730   112375142.247 6      4390.587    21384280.410
  87565065.460 6      3421.243
 17  4  9 16 15 36.0000000  0  8G26G14G 6G25G12G29G 2G31             0.000376526
  24515922.025    24515922.265   128832043.633 4      7101.139    24515929.615
 100388625.621 4      5533.332
  24026533.689    24026533.469   126260290.951 4       917.647    24026536.189
  98384661.198 4       715.016
  24594240.075    24594241.275   129243623.977 2       477.362    24594247.875
 100709324.679 2       372.029
  20600531.144    20600530.654   108256592.453 7      2352.921    20600535.414
  84355755.282 7      1833.447
  22988778.189    22988777.749   120806853.262 5       284.062    22988779.039
  94135220.981 5       221.359
  20602800.612    20602800.242   108268504.088 7      5218.559    20602802.102
  84365073.068 7      4066.414
  22499039.460    22499039.330   118233243.621 6      2659.965    22499039.350
  92129820.987 6      2072.695
  21383443.274    21383443.304   112370751.943 6      4390.108    21383444.974
  87561644.447 6      3420.862
 17  4  9 16 15 37.0000000  0  8G26G14G 6G25G12G29G 2G31             0.000374237
  24514570.482    24514570.912   128824942.592 4      7100.535    24514578.472
 100383092.344 4      5532.883
  24026359.393    24026358.803   126259373.682 4       916.305    24026361.293
  98383946.441 4       714.016
  24594150.244    24594150.154   129243145.408 2       478.304    24594156.724
 100708951.774 2       372.780
  20600083.427    20600082.947   108254239.866 7      2352.229    20600087.737
  84353922.094 7      1832.927
  22988723.983    22988723.703   120806569.299 5       283.929    22988724.893
  94134999.715 5       221.274
  20601807.761    20601807.251   108263285.899 7      5217.907    20601809.071
  84361006.939 6      4065.903
  22498533.671    22498533.251   118230584.136 6      2659.274    22498533.281
  92127748.664 6      2072.188
  21382607.967    21382608.037   112366362.222 6      4389.215    21382609.617
  87558223.885 6      3420.197
 17  4  9 16 15 38.0000000  0  8G26G14G 6G25G12G29G 2G31             0.000371948
  24513219.501    24513219.531   128817841.689 4      7101.167    24513227.041
 100377559.160 4      5533.406
  24026184.462    24026184.542   126258456.728 4       916.858    24026186.822
  98383231.931 4       714.459
  24594060.251    24594059.261   129242667.361 2       477.194    24594066.451
 100708579.261 2       371.868
  20599635.847    20599635.337   108251887.820 7      2351.721    20599640.157
  84352089.331 7      1832.505
  22988670.189    22988669.789   120806285.632 5       283.569    22988670.839
  94134778.674 5       220.968
  20600814.948    20600814.398   108258068.273 7      5217.354    20600816.168
  84356941.257 6      4065.475
  22498027.564    22498027.244   118227925.255 6      2658.682    22498027.234
  92125676.808 6      2071.707
  21381772.620    21381772.770   112361973.170 6      4388.578    21381774.380
  87554803.849 6      3419.692
 17  4  9 16 15 39.0000000  0  8G26G14G 6G25G12G29G 2G31             0.000369658
  24511868.613    24511868.353   128810740.932 4      7100.244    24511875.703
 100372026.088 4      5532.614
  24026010.084    24026010.014   126257540.185 4       917.006    24026012.144
  98382517.745 4       714.558
  24593969.173    24593968.303   129242189.553 2       477.556    24593974.883
 100708206.956 2       372.028
  20599188.309    20599187.939   108249536.351 7      2351.127    20599192.569
  84350257.015 7      1832.049
  22988616.249    22988615.789   120806002.171 5       283.207    22988616.689
  94134557.799 5       220.650
  20599822.187    20599821.537   108252851.228 7      5216.673    20599823.367
  84352876.030 7      4064.943
  22497521.702    22497521.312   118225266.974 6      2657.868    22497521.452
  92123605.419 6      2071.079
  21380937.461    21380937.601   112357584.771 6      4387.878    21380939.291
  87551384.316 6      3419.118
 17  4  9 16 15 40.0000000  0  8G26G14G 6G25G12G29G 2G31             0.000367369
  24510517.163    24510517.153   128803640.301 4      7100.343    24510524.483
 100366493.126 4      5532.743
  24025836.360    24025835.600   126256624.094 4       916.472    24025838.080
  98381803.900 4       714.203
  24593878.904    24593877.154   129241712.206 2       477.589    24593883.864
 100707835.003 2       372.105
  20598740.930    20598740.550   108247185.434 7      2350.753    20598745.190
  84348425.131 7      1831.776
  22988562.335    22988561.995   120805718.995 5       283.077    22988562.845
  94134337.141 5       220.577
  20598829.414    20598828.844   108247634.771 6      5216.245    20598830.714
  84348811.262 7      4064.618
  22497015.989    22497015.599   118222609.314 6      2657.664    22497015.709
  92121534.516 6      2070.928
  21380102.317    21380102.567   112353197.072 6      4387.431    21380104.267
  87547965.331 6      3418.787
 17  4  9 16 15 41.0000000  0  8G26G14G 6G25G12G29G 2G31             0.000365080
  24509166.047    24509166.087   128796539.685 4      7100.772    24509173.267
 100360960.188 4      5533.090
  24025661.563    24025660.963   126255708.240 4       915.578    24025663.693
  98381090.240 4       713.472
  24593788.153    24593787.283   129241235.127 2       477.471    24593792.623
 100707463.247 2       372.081
  20598293.758    20598293.288   108244834.951 7      2350.338    20598297.878
  84346593.585 7      1831.441
  22988508.124    22988508.124   120805435.948 5       282.946    22988508.914
  94134116.581 5       220.513
  20597837.205    20597836.315   108242418.780 6      5215.763    20597838.085
  84344746.855 7      4064.229
  22496510.357    22496509.947   118219952.135 6      2656.726    22496510.147
  92119463.993 6      2070.169
  21379267.608    21379267.728   112348809.914 6      4386.875    21379269.568
  87544546.767 6      3418.340
 17  4  9 16 15 42.0000000  0  8G26G14G 6G25G12G29G 2G31             0.000362790
  24507814.625    24507814.835   128789439.149 4      7100.587    24507821.975
 100355427.307 4      5532.925
  24025487.790    24025486.810   126254792.721 4       914.846    24025489.770
  98380376.845 4       712.823
  24593696.699    24593696.789   129240758.406 2       478.038    24593702.769
 100707091.789 2       372.497
  20597846.641    20597846.051   108242484.950 7      2349.639    20597850.691
  84344762.416 7      1830.878
  22988454.398    22988454.408   120805153.074 5       282.789    22988455.158
  94133896.159 5       220.370
  20596844.837    20596843.987   108237203.287 7      5215.321    20596845.647
  84340682.838 7      4063.887
  22496004.997    22496004.517   118217295.494 6      2656.544    22496004.637
  92117393.883 6      2070.036
  21378432.830    21378433.030   112344423.367 6      4386.266    21378434.890
  87541128.670 6      3417.861
 17  4  9 16 15 43.0000000  0  8G26G14G 6G25G12G29G 2G31             0.000360501
  24506463.972    24506463.702   128782338.773 4      7100.197    24506470.712
 100349894.552 4      5532.610
  24025313.116    24025312.656   126253877.579 4       914.709    24025315.756
  98379663.756 4       712.768
  24593606.513    24593606.513   129240282.029 2       476.090    24593612.673
 100706720.568 2       371.041
  20597399.714    20597399.074   108240135.494 7      2349.037    20597403.584
  84342931.669 7      1830.435
  22988400.757    22988400.627   120804870.448 5       282.764    22988401.147
  94133675.931 5       220.345
  20595852.654    20595851.654   108231988.385 7      5214.630    20595853.384
  84336619.270 6      4063.360
  22495499.688    22495499.098   118214639.426 6      2656.012    22495499.128
  92115324.221 6      2069.621
  21377598.245    21377598.415   112340037.471 6      4385.629    21377600.295
  87537711.092 6      3417.382
 17  4  9 16 15 44.0000000  0  8G26G14G 6G25G12G29G 2G31             0.000358211
  24505112.930    24505112.620   128775238.484 4      7100.330    24505119.360
 100344361.865 4      5532.690
  24025138.783    24025138.513   126252962.810 4       914.920    24025141.583
  98378950.947 4       712.961
  24593515.270    24593515.950   129239805.966 2       475.038    24593521.650
 100706349.635 2       370.079
  20596952.656    20596952.036   108237786.538 7      2348.681    20596956.616
  84341101.317 7      1830.116
  22988346.829    22988346.729   120804588.049 5       282.089    22988347.499
  94133455.881 5       219.766
  20594860.540    20594859.360   108226773.999 6      5214.229    20594861.100
  84332556.118 6      4063.012
  22494994.533    22494993.783   118211983.940 6      2655.160    22494993.823
  92113255.016 6      2068.940
  21376763.728    21376763.948   112335652.214 6      4384.795    21376765.818
  87534294.010 6      3416.712
 17  4  9 16 15 45.0000000  0  8G26G14G 6G25G12G29G 2G31             0.000355922
  24503761.382    24503761.512   128768138.230 4      7100.896    24503768.282
 100338829.201 4      5533.139
  24024965.253    24024964.683   126252048.346 4       914.152    24024967.583
  98378238.375 4       712.309
  24593425.790    24593425.670   129239330.268 2       474.844    24593430.460
 100705978.933 2       370.031
  20596505.796    20596505.076   108235438.072 7      2347.966    20596509.686
  84339271.345 7      1829.572
  22988293.062    22988292.992   120804305.782 5       282.404    22988293.842
  94133235.930 5       220.027
  20593868.149    20593867.189   108221560.132 7      5213.564    20593868.969
  84328493.365 7      4062.515
  22494489.360    22494488.620   118209328.976 6      2654.506    22494488.530
  92111186.209 6      2068.428
  21375929.371    21375929.561   112331267.529 6      4384.358    21375931.391
  87530877.367 6      3416.364
 17  4  9 16 15 46.0000000  0  8G26G14G 6G25G12G29G 2G31             0.000353633
  24502409.635    24502410.345   128761038.180 4      7099.980    24502417.095
 100333296.701 4      5532.442
  24024790.600    24024790.540   126251134.299 4       913.940    24024793.270
  98377526.136 4       712.178
  24593335.072    24593334.832   129238854.944 2       475.839    24593339.622
 100705608.530 2       370.760
  20596058.910    20596058.220   108233090.194 7      2347.551    20596062.940
  84337441.830 7      1829.272
  22988239.334    22988239.154   120804023.835 5       282.056    22988240.104
  94133016.233 5       219.802
  20592876.297    20592875.227   108216346.864 7      5213.072    20592876.847
  84324431.081 7      4062.140
  22493984.192    22493983.542   118206674.641 6      2654.104    22493983.402
  92109117.894 6      2068.143
  21375095.111    21375095.231   112326883.571 6      4383.618    21375097.141
  87527461.294 6      3415.833
 17  4  9 16 15 47.0000000  0  8G26G14G 6G25G12G29G 2G31             0.000351343
  24501058.830    24501059.210   128753938.139 4      7100.343    24501065.970
 100327764.214 4      5532.714
  24024616.811    24024616.681   126250220.535 4       913.877    24024619.071
  98376814.104 4       712.123
  24593245.021    24593244.461   129238379.928 2       474.906    24593249.391
 100705238.382 2       369.996
  20595612.251    20595611.511   108230742.744 7      2347.136    20595616.181
  84335612.648 7      1828.933
  22988185.268    22988185.458   120803742.031 5       281.768    22988186.558
  94132796.638 5       219.563
  20591884.383    20591883.273   108211134.063 6      5212.443    20591884.883
  84320369.162 6      4061.630
  22493479.413    22493478.503   118204020.803 6      2653.481    22493478.393
  92107049.968 6      2067.639
  21374261.205    21374261.035   112322500.174 6      4383.168    21374263.005
  87524045.662 6      3415.446
 17  4  9 16 15 48.0000000  0  8G26G14G 6G25G12G29G 2G31             0.000349054
  24499707.803    24499708.233   128746838.262 4      7099.913    24499715.033
 100322231.835 4      5532.424
  24024443.453    24024442.753   126249307.234 4       912.915    24024445.103
  98376102.429 4       711.389
  24593153.618    24593154.668   129237905.172 2       475.282    24593159.098
 100704868.459 2       370.360
  20595165.708    20595164.788   108228395.825 7      2346.897    20595169.618
  84333783.885 7      1828.740
  22988132.120    22988131.860   120803460.439 5       281.423    22988133.000
  94132577.216 5       219.252
  20590892.504    20590891.384   108205921.831 6      5211.969    20590892.984
  84316307.682 6      4061.263
  22492974.720    22492973.660   118201367.543 6      2653.220    22492973.550
  92104982.493 6      2067.439
  21373426.973    21373427.043   112318117.401 6      4382.522    21373428.893
  87520630.512 6      3414.948
 17  4  9 16 15 49.0000000  0  8G26G14G 6G25G12G29G 2G31             0.000346764
  24498356.684    24498357.164   128739738.425 4      7099.869    24498364.224
 100316699.489 4      5532.363
  24024269.858    24024268.958   126248394.201 4       912.426    24024271.268
  98375390.987 4       710.995
  24593064.089    24593064.689   129237430.829 2       474.625    24593068.729
 100704498.846 2       369.741
  20594719.165    20594718.325   108226049.410 7      2346.125    20594723.075
  84331955.504 7      1828.150
  22988078.592    22988078.342   120803179.009 5       281.243    22988079.412
  94132357.917 5       219.126
  20589900.912    20589899.632   108200710.092 7      5211.409    20589901.232
  84312246.582 7      4060.841
  22492469.629    22492468.929   118198714.808 6      2652.389    22492468.789
  92102915.430 6      2066.828
  21372593.231    21372593.201   112313735.228 6      4382.037    21372595.081
  87517215.831 6      3414.574
 17  4  9 16 15 50.0000000  0  8G26G14G 6G25G12G29G 2G31             0.000344475
  24497005.443    24497005.953   128732638.678 4      7099.747    24497013.023
 100311167.216 4      5532.285
  24024096.882    24024095.482   126247481.421 4       912.752    24024097.732
  98374679.716 4       711.266
  24592973.459    24592974.899   129236956.773 2       473.505    24592977.819
 100704129.437 2       368.914
  20594272.750    20594271.950   108223703.449 7      2345.625    20594276.700
  84330127.480 7      1827.768
  22988025.367    22988024.867   120802897.767 5       281.047    22988025.857
  94132138.778 5       219.016
  20588909.104    20588907.964   108195498.849 7      5210.821    20588909.534
  84308185.876 7      4060.384
  22491964.987    22491964.277   118196062.586 6      2651.878    22491964.077
  92100848.757 6      2066.407
  21371759.330    21371759.370   112309353.653 6      4381.263    21371761.310
  87513801.618 6      3413.964
 17  4  9 16 15 51.0000000  0  8G26G14G 6G25G12G29G 2G31             0.000342186
  24495654.837    24495655.017   128725539.028 4      7099.772    24495662.017
 100305635.024 4      5532.329
  24023923.027    24023921.827   126246569.085 4       912.118    24023924.207
  98373968.807 4       710.787
  24592883.772    24592885.092   129236483.028 2       474.065    24592888.112
 100703760.291 2       369.430
  20593826.106    20593825.676   108221358.042 7      2345.060    20593830.426
  84328299.891 7      1827.322
  22987971.976    22987971.446   120802616.784 5       280.986    22987972.446
  94131919.823 5       218.936
  20587917.397    20587916.397   108190288.189 7      5210.332    20587917.937
  84304125.622 6      4059.994
  22491460.222    22491459.602   118193410.969 6      2651.265    22491459.462
  92098782.566 6      2065.920
  21370925.760    21370925.660   112304972.751 6      4380.495    21370927.640
  87510387.929 6      3413.368
 17  4  9 16 15 52.0000000  0  8G26G14G 6G25G12G29G 2G31             0.000339896
  24494303.411    24494304.021   128718439.465 4      7099.275    24494310.831
 100300102.892 4      5531.918
  24023749.717    24023748.587   126245657.048 4       912.225    24023750.467
  98373258.122 4       710.856
  24592793.590    24592794.620   129236009.678 2       472.148    24592798.640
 100703391.436 2       367.990
  20593379.988    20593379.458   108219013.094 7      2344.668    20593384.188
  84326472.661 7      1827.016
  22987918.488    22987917.988   120802335.992 5       280.723    22987919.098
  94131701.023 5       218.779
  20586925.912    20586924.932   108185078.023 6      5209.860    20586926.552
  84300065.755 7      4059.637
  22490955.638    22490955.108   118190759.884 6      2650.875    22490954.928
  92096716.781 6      2065.620
  21370092.413    21370092.083   112300592.428 6      4380.007    21370094.053
  87506974.691 6      3412.987
 17  4  9 16 15 53.0000000  0  8G26G14G 6G25G12G29G 2G31             0.000337607
  24492952.844    24492953.044   128711340.046 4      7099.248    24492959.624
 100294570.872 4      5531.883
  24023576.776    24023574.916   126244745.420 4       911.134    24023576.996
  98372547.759 4       709.937
  24592704.002    24592704.652   129235536.614 2       472.766    24592708.062
 100703022.826 2       368.522
  20592934.062    20592933.362   108216668.713 7      2344.110    20592938.002
  84324645.872 7      1826.555
  22987864.920    22987864.610   120802055.414 5       280.514    22987865.740
  94131482.387 5       218.615
  20585934.757    20585933.667   108179868.431 7      5209.512    20585935.237
  84296006.336 6      4059.338
  22490451.454    22490450.754   118188109.389 6      2650.292    22490450.534
  92094651.460 6      2065.165
  21369258.782    21369258.622   112296212.782 6      4379.312    21369260.662
  87503561.978 6      3412.440
 17  4  9 16 15 54.0000000  0  8G26G14G 6G25G12G29G 2G31             0.000335318
  24491601.810    24491602.260   128704240.711 4      7099.264    24491608.710
 100289038.920 4      5531.851
  24023402.826    24023401.376   126243834.108 4       910.933    24023403.886
  98371837.646 4       709.845
  24592614.285    24592614.635   129235063.951 2       473.333    24592618.165
 100702654.509 2       368.816
  20592487.880    20592487.330   108214324.822 7      2343.744    20592492.050
  84322819.462 7      1826.287
  22987811.245    22987811.055   120801775.055 5       280.129    22987812.365
  94131263.931 5       218.282
  20584943.310    20584942.310   108174659.368 7      5208.949    20584943.980
  84291947.330 6      4058.924
  22489947.260    22489946.590   118185459.436 6      2649.730    22489946.340
  92092586.569 6      2064.738
  21368425.299    21368425.359   112291833.759 6      4378.394    21368427.429
  87500149.755 6      3411.735
 17  4  9 16 15 55.0000000  0  8G26G14G 6G25G12G29G 2G31             0.000333028
  24490251.060    24490251.310   128697141.422 4      7099.009    24490257.720
 100283507.006 4      5531.656
  24023229.138    24023227.698   126242923.128 4       909.857    24023230.628
  98371127.806 4       708.990
  24592525.877    24592525.317   129234591.587 2       471.817    24592528.367
 100702286.433 2       367.591
  20592041.942    20592041.382   108211981.405 7      2343.046    20592046.162
  84320993.429 7      1825.725
  22987758.046    22987757.646   120801494.858 5       279.798    22987759.156
  94131045.604 5       218.017
  20583952.224    20583951.154   108169450.806 7      5208.131    20583952.804
  84287888.707 6      4058.257
  22489442.994    22489442.324   118182810.021 6      2649.057    22489442.104
  92090522.085 6      2064.202
  21367592.220    21367592.150   112287455.291 6      4378.179    21367594.170
  87496737.964 6      3411.551
 17  4  9 16 15 56.0000000  0  8G26G14G 6G25G12G29G 2G31             0.000330739
  24488900.263    24488900.433   128690042.229 4      7099.310    24488906.903
 100277975.175 4      5531.914
  24023056.087    24023054.517   126242012.462 4       910.278    24023057.947
  98370418.180 4       709.320
  24592436.183    24592435.133   129234119.531 2       471.368    24592439.093
 100701918.596 2       367.341
  20591596.004    20591595.484   108209638.476 7      2342.898    20591600.324
  84319167.777 7      1825.615
  22987704.921    22987704.291   120801214.841 5       280.235    22987705.931
  94130827.417 5       218.332
  20582961.038    20582960.028   108164242.763 7      5207.813    20582961.728
  84283830.498 6      4058.032
  22488939.456    22488938.216   118180161.134 6      2648.850    22488938.056
  92088458.020 6      2064.059
  21366758.914    21366759.114   112283077.476 6      4377.597    21366761.094
  87493326.673 6      3411.105
 17  4  9 16 15 57.0000000  0  8G26G14G 6G25G12G29G 2G31             0.000328449
  24487548.596    24487549.326   128682943.107 4      7098.826    24487556.006
 100272443.400 4      5531.552
  24022882.715    24022881.445   126241102.103 4       909.805    24022884.665
  98369708.817 4       708.958
  24592346.198    24592345.178   129233647.740 2       471.190    24592349.358
 100701550.984 2       367.113
  20591150.311    20591149.731   108207296.031 7      2342.188    20591154.501
  84317342.498 7      1825.079
  22987651.608    22987651.138   120800935.017 5       279.688    22987652.618
  94130609.369 5       217.919
  20581970.229    20581969.179   108159035.234 7      5207.369    20581970.799
  84279772.679 7      4057.687
  22488435.505    22488434.335   118177512.784 6      2648.200    22488434.075
  92086394.360 6      2063.548
  21365925.906    21365926.096   112278700.244 6      4376.630    21365928.046
  87489915.851 6      3410.360
 17  4  9 16 15 58.0000000  0  8G26G14G 6G25G12G29G 2G31             0.000326160
  24486198.344    24486198.354   128675844.145 4      7098.787    24486205.124
 100266911.730 4      5531.519
  24022709.541    24022708.671   126240192.109 4       909.747    24022711.261
  98368999.732 4       708.894
  24592255.424    24592254.894   129233176.410 2       470.965    24592260.584
 100701183.723 2       366.927
  20590704.587    20590704.107   108204954.138 7      2341.500    20590708.817
  84315517.648 7      1824.538
  22987598.664    22987597.964   120800655.442 5       279.735    22987599.434
  94130391.523 5       218.006
  20580978.965    20580978.255   108153828.270 6      5206.593    20580979.935
  84275715.306 7      4057.089
  22487931.697    22487930.527   118174865.029 6      2647.354    22487930.237
  92084331.181 6      2062.881
  21365093.194    21365093.334   112274323.672 6      4376.299    21365095.254
  87486505.530 6      3410.101
 17  4  9 16 15 59.0000000  0  8G26G14G 6G25G12G29G 2G31             0.000323870
  24484846.705    24484847.445   128668745.150 4      7099.156    24484854.165
 100261380.054 4      5531.798
  24022536.757    24022535.687   126239282.475 4       909.356    24022538.097
  98368290.914 4       708.581
  24592165.488    24592165.598   129232705.279 2       471.690    24592171.048
 100700816.596 2       367.628
  20590259.091    20590258.491   108202612.701 7      2340.975    20590263.211
  84313693.152 7      1824.134
  22987545.499    22987544.909   120800376.002 5       279.288    22987546.249
  94130173.777 5       217.633
  20579988.343    20579987.413   108148621.758 7      5206.137    20579989.173
  84271658.293 6      4056.726
  22487427.806    22487426.826   118172217.789 6      2646.749    22487426.466
  92082268.393 6      2062.406
  21364260.367    21364260.677   112269947.676 6      4375.589    21364262.457
  87483095.661 6      3409.537
 17  4  9 16 16  0.0000000  0  8G26G14G 6G25G12G29G 2G31             0.000321581
  24483496.300    24483496.690   128661646.248 4      7098.652    24483503.390
 100255848.447 4      5531.423
  24022363.699    24022362.739   126238373.126 4       909.037    24022365.079
  98367582.333 4       708.329
  24592076.255    24592076.055   129232234.512 2       469.823    24592081.385
 100700449.753 2       366.206
  20589813.357    20589812.917   108200271.714 7      2340.677    20589817.717
  84311869.009 7      1823.908
  22987491.922    22987491.832   120800096.740 5       279.115    22987493.162
  94129956.168 5       217.500
  20578997.845    20578996.755   108143415.776 7      5205.671    20578998.515
  84267601.681 7      4056.402
  22486924.071    22486923.141   118169571.023 6      2646.375    22486922.841
  92080205.980 6      2062.101
  21363427.903    21363428.023   112265572.235 6      4374.979    21363429.853
  87479686.236 6      3409.064
 17  4  9 16 16  1.0000000  0  8G26G14G 6G25G12G29G 2G31             0.000319291
  24482146.028    24482145.838   128654547.488 4      7098.455    24482152.758
 100250316.941 4      5531.246
  24022191.407    24022190.187   126237464.130 4       908.754    24022192.027
  98366874.033 4       708.154
  24591986.870    24591987.330   129231764.022 2       469.738    24591991.480
 100700083.138 2       366.063
  20589367.849    20589367.439   108197931.263 7      2340.302    20589372.299
  84310045.280 7      1823.627
  22987438.783    22987438.703   120799817.692 5       279.251    22987440.103
  94129738.719 5       217.581
  20578007.117    20578006.207   108138210.332 7      5205.277    20578007.867
  84263545.494 7      4056.065
  22486420.576    22486419.626   118166924.867 6      2646.094    22486419.256
  92078144.041 6      2061.890
  21362595.373    21362595.563   112261197.464 6      4374.750    21362597.313
  87476277.323 6      3408.911
 17  4  9 16 16  2.0000000  0  8G26G14G 6G25G12G29G 2G31             0.000317002
  24480795.206    24480795.076   128647448.858 4      7098.741    24480801.896
 100244785.539 4      5531.457
  24022018.625    24022017.545   126236555.534 4       908.063    24022019.075
  98366166.031 4       707.599
  24591897.066    24591897.676   129231293.970 2       471.010    24591902.966
 100699716.857 2       367.016
  20588922.593    20588922.213   108195591.378 7      2339.633    20588927.053
  84308221.983 7      1823.090
  22987385.708    22987385.618   120799538.914 5       278.588    22987387.148
  94129521.489 5       217.075
  20577016.574    20577015.784   108133005.462 7      5204.651    20577017.314
  84259489.749 7      4055.570
  22485916.944    22485916.174   118164279.308 6      2645.161    22485915.814
  92076082.565 6      2061.157
  21361763.301    21361763.271   112256823.364 6      4373.731    21361764.891
  87472868.926 6      3408.108
 17  4  9 16 16  3.0000000  0  8G26G14G 6G25G12G29G 2G31             0.000314713
  24479444.352    24479444.162   128640350.321 4      7098.229    24479451.122
 100239254.217 4      5531.075
  24021846.017    24021844.787   126235647.253 4       908.233    24021846.097
  98365458.264 4       707.717
  24591808.330    24591809.100   129230824.311 2       467.708    24591813.640
 100699350.909 2       364.399
  20588477.381    20588477.041   108193251.997 7      2338.973    20588481.971
  84306399.089 7      1822.556
  22987332.778    22987332.548   120799260.296 5       278.604    22987334.258
  94129304.395 5       217.088
  20576026.036    20576025.526   108127801.128 7      5204.168    20576027.036
  84255434.424 7      4055.168
  22485413.491    22485412.761   118161634.291 6      2644.826    22485412.461
  92074021.509 6      2060.888
  21360930.801    21360931.081   112252449.870 6      4373.130    21360932.661
  87469461.015 6      3407.625
 17  4  9 16 16  4.0000000  0  8G26G14G 6G25G12G29G 2G31             0.000312423
  24478094.013    24478093.523   128633251.852 4      7098.673    24478100.473
 100233722.950 4      5531.421
  24021673.255    24021672.155   126234739.367 4       907.888    24021673.355
  98364750.839 4       707.525
  24591719.385    24591719.355   129230354.839 2       469.292    24591723.815
 100698985.092 2       365.622
  20588032.212    20588031.922   108190913.122 7      2338.452    20588036.892
  84304576.585 7      1822.203
  22987279.483    22987279.553   120798981.941 5       278.309    22987281.353
  94129087.495 5       216.915
  20575035.439    20575035.239   108122597.353 7      5203.479    20575036.769
  84251379.533 7      4054.725
  22484910.247    22484909.487   118158989.846 6      2644.185    22484909.287
  92071960.909 6      2060.428
  21360098.591    21360099.081   112248077.018 6      4372.731    21360100.501
  87466053.596 6      3407.331
 17  4  9 16 16  5.0000000  0  8G26G14G 6G25G12G29G 2G31             0.000310134
  24476742.644    24476742.714   128626153.511 4      7098.889    24476749.704
 100228191.774 4      5531.609
  24021500.539    24021499.679   126233831.793 4       907.547    24021500.559
  98364043.631 4       707.143
  24591630.168    24591630.378   129229885.817 2       468.273    24591635.408
 100698619.608 2       364.919
  20587587.469    20587586.899   108188574.717 7      2338.219    20587591.989
  84302754.457 7      1821.987
  22987226.629    22987226.609   120798703.747 5       278.637    22987228.399
  94128870.727 5       217.117
  20574045.260    20574045.110   108117394.075 7      5202.974    20574046.650
  84247325.026 7      4054.273
  22484407.057    22484406.417   118156345.939 6      2643.747    22484406.087
  92069900.721 6      2060.087
  21359266.755    21359267.075   112243704.784 6      4372.016    21359268.455
  87462646.658 6      3406.785
 17  4  9 16 16  6.0000000  0  8G26G14G 6G25G12G29G 2G31             0.000307844
  24475391.864    24475391.864   128619055.281 4      7097.991    24475399.124
 100222660.683 4      5530.887
  24021327.382    24021327.002   126232924.591 4       906.376    24021328.022
  98363336.726 4       706.235
  24591541.204    24591541.354   129229417.099 2       468.815    24591546.394
 100698254.363 2       365.309
  20587142.746    20587142.056   108186236.858 7      2337.498    20587147.076
  84300932.749 7      1821.409
  22987173.695    22987173.795   120798425.816 5       277.696    22987175.665
  94128654.161 5       216.376
  20573055.034    20573055.094   108112191.348 6      5202.325    20573056.644
  84243270.953 6      4053.743
  22483903.964    22483903.414   118153702.602 6      2642.850    22483903.054
  92067840.980 6      2059.340
  21358435.028    21358435.238   112239333.186 6      4370.942    21358436.568
  87459240.223 6      3405.905
 17  4  9 16 16  7.0000000  0  8G26G14G 6G25G12G29G 2G31             0.000305555
  24474040.858    24474041.018   128611957.150 4      7097.559    24474048.268
 100217129.666 4      5530.556
  24021154.442    24021154.382   126232017.671 4       906.796    24021155.612
  98362630.032 4       706.627
  24591451.623    24591451.773   129228948.725 2       467.252    24591456.273
 100697889.404 2       364.048
  20586698.243    20586697.303   108183899.507 7      2337.056    20586702.363
  84299111.430 7      1821.070
  22987120.802    22987121.002   120798148.057 5       277.511    22987122.732
  94128437.717 5       216.262
  20572064.806    20572065.126   108106989.140 7      5201.985    20572066.746
  84239217.286 7      4053.482
  22483401.156    22483400.476   118151059.805 6      2642.339    22483400.156
  92065781.660 6      2058.951
  21357603.144    21357603.504   112234962.187 6      4370.774    21357604.764
  87455834.251 6      3405.798
 17  4  9 16 16  8.0000000  0  8G26G14G 6G25G12G29G 2G31             0.000303265
  24472690.404    24472690.374   128604859.088 4      7097.795    24472697.644
 100211598.708 4      5530.758
  24020982.093    24020981.623   126231111.195 4       906.158    24020983.023
  98361923.692 4       706.110
  24591362.802    24591362.612   129228480.634 2       468.439    24591366.732
 100697524.651 2       365.088
  20586253.557    20586252.597   108181562.669 7      2336.674    20586257.717
  84297290.517 7      1820.811
  22987067.943    22987068.233   120797870.518 5       277.774    22987070.083
  94128221.454 5       216.478
  20571075.162    20571075.312   108101787.490 6      5201.467    20571076.882
  84235164.059 7      4053.121
  22482898.570    22482897.660   118148417.589 6      2641.977    22482897.330
  92063722.791 6      2058.701
  21356771.276    21356771.796   112230591.858 6      4370.000    21356773.216
  87452428.798 6      3405.208
 17  4  9 16 16  9.0000000  0  8G26G14G 6G25G12G29G 2G31             0.000300975
  24471339.246    24471339.786   128597761.129 4      7098.364    24471346.696
 100206067.837 4      5531.234
  24020809.745    24020809.165   126230205.004 4       906.084    24020810.775
  98361217.568 4       706.020
  24591272.967    24591273.547   129228012.960 2       467.467    24591278.957
 100697160.211 2       364.240
  20585809.048    20585808.058   108179226.341 7      2336.236    20585813.158
  84295469.997 7      1820.442
  22987014.969    22987015.289   120797593.204 5       277.077    22987017.319
  94128005.367 5       215.889
  20570085.429    20570085.439   108096586.370 6      5200.884    20570087.139
  84231111.245 6      4052.632
  22482395.925    22482394.975   118145775.950 6      2641.452    22482394.625
  92061664.367 6      2058.268
  21355940.034    21355940.334   112226222.147 6      4369.166    21355941.734
  87449023.829 6      3404.536
 17  4  9 16 16 10.0000000  0  8G26G14G 6G25G12G29G 2G31             0.000298685
  24469988.421    24469989.151   128590663.328 4      7097.438    24469996.151
 100200537.085 4      5530.449
  24020637.372    24020636.882   126229299.199 4       905.018    24020638.502
  98360511.758 4       705.156
  24591182.795    24591184.265   129227545.650 2       466.948    24591189.825
 100696796.080 2       363.859
  20585364.448    20585363.538   108176890.526 7      2335.562    20585368.628
  84293649.875 7      1819.928
  22986962.463    22986962.523   120797316.111 5       276.897    22986964.703
  94127789.447 5       215.753
  20569095.848    20569095.768   108091385.809 7      5200.261    20569097.438
  84227058.853 6      4052.146
  22481893.388    22481892.368   118143134.859 6      2640.722    22481891.968
  92059606.375 6      2057.714
  21355108.709    21355108.979   112221853.070 6      4368.601    21355110.349
  87445619.351 6      3404.108
 17  4  9 16 16 11.0000000  0  8G26G14G 6G25G12G29G 2G31             0.000296396
  24468637.680    24468638.450   128583565.548 4      7097.625    24468645.290
 100195006.355 4      5530.596
  24020465.668    24020464.568   126228393.703 4       905.688    24020466.188
  98359806.167 4       705.733
  24591091.708    24591094.668   129227078.516 2       466.791    24591100.368
 100696432.097 2       363.667
  20584920.051    20584919.131   108174555.185 7      2335.167    20584924.281
  84291830.126 7      1819.610
  22986909.549    22986909.749   120797039.185 5       276.854    22986912.049
  94127573.655 5       215.725
  20568106.539    20568106.209   108086185.723 6      5200.036    20568107.799
  84223006.834 6      4051.971
  22481390.933    22481389.973   118140494.283 6      2640.350    22481389.513
  92057548.784 6      2057.416
  21354277.559    21354277.679   112217484.566 6      4368.171    21354279.049
  87442215.329 6      3403.765
 17  4  9 16 16 12.0000000  0  8G26G14G 6G25G12G29G 2G31             0.000294106
  24467287.329    24467287.739   128576467.817 4      7098.485    24467294.709
 100189475.657 4      5531.265
  24020293.644    24020292.224   126227488.518 4       905.236    24020293.864
  98359100.820 4       705.369
  24591002.624    24591005.604   129226611.756 2       466.795    24591010.664
 100696068.412 2       363.702
  20584475.746    20584474.826   108172220.317 7      2334.646    20584479.936
  84290010.747 7      1819.197
  22986856.891    22986856.961   120796762.423 5       276.551    22986859.411
  94127357.995 5       215.506
  20567117.309    20567116.779   108080986.159 6      5199.284    20567118.489
  84218955.230 6      4051.391
  22480888.692    22480887.562   118137854.254 6      2639.971    22480887.122
  92055491.617 6      2057.136
  21353446.589    21353446.579   112213116.687 6      4367.388    21353447.939
  87438811.781 6      3403.155
 17  4  9 16 16 13.0000000  0  8G26G14G 6G25G12G29G 2G31             0.000291817
  24465936.893    24465937.113   128569370.312 4      7096.880    24465944.083
 100183945.130 4      5530.026
  24020121.301    24020119.931   126226583.715 4       904.761    24020121.521
  98358395.778 4       704.984
  24590915.712    24590917.112   129226145.395 2       466.915    24590921.922
 100695704.991 2       363.837
  20584031.258    20584030.598   108169885.998 7      2334.291    20584035.738
  84288191.799 7      1818.914
  22986804.426    22986804.366   120796485.911 5       276.626    22986806.906
  94127142.535 5       215.566
  20566127.913    20566127.413   108075787.163 7      5199.036    20566129.093
  84214904.065 6      4051.195
  22480386.586    22480385.396   118135214.828 6      2639.302    22480384.896
  92053434.921 6      2056.591
  21352615.381    21352615.441   112208749.454 6      4367.280    21352616.851
  87435408.740 6      3403.057
 17  4  9 16 16 14.0000000  0  8G26G14G 6G25G12G29G 2G31             0.000289527
  24464586.174    24464586.494   128562272.836 4      7097.668    24464593.584
 100178414.622 4      5530.659
  24019948.654    24019947.584   126225679.252 4       904.132    24019949.564
  98357691.003 4       704.549
  24590828.073    24590828.303   129225679.367 2       465.534    24590834.023
 100695341.874 2       362.806
  20583587.086    20583586.476   108167552.199 7      2333.384    20583591.606
  84286373.253 7      1818.227
  22986752.027    22986751.717   120796209.612 5       275.798    22986754.167
  94126927.228 5       214.863
  20565138.512    20565138.132   108070588.724 7      5198.037    20565139.852
  84210853.332 7      4050.429
  22479884.594    22479883.344   118132575.960 6      2638.409    22479882.704
  92051378.655 6      2055.899
  21351784.428    21351784.468   112204382.864 6      4365.948    21351785.938
  87432006.212 6      3402.020
 17  4  9 16 16 15.0000000  0  8G26G14G 6G25G12G29G 2G31             0.000287237
  24463235.609    24463235.969   128555175.507 4      7098.049    24463242.829
 100172884.231 4      5530.971
  24019777.294    24019775.564   126224775.192 4       904.149    24019777.514
  98356986.536 4       704.536
  24590736.575    24590739.135   129225213.691 2       466.394    24590745.515
 100694979.012 2       363.524
  20583143.009    20583142.489   108165218.926 7      2333.180    20583147.649
  84284555.115 7      1818.060
  22986699.428    22986699.208   120795933.561 5       275.812    22986701.708
  94126712.121 5       214.890
  20564149.346    20564149.076   108065390.846 6      5197.575    20564150.836
  84206803.036 6      4050.042
  22479382.476    22479381.306   118129937.673 6      2638.029    22479380.586
  92049322.844 6      2055.623
  21350953.778    21350953.658   112200016.937 6      4365.577    21350955.078
  87428604.195 6      3401.751
 17  4  9 16 16 16.0000000  0  8G26G14G 6G25G12G29G 2G31             0.000284948
  24461885.910    24461885.330   128548078.260 4      7097.187    24461892.270
 100167353.917 4      5530.237
  24019605.228    24019603.728   126223871.444 4       903.400    24019605.598
  98356282.315 4       703.948
  24590647.064    24590650.284   129224748.267 2       465.094    24590657.274
 100694616.339 2       362.396
  20582699.273    20582698.633   108162886.143 7      2332.853    20582703.743
  84282737.357 7      1817.817
  22986646.620    22986646.600   120795657.682 5       275.492    22986649.300
  94126497.147 5       214.681
  20563160.200    20563160.080   108060193.476 7      5196.975    20563161.750
  84202753.131 6      4049.606
  22478880.693    22478879.413   118127299.910 6      2637.470    22478878.713
  92047267.444 6      2055.170
  21350122.916    21350122.936   112195651.594 6      4365.063    21350124.456
  87425202.624 6      3401.350
 17  4  9 16 16 17.0000000  0  8G26G14G 6G25G12G29G 2G31             0.000282658
  24460535.529    24460534.809   128540981.096 4      7096.998    24460541.589
 100161823.668 4      5530.123
  24019433.255    24019431.675   126222968.050 4       903.271    24019433.715
  98355578.375 4       703.856
  24590559.471    24590561.911   129224283.340 2       464.774    24590569.101
 100694254.076 2       362.203
  20582255.427    20582254.877   108160553.866 7      2331.900    20582259.867
  84280920.000 7      1817.054
  22986594.055    22986594.075   120795381.989 5       275.314    22986596.765
  94126282.320 5       214.540
  20562171.108    20562171.218   108054996.617 7      5196.612    20562172.798
  84198703.635 7      4049.301
  22478378.882    22478377.662   118124662.710 6      2636.885    22478376.892
  92045212.484 6      2054.718
  21349292.166    21349292.366   112191286.887 6      4364.370    21349293.816
  87421801.555 6      3400.807
 17  4  9 16 16 18.0000000  0  8G26G14G 6G25G12G29G 2G31             0.000280369
  24459184.717    24459184.277   128533884.086 4      7097.041    24459190.997
 100156293.522 4      5530.183
  24019261.298    24019259.788   126222065.004 4       903.023    24019261.978
  98354874.699 4       703.649
  24590470.042    24590473.722   129223818.574 2       465.131    24590480.402
 100693891.931 2       362.350
  20581811.669    20581811.149   108158222.131 7      2331.331    20581816.149
  84279103.063 7      1816.610
  22986541.912    22986541.612   120795106.557 5       275.247    22986544.412
  94126067.700 5       214.474
  20561182.314    20561182.434   108049800.349 7      5196.069    20561184.004
  84194654.593 7      4048.882
  22477876.982    22477875.932   118122026.092 6      2636.344    22477875.212
  92043157.976 6      2054.276
  21348461.721    21348461.911   112186922.838 6      4363.727    21348463.391
  87418400.996 6      3400.307
 17  4  9 16 16 19.0000000  0  8G26G14G 6G25G12G29G 2G31             0.000278079
  24457833.808    24457833.748   128526787.158 4      7096.784    24457840.428
 100150763.452 4      5529.950
  24019089.633    24019088.113   126221162.325 4       902.526    24019090.473
  98354171.316 4       703.252
  24590383.271    24590385.351   129223354.258 2       464.880    24590391.511
 100693530.125 2       362.271
  20581368.125    20581367.555   108155890.902 7      2331.088    20581372.545
  84277286.523 7      1816.428
  22986489.664    22986489.144   120794831.332 5       275.273    22986492.074
  94125853.237 5       214.510
  20560193.422    20560193.622   108044604.612 7      5195.444    20560195.252
  84190605.979 6      4048.394
  22477375.585    22477374.265   118119390.068 6      2635.415    22477373.595
  92041103.933 6      2053.564
  21347631.371    21347631.581   112182559.439 6      4362.937    21347633.091
  87415000.946 6      3399.693
 17  4  9 16 16 20.0000000  0  8G26G14G 6G25G12G29G 2G31             0.000275790
  24456482.972    24456483.022   128519690.305 4      7097.363    24456489.982
 100145233.441 4      5530.441
  24018917.563    24018916.253   126220259.957 4       902.336    24018918.903
  98353468.174 4       703.091
  24590295.348    24590297.188   129222890.228 2       464.619    24590302.528
 100693168.545 2       362.124
  20580924.797    20580924.107   108153560.170 7      2330.419    20580929.087
  84275470.373 7      1815.927
  22986436.981    22986436.811   120794556.292 5       275.021    22986439.601
  94125638.910 5       214.307
  20559204.724    20559204.974   108039409.397 7      5195.073    20559206.614
  84186557.759 6      4048.132
  22476873.937    22476872.747   118116754.535 6      2635.344    22476872.037
  92039050.271 6      2053.528
  21346801.477    21346801.417   112178196.619 6      4362.554    21346802.927
  87411601.343 6      3399.403
 17  4  9 16 16 21.0000000  0  8G26G14G 6G25G12G29G 2G31             0.000273500
  24455132.998    24455132.638   128512593.560 4      7096.697    24455139.518
 100139703.511 4      5529.890
  24018745.925    24018744.645   126219357.951 4       901.701    24018747.545
  98352765.314 4       702.624
  24590207.098    24590208.868   129222426.587 2       463.718    24590214.018
 100692807.261 2       361.417
  20580481.311    20580480.641   108151229.908 7      2329.965    20580485.631
  84273654.588 7      1815.541
  22986384.929    22986384.669   120794281.454 5       274.795    22986387.409
  94125424.741 5       214.130
  20558216.081    20558216.391   108034214.695 7      5194.327    20558218.111
  84182509.938 6      4047.525
  22476372.371    22476371.221   118114119.549 6      2634.679    22476370.621
  92036997.037 6      2052.996
  21345971.511    21345971.391   112173834.398 6      4361.965    21345972.831
  87408202.212 6      3398.921
 17  4  9 16 16 22.0000000  0  8G26G14G 6G25G12G29G 2G31             0.000271211
  24453783.030    24453782.330   128505496.979 4      7096.724    24453789.050
 100134173.700 4      5529.893
  24018574.089    24018572.889   126218456.323 4       901.792    24018575.809
  98352062.759 4       702.663
  24590117.515    24590121.135   129221963.326 2       464.625    24590125.765
 100692446.259 2       362.041
  20580037.947    20580037.347   108148900.250 7      2329.358    20580042.267
  84271839.270 7      1815.078
  22986332.659    22986332.439   120794006.888 5       274.588    22986335.069
  94125210.784 5       213.972
  20557227.771    20557227.941   108029020.597 6      5193.990    20557229.801
  84178462.589 7      4047.272
  22475871.127    22475870.037   118111485.194 6      2634.609    22475869.207
  92034944.289 6      2052.940
  21345141.400    21345141.470   112169472.904 6      4361.389    21345142.930
  87404803.647 6      3398.481
 17  4  9 16 16 23.0000000  0  8G26G14G 6G25G12G29G 2G31             0.000268921
  24452433.030    24452432.290   128498400.424 4      7097.001    24452438.740
 100128643.927 4      5530.146
  24018402.770    24018401.530   126217554.983 4       901.316    24018404.310
  98351360.402 4       702.303
  24590028.918    24590032.488   129221500.292 2       462.280    24590037.298
 100692085.474 2       360.153
  20579594.682    20579594.102   108146571.002 7      2328.874    20579599.032
  84270024.276 7      1814.678
  22986280.600    22986280.180   120793732.423 5       274.433    22986282.820
  94124996.915 5       213.826
  20556239.858    20556239.648   108023826.942 7      5193.386    20556241.518
  84174415.586 6      4046.773
  22475369.839    22475368.879   118108851.303 6      2633.750    22475367.989
  92032891.910 6      2052.266
  21344311.899    21344311.659   112165111.939 6      4360.482    21344313.059
  87401405.485 6      3397.771
 17  4  9 16 16 24.0000000  0  8G26G14G 6G25G12G29G 2G31             0.000266631
  24451082.701    24451082.031   128491303.960 4      7096.553    24451088.291
 100123114.212 4      5529.795
  24018231.295    24018230.095   126216654.004 4       900.967    24018232.675
  98350658.338 4       702.074
  24589941.988    24589944.888   129221037.640 2       463.257    24589948.948
 100691724.944 2       360.898
  20579151.767    20579151.017   108144242.262 7      2328.467    20579155.887
  84268209.669 7      1814.393
  22986228.503    22986228.113   120793458.202 5       273.885    22986230.763
  94124783.243 5       213.431
  20555251.522    20555251.382   108018633.843 7      5192.819    20555253.312
  84170369.012 6      4046.356
  22474868.743    22474867.603   118106217.989 6      2633.021    22474866.903
  92030839.981 6      2051.694
  21343482.304    21343482.004   112160751.613 6      4359.937    21343483.344
  87398007.831 6      3397.372
 17  4  9 16 16 25.0000000  0  8G26G14G 6G25G12G29G 2G31             0.000264342
  24449731.724    24449731.534   128484207.621 4      7096.778    24449737.964
 100117584.596 4      5529.951
  24018059.890    24018058.660   126215753.434 4       900.627    24018061.320
  98349956.587 4       701.770
  24589852.956    24589857.076   129220575.326 2       463.024    24589860.596
 100691364.710 2       360.749
  20578708.855    20578707.965   108141914.116 7      2327.796    20578712.905
  84266395.533 7      1813.859
  22986176.116    22986176.036   120793184.183 5       274.196    22986178.666
  94124569.721 5       213.672
  20554263.718    20554263.348   108013441.322 7      5192.452    20554265.218
  84166322.893 7      4046.058
  22474367.691    22474366.571   118103585.296 6      2632.486    22474365.951
  92028788.532 6      2051.277
  21342652.714    21342652.484   112156391.971 6      4359.583    21342653.714
  87394610.702 6      3397.081
 17  4  9 16 16 26.0000000  0  8G26G14G 6G25G12G29G 2G31             0.000262052
  24448381.204    24448380.834   128477111.423 4      7095.864    24448387.584
 100112055.097 4      5529.245
  24017888.403    24017887.273   126214853.192 4       899.558    24017890.273
  98349255.089 4       700.973
  24589764.147    24589769.617   129220113.297 2       461.624    24589773.197
 100691004.690 2       359.708
  20578265.909    20578264.979   108139586.454 7      2327.321    20578269.989
  84264581.766 7      1813.507
  22986124.321    22986124.011   120792910.439 5       273.364    22986126.401
  94124356.417 5       213.005
  20553275.766    20553275.466   108008249.359 6      5191.568    20553277.196
  84162277.200 6      4045.396
  22473866.669    22473865.669   118100953.156 6      2631.797    22473865.069
  92026737.509 6      2050.751
  21341823.311    21341823.001   112152032.961 6      4358.735    21341824.161
  87391214.070 6      3396.406
 17  4  9 16 16 27.0000000  0  8G26G14G 6G25G12G29G 2G31             0.000259763
  24447030.344    24447030.584   128470015.325 4      7095.917    24447037.134
 100106525.671 4      5529.273
  24017717.236    24017716.226   126213953.319 4       899.673    24017718.766
  98348553.870 4       701.035
  24589675.706    24589681.566   129219651.781 2       462.456    24589685.336
 100690645.067 2       360.323
  20577822.855    20577822.115   108137259.328 7      2326.523    20577827.155
  84262768.425 7      1812.872
  22986072.432    22986071.972   120792636.900 5       273.452    22986074.462
  94124143.263 5       213.081
  20552287.820    20552287.640   108003057.935 7      5191.037    20552289.340
  84158231.932 7      4044.964
  22473365.590    22473364.900   118098321.596 6      2631.025    22473364.280
  92024686.939 6      2050.160
  21340993.942    21340993.642   112147674.594 6      4358.049    21340994.822
  87387817.946 6      3395.885
 17  4  9 16 16 28.0000000  0  8G26G14G 6G25G12G29G 2G31             0.000257473
  24445679.975    24445680.335   128462919.299 4      7095.988    24445686.775
 100100996.314 4      5529.300
  24017545.424    24017544.974   126213053.764 4       899.271    24017547.644
  98347852.917 4       700.747
  24589590.973    24589593.903   129219190.436 2       460.679    24589597.263
 100690285.585 2       358.987
  20577380.331    20577379.501   108134932.674 7      2326.441    20577384.461
  84260955.444 7      1812.810
  22986020.482    22986019.922   120792363.545 5       273.088    22986022.352
  94123930.260 5       212.800
  20551299.832    20551299.812   107997867.037 7      5190.687    20551301.472
  84154187.073 7      4044.672
  22472865.027    22472864.257   118095690.573 6      2630.683    22472863.637
  92022636.783 6      2049.890
  21340164.954    21340164.354   112143316.813 6      4357.454    21340165.474
  87384422.272 6      3395.407
 17  4  9 16 16 29.0000000  0  8G26G14G 6G25G12G29G 2G31             0.000255184
  24444329.975    24444330.055   128455823.401 4      7095.816    24444336.665
 100095467.043 4      5529.168
  24017374.492    24017374.012   126212154.574 4       898.971    24017376.612
  98347152.246 4       700.514
  24589502.254    24589506.674   129218729.540 2       460.824    24589509.724
 100689926.451 2       359.102
  20576937.635    20576936.905   108132606.553 7      2326.116    20576941.845
  84259142.883 7      1812.570
  22985968.204    22985967.964   120792090.409 5       273.226    22985970.454
  94123717.422 5       212.938
  20550312.183    20550312.073   107992676.687 7      5190.012    20550313.743
  84150142.644 7      4044.153
  22472364.594    22472363.784   118093060.106 6      2630.201    22472363.164
  92020587.071 6      2049.496
  21339335.718    21339335.258   112138959.703 6      4356.837    21339336.428
  87381027.119 6      3394.932
 17  4  9 16 16 30.0000000  0  8G26G14G 6G25G12G29G 2G31             0.000252894
  24442979.557    24442979.807   128448727.581 4      7095.727    24442986.217
 100089937.834 4      5529.143
  24017203.433    24017202.843   126211255.691 4       898.850    24017205.403
  98346451.813 4       700.413
  24589416.459    24589418.719   129218268.868 2       459.979    24589421.809
 100689567.512 2       358.365
  20576495.116    20576494.346   108130280.922 7      2325.419    20576499.246
  84257330.700 7      1812.001
  22985915.618    22985915.798   120791817.457 5       272.583    22985918.528
  94123504.734 5       212.412
  20549324.408    20549324.428   107987486.842 6      5189.719    20549326.158
  84146098.615 7      4043.954
  22471864.238    22471863.328   118090430.189 6      2629.714    22471862.718
  92018537.781 6      2049.127
  21338506.765    21338506.255   112134603.188 6      4356.277    21338507.395
  87377632.433 6      3394.496
 17  4  9 16 16 31.0000000  0  8G26G14G 6G25G12G29G 2G31             0.000250604
  24441629.646    24441629.576   128441631.786 4      7095.689    24441636.066
 100084408.656 4      5529.066
  24017032.255    24017031.685   126210357.133 4       897.674    24017034.255
  98345751.645 4       699.496
  24589328.021    24589331.981   129217808.502 2       457.091    24589334.671
 100689208.760 2       356.243
  20576052.756    20576051.946   108127955.741 7      2324.847    20576056.776
  84255518.866 7      1811.562
  22985863.719    22985864.029   120791544.635 5       272.628    22985866.689
  94123292.145 5       212.446
  20548336.998    20548336.858   107982297.479 6      5189.148    20548338.608
  84142054.950 6      4043.489
  22471363.935    22471362.945   118087800.770 6      2628.912    22471362.445
  92016488.881 6      2048.508
  21337677.972    21337677.412   112130247.245 6      4355.374    21337678.402
  87374238.196 6      3393.793
 17  4  9 16 16 32.0000000  0  8G26G14G 6G25G12G29G 2G31             0.000248315
  24440279.310    24440279.490   128434536.108 4      7095.732    24440286.050
 100078879.551 4      5529.153
  24016861.760    24016860.760   126209458.870 4       897.624    24016863.240
  98345051.702 4       699.443
  24589238.864    24589244.374   129217348.423 2       461.390    24589247.834
 100688850.286 1       359.481
  20575610.561    20575609.661   108125631.048 7      2324.542    20575614.361
  84253707.417 7      1811.335
  22985811.559    22985812.029   120791272.023 5       272.682    22985814.789
  94123079.718 5       212.498
  20547349.819    20547349.549   107977108.647 7      5188.516    20547351.279
  84138011.709 6      4043.006
  22470863.663    22470862.683   118085171.880 6      2628.578    22470862.173
  92014440.399 6      2048.232
  21336849.028    21336848.598   112125891.929 6      4354.904    21336849.738
  87370844.436 6      3393.444
 17  4  9 16 16 33.0000000  0  8G26G14G 6G25G12G29G 2G31             0.000246025
  24438929.169    24438929.289   128427440.490 4      7095.958    24438935.599
 100073350.500 4      5529.298
  24016690.778    24016689.798   126208560.940 4       897.881    24016692.388
  98344352.016 4       699.614
  24589148.919    24589157.039   129216888.887 2       457.855    24589159.909
 100688492.202 1       356.719
  20575168.179    20575167.409   108123306.869 7      2323.874    20575172.069
  84251896.368 7      1810.816
  22985759.803    22985760.273   120790999.599 5       272.141    22985762.963
  94122867.430 5       212.056
  20546362.344    20546362.304   107971920.338 7      5187.958    20546363.994
  84133968.866 6      4042.573
  22470363.550    22470362.470   118082543.556 6      2628.034    22470361.920
  92012392.355 6      2047.842
  21336020.233    21336019.883   112121537.195 6      4354.414    21336021.133
  87367451.135 6      3393.039
 17  4  9 16 16 34.0000000  0  8G26G14G 6G25G12G29G 2G31             0.000243735
  24437579.144    24437579.044   128420345.001 4      7095.417    24437585.444
 100067821.546 4      5528.905
  24016519.960    24016519.070   126207663.361 4       897.214    24016521.600
  98343652.599 4       699.147
  24589062.264    24589068.474   129216429.407 2       459.611    24589071.114
 100688134.148 1       358.266
  20574726.219    20574725.279   108120983.146 7      2323.496    20574729.929
  84250085.678 7      1810.520
  22985707.934    22985708.334   120790727.350 5       272.265    22985711.074
  94122655.292 5       212.150
  20545375.488    20545375.078   107966732.525 7      5187.619    20545376.848
  84129926.422 7      4042.302
  22469863.271    22469862.301   118079915.733 6      2627.550    22469861.871
  92010344.700 6      2047.443
  21335191.727    21335191.397   112117183.073 6      4354.033    21335192.627
  87364058.320 6      3392.765
 17  4  9 16 16 35.0000000  0  8G26G14G 6G25G12G29G 2G31             0.000241446
  24436229.213    24436228.893   128413249.522 4      7095.208    24436235.213
 100062292.593 4      5528.751
  24016349.018    24016348.268   126206766.025 4       896.454    24016350.848
  98342953.382 4       698.507
  24588978.592    24588980.502   129215970.231 2       458.843    24588983.172
 100687776.376 1       357.441
  20574283.773    20574283.113   108118659.868 7      2322.941    20574287.773
  84248275.330 7      1810.076
  22985656.662    22985656.702   120790455.265 5       271.594    22985659.202
  94122443.273 5       211.657
  20544388.187    20544387.957   107961545.203 7      5186.820    20544389.767
  84125884.349 7      4041.676
  22469363.276    22469362.376   118077288.427 6      2626.854    22469361.806
  92008297.450 6      2046.906
  21334363.429    21334362.999   112112829.557 6      4352.993    21334364.149
  87360665.966 6      3391.940
 17  4  9 16 16 36.0000000  0  8G26G14G 6G25G12G29G 2G31             0.000239156
  24434878.643    24434878.673   128406154.189 4      7095.012    24434885.093
 100056763.765 4      5528.581
  24016178.907    24016177.637   126205869.098 4       897.266    24016179.957
  98342254.481 4       699.194
  24588890.067    24588892.187   129215511.456 2       461.291    24588895.747
 100687418.869 1       359.512
  20573841.839    20573841.099   108116337.151 7      2322.673    20573845.749
  84246465.421 7      1809.866
  22985605.152    22985604.882   120790183.399 5       271.662    22985607.392
  94122231.432 5       211.686
  20543401.067    20543400.927   107956358.454 6      5186.509    20543402.717
  84121842.728 6      4041.441
  22468863.164    22468862.414   118074661.717 6      2626.479    22468861.994
  92006250.665 6      2046.603
  21333535.240    21333534.690   112108476.692 6      4352.569    21333535.960
  87357274.125 6      3391.626
 17  4  9 16 16 37.0000000  0  8G26G14G 6G25G12G29G 2G31             0.000236866
  24433528.882    24433528.582   128399058.940 4      7095.023    24433534.882
 100051234.996 4      5528.560
  24016007.862    24016006.742   126204972.533 4       896.317    24016009.532
  98341555.863 4       698.411
  24588803.229    24588804.679   129215053.193 2       456.293    24588808.979
 100687061.800 1       355.650
  20573400.014    20573399.264   108114014.980 7      2321.735    20573403.874
  84244655.937 7      1809.144
  22985553.665    22985553.205   120789911.770 5       271.295    22985555.665
  94122019.774 5       211.392
  20542413.928    20542413.988   107951172.262 7      5185.654    20542415.788
  84117801.539 7      4040.753
  22468363.451    22468362.641   118072035.576 6      2625.754    22468362.311
  92004204.326 6      2046.023
  21332707.192    21332706.542   112104124.463 6      4351.790    21332707.642
  87353882.772 6      3391.001
 17  4  9 16 16 38.0000000  0  8G26G14G 6G25G12G29G 2G31             0.000234577
  24432178.715    24432178.345   128391963.857 4      7095.062    24432184.875
 100045706.368 4      5528.627
  24015837.277    24015836.207   126204076.346 4       895.482    24015839.217
  98340857.529 4       697.786
  24588716.141    24588717.011   129214595.164 2       456.685    24588721.571
 100686704.891 1       355.941
  20572957.959    20572957.449   108111693.319 7      2321.336    20572962.099
  84242846.844 7      1808.846
  22985502.268    22985501.618   120789640.361 5       271.252    22985503.818
  94121808.287 5       211.402
  20541427.066    20541427.176   107945986.630 7      5185.229    20541429.036
  84113760.784 7      4040.455
  22467863.673    22467863.043   118069410.001 6      2625.144    22467862.543
  92002158.424 6      2045.567
  21331879.437    21331878.587   112099772.880 6      4351.426    21331879.487
  87350491.925 6      3390.730
 17  4  9 16 16 39.0000000  0  8G26G14G 6G25G12G29G 2G31             0.000232287
  24430828.458    24430827.988   128384868.787 4      7095.248    24430834.618
 100040177.743 4      5528.803
  24015667.019    24015665.779   126203180.402 4       895.687    24015668.569
  98340159.396 4       697.938
  24588631.020    24588630.100   129214137.390 2       456.594    24588635.310
 100686348.186 1       355.816
  20572516.263    20572515.733   108109372.102 7      2320.791    20572520.373
  84241038.110 7      1808.408
  22985450.735    22985449.995   120789369.103 5       271.113    22985452.365
  94121596.916 5       211.292
  20540440.279    20540440.499   107940801.458 7      5184.807    20540442.319
  84109720.396 6      4040.113
  22467364.026    22467363.516   118066784.929 6      2624.617    22467363.146
  92000112.916 6      2045.181
  21331051.390    21331050.590   112095421.868 6      4350.618    21331051.410
  87347101.531 6      3390.093
 17  4  9 16 16 40.0000000  0  8G26G14G 6G25G12G29G 2G31             0.000229997
  24429478.633    24429477.783   128377773.790 4      7094.829    24429484.553
 100034649.182 4      5528.449
  24015497.182    24015495.562   126202284.811 4       895.225    24015497.952
  98339461.529 4       697.584
  24588545.525    24588542.535   129213679.870 2       456.622    24588548.785
 100685991.638 1       355.845
  20572074.584    20572074.074   108107051.357 7      2320.636    20572078.684
  84239229.740 7      1808.287
  22985398.600    22985398.230   120789098.038 5       270.662    22985400.890
  94121385.695 5       210.908
  20539453.705    20539453.855   107935616.786 7      5184.475    20539455.725
  84105680.391 7      4039.845
  22466864.512    22466863.942   118064160.394 6      2624.073    22466863.732
  91998067.827 6      2044.725
  21330223.274    21330222.714   112091071.463 6      4350.020    21330223.544
  87343711.606 6      3389.625
 17  4  9 16 16 41.0000000  0  8G26G14G 6G25G12G29G 2G31             0.000227707
  24428128.378    24428127.488   128370678.976 4      7094.659    24428134.678
 100029120.749 4      5528.291
  24015326.630    24015325.220   126201389.601 4       895.267    24015327.850
  98338763.963 4       697.678
  24588457.198    24588455.888   129213222.805 2       455.806    24588461.578
 100685635.499 1       355.084
  20571632.885    20571632.475   108104731.179 7      2320.126    20571637.035
  84237421.810 7      1807.890
  22985346.924    22985346.534   120788827.211 5       270.447    22985349.164
  94121174.646 5       210.763
  20538467.199    20538467.359   107930432.734 6      5183.756    20538469.299
  84101640.866 6      4039.298
  22466365.028    22466364.658   118061536.441 6      2623.590    22466364.278
  91996023.189 6      2044.366
  21329395.355    21329394.935   112086721.742 6      4349.414    21329395.945
  87340322.215 6      3389.156
 17  4  9 16 16 42.0000000  0  8G26G14G 6G25G12G29G 2G31             0.000225418
  24426778.957    24426777.617   128363584.182 4      7094.786    24426784.487
 100023592.340 4      5528.439
  24015157.077    24015155.187   126200494.741 4       894.262    24015157.627
  98338066.658 4       696.859
  24588370.336    24588368.316   129212765.999 2       456.493    24588374.316
 100685279.534 1       355.631
  20571191.573    20571191.003   108102411.484 7      2319.511    20571195.643
  84235614.260 7      1807.423
  22985294.799    22985295.069   120788556.563 5       270.600    22985297.659
  94120963.748 5       210.870
  20537480.854    20537480.854   107925249.190 7      5183.031    20537482.854
  84097601.737 6      4038.728
  22465865.518    22465865.368   118058913.049 6      2623.181    22465865.048
  91993978.991 6      2044.039
  21328567.766    21328567.356   112082372.614 6      4348.749    21328568.416
  87336933.285 6      3388.656
 17  4  9 16 16 43.0000000  0  9G26G14G 6G25G12G29G23G 2G31          0.000223128
  24425428.721    24425427.571   128356489.584 4      7094.535    24425434.071
 100018064.085 4      5528.229
  24014986.718    24014985.018   126199600.247 4       894.156    24014987.108
  98337369.647 4       696.745
  24588283.494    24588280.964   129212309.707 1       453.819    24588286.784
 100684923.984 1       353.723
  20570750.317    20570749.627   108100092.361 7      2318.919    20570754.347
  84233807.154 7      1806.950
  22985243.705    22985243.695   120788286.179 5       270.227    22985246.055
  94120753.060 5       210.564
  20536494.577    20536494.627   107920066.211 7      5182.688    20536496.617
  84093563.052 7      4038.465
  25442636.894                                        5751.032

  22465366.645    22465366.175   118056290.248 6      2622.425    22465365.845
  91991935.254 6      2043.449
  21327740.319    21327739.909   112078024.174 6      4348.053    21327740.949
  87333544.888 6      3388.103
 17  4  9 16 16 44.0000000  0  9G26G14G 6G25G12G29G23G 2G31          0.000220838
  24424078.414    24424077.774   128349394.989 4      7094.756    24424084.084
 100012535.840 4      5528.436
  24014816.146    24014814.906   126198706.028 4       894.057    24014816.906
  98336672.847 4       696.692
  24588192.962    24588193.492   129211853.350 1       455.761    24588199.852
 100684568.378 1       354.983
  20570309.042    20570308.352   108097773.697 7      2318.540    20570313.182
  84232000.397 7      1806.700
  22985192.763    22985192.443   120788015.938 5       270.527    22985194.843
  94120542.486 5       210.838
  20535508.311    20535508.401   107914883.709 6      5182.215    20535510.451
  84089524.744 6      4038.096
  25441540.812                                        5750.682

  22464867.544    22464867.104   118053667.943 6      2622.135    22464866.914
  91989891.902 6      2043.256
  21326913.142    21326912.612   112073676.273 6      4347.449    21326913.532
  87330156.913 6      3387.631
 17  4  9 16 16 45.0000000  0  9G26G14G 6G25G12G29G23G 2G31          0.000218549
  24422728.196    24422727.866   128342300.493 4      7094.192    24422733.926
 100007007.656 4      5527.961
  24014645.345    24014644.725   126197812.105 4       893.780    24014646.705
  98335976.296 4       696.494
  24588106.712    24588106.332   129211397.740 1       454.682    24588113.552
 100684213.338 1       354.386
  20569867.744    20569867.224   108095455.457 7      2318.105    20569872.104
  84230193.979 7      1806.323
  22985141.493    22985141.013   120787745.880 5       269.704    22985143.263
  94120332.045 5       210.154
  20534522.293    20534522.293   107909701.711 7      5181.584    20534524.253
  84085486.826 6      4037.596
  25440447.539                                        5750.184

  22464368.827    22464368.307   118051046.164 6      2621.656    22464368.037
  91987848.960 6      2042.853
  21326085.965    21326085.385   112069328.983 6      4346.980    21326086.315
  87326769.419 6      3387.279
 17  4  9 16 16 46.0000000  0  8G26G14G 6G25G12G29G 2G31             0.000216259
  24421378.609    24421378.009   128335206.067 4      7094.600    24421384.099
 100001479.541 4      5528.245
  24014475.649    24014474.659   126196918.539 4       893.186    24014476.529
  98335280.003 4       696.022
  24588019.947    24588020.597   129210942.155 1       453.563    24588026.307
 100683858.315 1       353.291
  20569426.825    20569426.255   108093137.732 7      2317.600    20569431.045
  84228387.956 7      1805.930
  22985090.246    22985089.746   120787476.000 5       269.836    22985091.876
  94120121.740 5       210.253
  20533536.188    20533536.268   107904520.238 7      5181.371    20533538.208
  84081449.310 7      4037.442
  22463869.697    22463869.467   118048424.916 6      2621.052    22463869.197
  91985806.428 6      2042.379
  21325258.908    21325258.238   112064982.312 6      4346.263    21325259.178
  87323382.402 6      3386.695
 17  4  9 16 16 47.0000000  0  8G26G14G 6G25G12G29G 2G31             0.000213969
  24420028.340    24420028.060   128328111.808 4      7093.810    24420034.060
  99995951.545 4      5527.621
  24014305.755    24014304.845   126196025.300 4       892.674    24014306.415
  98334583.976 4       695.582
  24587934.080    24587935.000   129210486.519 1       453.556    24587940.670
 100683503.320 1       353.373
  20568986.064    20568985.364   108090820.561 7      2316.943    20568990.104
  84226582.372 7      1805.409
  22985039.008    22985038.468   120787206.376 5       269.323    22985040.538
  94119911.651 5       209.815
  20532550.145    20532550.325   107899339.332 6      5180.506    20532552.355
  84077412.241 6      4036.749
  22463370.960    22463370.800   118045804.290 6      2620.193    22463370.500
  91983764.380 6      2041.699
  21324431.937    21324431.197   112060636.304 6      4345.689    21324432.257
  87319995.905 6      3386.239
 17  4  9 16 16 48.0000000  0  8G26G14G 6G25G12G29G 2G31             0.000211679
  24418678.722    24418678.002   128321017.620 4      7093.977    24418684.062
  99990423.608 4      5527.792
  24014135.204    24014134.934   126195132.490 4       892.169    24014136.564
  98333888.274 4       695.205
  24587848.964    24587848.844   129210031.710 1       456.530    24587853.824
 100683148.894 1       355.678
  20568545.200    20568544.580   108088503.905 7      2316.360    20568549.220
  84224777.182 7      1804.977
  22984987.819    22984987.209   120786936.953 5       269.248    22984989.509
  94119701.703 5       209.801
  20531564.355    20531564.455   107894158.956 7      5180.348    20531566.595
  84073375.584 6      4036.634
  22462872.748    22462872.318   118043184.182 6      2619.847    22462871.908
  91981722.734 6      2041.432
  21323604.645    21323604.105   112056290.930 6      4344.909    21323605.385
  87316609.900 6      3385.644
 17  4  9 16 16 49.0000000  0  8G26G14G 6G25G12G29G 2G31             0.000209390
  24417329.180    24417328.150   128313923.572 4      7093.859    24417334.040
  99984895.783 4      5527.668
  24013965.319    24013965.009   126194239.989 4       892.025    24013966.959
  98333192.818 4       695.059
  24587762.107    24587762.547   129209577.695 1       455.254    24587767.857
 100682794.204 1       354.791
  20568104.222    20568103.792   108086187.748 7      2316.060    20568108.512
  84222972.386 7      1804.717
  22984936.859    22984935.909   120786667.759 5       269.155    22984938.269
  94119491.939 5       209.716
  20530578.885    20530578.775   107888979.143 7      5179.433    20530580.965
  84069339.375 7      4035.904
  22462374.357    22462373.907   118040564.663 6      2619.259    22462373.407
  91979681.558 6      2040.970
  21322777.640    21322777.320   112051946.218 6      4344.356    21322778.540
  87313224.409 6      3385.205
 17  4  9 16 16 50.0000000  0  8G26G14G 6G25G12G29G 2G31             0.000207100
  24415979.544    24415978.334   128306829.553 4      7093.997    24415983.944
  99979367.973 4      5527.804
  24013795.502    24013795.262   126193347.804 4       891.970    24013797.342
  98332497.603 4       695.035
  24587676.090    24587675.160   129209123.687 1       452.769    24587681.990
 100682440.420 1       352.911
  20567663.491    20567663.081   108083872.060 7      2315.379    20567667.931
  84221167.960 7      1804.191
  22984885.518    22984884.768   120786398.729 5       268.827    22984886.978
  94119282.305 5       209.475
  20529593.189    20529593.199   107883799.824 6      5178.930    20529595.309
  84065303.547 6      4035.521
  22461875.818    22461875.468   118037945.617 6      2618.724    22461874.988
  91977640.743 6      2040.568
  21321950.707    21321950.537   112047602.065 6      4343.949    21321951.867
  87309839.351 6      3384.900
 17  4  9 16 16 51.0000000  0  8G26G14G 6G25G12G29G 2G31             0.000204810
  24414629.288    24414628.438   128299735.725 4      7093.913    24414634.158
  99973840.311 4      5527.731
  24013625.958    24013625.448   126192455.992 4       892.419    24013627.538
  98331802.678 4       695.407
  24587591.181    24587589.711   129208669.901 1       455.450    24587595.581
 100682086.819 1       355.028
  20567223.147    20567222.507   108081556.951 7      2314.778    20567227.447
  84219363.974 7      1803.746
  22984834.610    22984833.630   120786129.925 5       269.136    22984835.750
  94119072.835 5       209.743
  20528607.640    20528607.730   107878621.093 7      5178.500    20528609.790
  84061268.168 7      4035.199
  22461377.660    22461377.240   118035327.193 6      2618.335    22461376.810
  91975600.413 6      2040.268
  21321124.185    21321124.055   112043258.596 6      4343.058    21321125.265
  87306454.828 6      3384.202
 17  4  9 16 16 52.0000000  0  8G26G14G 6G25G12G29G 2G31             0.000202520
  24413278.431    24413278.501   128292641.978 4      7093.555    24413284.291
  99968312.719 4      5527.448
  24013456.610    24013455.650   126191564.552 4       890.780    24013458.190
  98331108.050 4       694.099
  24587505.779    24587503.829   129208216.480 1       453.350    24587509.429
 100681733.465 1       353.339
  20566782.766    20566782.126   108079242.320 7      2314.261    20566786.976
  84217560.366 7      1803.322
  22984783.367    22984782.507   120785861.348 5       268.825    22984784.557
  94118863.549 5       209.456
  20527622.026    20527622.306   107873442.888 6      5178.034    20527624.326
  84057233.204 6      4034.837
  22460879.347    22460879.037   118032709.333 6      2617.712    22460878.667
  91973560.521 6      2039.778
  21320297.905    21320297.595   112038915.756 6      4342.407    21320298.775
  87303070.802 6      3383.696
 17  4  9 16 16 53.0000000  0  8G26G14G 6G25G12G29G 2G31             0.000200231
  24411929.209    24411928.729   128285548.328 4      7093.409    24411934.419
  99962785.192 4      5527.335
  24013287.788    24013285.998   126190673.421 4       890.695    24013288.678
  98330413.665 4       694.050
  24587420.454    24587416.874   129207763.364 1       453.150    24587423.174
 100681380.341 1       353.160
  20566342.347    20566341.707   108076928.215 7      2313.867    20566346.617
  84215757.169 7      1803.003
  22984732.064    22984731.344   120785592.963 5       268.010    22984733.434
  94118654.421 5       208.810
  20526636.750    20526637.050   107868265.220 6      5177.490    20526639.020
  84053198.663 6      4034.395
  22460381.563    22460380.973   118030092.036 6      2616.710    22460380.533
  91971521.067 6      2039.001
  21319471.687    21319471.377   112034573.551 6      4341.820    21319472.457
  87299687.265 6      3383.232
 17  4  9 16 16 54.0000000  0  8G26G14G 6G25G12G29G 2G31             0.000197941
  24410579.087    24410578.807   128278454.784 4      7093.521    24410584.237
  99957257.761 4      5527.435
  24013118.385    24013116.475   126189782.656 4       890.421    24013119.195
  98329719.560 4       693.854
  24587333.770    24587331.050   129207310.549 1       453.401    24587337.270
 100681027.511 1       353.340
  20565902.097    20565901.397   108074614.610 7      2313.393    20565906.377
  84213954.357 7      1802.644
  22984680.826    22984680.436   120785324.779 5       268.544    22984682.446
  94118445.445 5       209.262
  20525651.900    20525651.950   107863088.087 7      5176.947    20525653.810
  84049164.542 7      4033.986
  22459883.643    22459883.113   118027475.282 6      2616.461    22459882.643
  91969482.037 6      2038.800
  21318645.431    21318645.261   112030231.953 6      4341.408    21318646.231
  87296304.205 6      3382.911
 17  4  9 16 16 55.0000000  0  8G26G14G 6G25G12G29G 2G31             0.000195651
  24409229.110    24409228.880   128271361.266 4      7092.984    24409234.420
  99951730.344 4      5526.979
  24012948.371    24012947.001   126188892.137 4       890.842    24012949.551
  98329025.639 4       694.184
  24587247.529    24587246.459   129206857.954 1       453.404    24587251.029
 100680674.840 1       353.251
  20565461.873    20565461.143   108072301.431 7      2313.186    20565466.243
  84212151.879 7      1802.485
  22984629.412    22984629.452   120785056.775 5       267.461    22984631.472
  94118236.610 5       208.391
  20524666.869    20524666.829   107857911.428 7      5176.468    20524668.699
  84045130.776 7      4033.627
  22459386.030    22459385.280   118024859.006 6      2616.047    22459384.830
  91967443.382 6      2038.453
  21317819.414    21317819.144   112025890.940 6      4340.663    21317820.214
  87292921.589 6      3382.333
 17  4  9 16 16 56.0000000  0  8G26G14G 6G25G12G29G 2G31             0.000193361
  24407879.441    24407879.021   128264267.803 4      7092.897    24407884.501
  99946202.971 4      5526.908
  24012778.814    24012777.604   126188001.953 4       890.412    24012780.114
  98328331.992 4       693.775
  24587160.731    24587159.771   129206405.778 1       451.152    24587164.331
 100680322.478 1       351.411
  20565022.021    20565021.041   108069988.750 7      2312.423    20565026.231
  84210349.793 7      1801.881
  22984578.635    22984578.475   120784788.873 5       267.752    22984580.595
  94118027.857 5       208.616
  20523681.815    20523681.845   107852735.270 6      5176.049    20523683.745
  84041097.408 6      4033.262
  22458888.205    22458887.565   118022243.258 6      2615.513    22458886.985
  91965405.138 6      2038.054
  21316993.414    21316993.214   112021550.498 6      4339.916    21316994.314
  87289539.418 6      3381.736
 17  4  9 16 16 57.0000000  0  8G26G14G 6G25G12G29G 2G31             0.000191072
  24406529.500    24406529.080   128257174.524 4      7093.559    24406534.750
  99940675.739 4      5527.455
  24012609.018    24012608.348   126187112.210 4       889.085    24012610.768
  98327638.679 4       692.772
  24587074.468    24587073.308   129205954.062 1       450.899    24587077.228
 100679970.482 1       351.236
  20564582.185    20564581.135   108067676.656 7      2311.794    20564586.155
  84208548.154 7      1801.391
  22984528.125    22984527.615   120784521.304 5       267.689    22984529.855
  94117819.358 5       208.569
  20522696.923    20522696.983   107847559.743 7      5175.299    20522698.873
  84037064.523 7      4032.687
  22458390.595    22458389.875   118019628.149 6      2614.811    22458389.325
  91963367.387 6      2037.493
  21316167.743    21316167.443   112017210.758 6      4339.593    21316168.553
  87286157.802 6      3381.521
 17  4  9 16 16 58.0000000  0  8G26G14G 6G25G12G29G 2G31             0.000188782
  24405179.485    24405179.185   128250081.326 4      7092.889    24405185.185
  99935148.583 4      5526.942
  24012439.894    24012438.814   126186222.743 4       889.230    24012441.274
  98326945.577 4       692.899
  24586985.720    24586987.630   129205502.600 1       449.759    24586991.180
 100679618.692 1       350.525
  20564142.208    20564141.308   108065365.024 7      2311.722    20564146.228
  84206746.882 7      1801.357
  22984477.263    22984476.693   120784253.899 5       266.627    22984478.903
  94117610.987 5       207.786
  20521712.190    20521712.270   107842384.722 7      5174.655    20521714.220
  84033032.037 7      4032.210
  22457893.508    22457892.468   118017013.560 6      2614.157    22457891.858
  91961330.056 6      2037.009
  21315341.738    21315341.738   112012871.623 6      4338.920    21315342.738
  87282776.656 6      3380.977
 17  4  9 16 16 59.0000000  0  8G26G14G 6G25G12G29G 2G31             0.000186492
  24403830.197    24403829.357   128242988.182 4      7093.505    24403835.237
  99929621.462 4      5527.419
  24012270.982    24012269.642   126185333.564 4       889.001    24012272.032
  98326252.723 4       692.729
  24586900.871    24586899.711   129205051.421 1       448.433    24586904.081
 100679267.131 1       349.540
  20563702.358    20563701.518   108063053.866 7      2310.902    20563706.448
  84204945.985 7      1800.725
  22984426.050    22984425.760   120783986.674 5       266.875    22984428.110
  94117402.756 5       207.975
  20520727.954    20520727.664   107837210.207 7      5174.068    20520729.404
  84028999.945 7      4031.747
  22457396.134    22457395.094   118014399.525 6      2613.555    22457394.324
  91959293.142 6      2036.561
  21314516.120    21314516.030   112008533.079 6      4338.320    21314517.090
  87279395.975 6      3380.503
 17  4  9 16 17  0.0000000  0  8G26G14G 6G25G12G29G 2G31             0.000184202
  24402479.928    24402479.658   128235895.221 4      7092.937    24402485.638
  99924094.476 4      5526.978
  24012102.096    24012100.416   126184444.777 4       888.969    24012103.176
  98325560.170 4       692.710
  24586814.659    24586813.639   129204600.461 1       450.428    24586818.689
 100678915.757 1       351.041
  20563262.764    20563261.844   108060743.263 7      2310.269    20563266.784
  84203145.517 7      1800.208
  22984375.277    22984374.897   120783719.690 5       266.592    22984377.307
  94117194.709 5       207.747
  20519743.439    20519743.109   107832036.255 7      5173.633    20519744.849
  84024968.297 7      4031.413
  22456898.753    22456897.753   118011786.054 6      2613.374    22456897.023
  91957256.671 6      2036.380
  21313690.693    21313690.553   112004195.213 6      4337.203    21313691.553
  87276015.830 6      3379.636
 17  4  9 16 17  1.0000000  0  8G26G14G 6G25G12G29G 2G31             0.000181912
  24401130.146    24401129.986   128228802.353 4      7092.968    24401136.126
  99918567.571 4      5526.982
  24011933.085    24011931.475   126183556.402 4       888.673    24011933.965
  98324867.926 4       692.489
  24586727.302    24586728.762   129204149.911 1       451.365    24586732.512
 100678564.713 1       351.684
  20562823.089    20562822.259   108058433.194 7      2309.625    20562827.139
  84201345.458 7      1799.703
  22984324.612    22984324.402   120783452.925 5       266.973    22984326.562
  94116986.841 5       208.027
  20518759.018    20518758.668   107826862.875 7      5173.182    20518760.378
  84020937.090 6      4031.038
  22456401.483    22456400.563   118009173.185 6      2612.485    22456399.693
  91955220.669 6      2035.695
  21312865.555    21312865.375   111999858.010 6      4336.917    21312866.275
  87272636.191 6      3379.400
 17  4  9 16 17  2.0000000  0  8G26G14G 6G25G12G29G 2G31             0.000179623
  24399780.509    24399780.199   128221709.566 4      7093.051    24399786.589
  99913040.725 4      5527.045
  24011764.437    24011762.717   126182668.279 4       888.066    24011764.957
  98324175.874 4       692.028
  24586641.490    24586643.420   129203699.726 1       450.245    24586648.150
 100678213.954 1       350.748
  20562383.438    20562382.738   108056123.591 7      2309.314    20562387.698
  84199545.769 7      1799.449
  22984273.937    22984273.757   120783186.322 5       266.775    22984275.857
  94116779.094 5       207.872
  20517774.350    20517774.220   107821689.967 6      5172.812    20517775.960
  84016906.253 7      4030.755
  22455904.177    22455903.417   118006560.828 6      2612.192    22455902.647
  91953185.066 6      2035.463
  21312040.039    21312040.119   111995521.360 6      4336.542    21312041.049
  87269256.978 6      3379.108
 17  4  9 16 17  3.0000000  0  8G26G14G 6G25G12G29G 2G31             0.000177333
  24398431.394    24398430.624   128214616.913 4      7092.795    24398437.034
  99907513.983 4      5526.871
  24011594.576    24011593.956   126181780.545 4       887.450    24011595.886
  98323484.131 4       691.511
  24586555.308    24586557.658   129203250.000 1       447.840    24586559.878
 100677863.485 1       349.017
  20561943.722    20561943.282   108053814.498 7      2308.961    20561948.232
  84197746.473 7      1799.201
  22984223.800    22984223.250   120782919.960 5       266.068    22984225.060
  94116571.542 5       207.333
  20516790.261    20516789.961   107816517.640 6      5172.088    20516791.701
  84012875.869 6      4030.208
  22455407.276    22455406.426   118003949.064 6      2611.382    22455405.646
  91951149.916 6      2034.863
  21311214.928    21311215.098   111991185.391 6      4335.634    21311215.978
  87265878.298 6      3378.430
 17  4  9 16 17  4.0000000  0  8G26G14G 6G25G12G29G 2G31             0.000175043
  24397081.544    24397080.784   128207524.328 4      7092.580    24397087.294
  99901987.299 4      5526.680
  24011425.938    24011425.148   126180893.152 4       887.205    24011426.838
  98322792.651 4       691.294
  24586473.253    24586471.933   129202800.505 1       449.528    24586473.993
 100677513.176 1       350.455
  20561504.325    20561503.865   108051505.927 7      2308.385    20561508.925
  84195947.588 7      1798.750
  22984172.577    22984172.517   120782653.777 5       266.014    22984174.317
  94116364.121 5       207.298
  20515806.190    20515805.850   107811345.854 7      5171.361    20515807.560
  84008845.904 7      4029.632
  22454910.048    22454909.398   118001337.817 6      2611.115    22454908.758
  91949115.183 6      2034.646
  21310389.874    21310390.094   111986850.043 6      4334.921    21310391.054
  87262500.107 6      3377.879
 17  4  9 16 17  5.0000000  0  8G26G14G 6G25G12G29G 2G31             0.000172753
  24395731.936    24395731.266   128200431.799 4      7092.551    24395737.646
  99896460.651 4      5526.628
  24011257.157    24011256.377   126180006.019 4       887.373    24011258.127
  98322101.378 4       691.455
  24586387.881    24586386.631   129202351.270 1       446.968    24586387.511
 100677163.115 1       348.336
  20561065.267    20561064.597   108049197.804 7      2307.919    20561069.707
  84194149.050 7      1798.375
  22984122.305    22984121.985   120782387.767 5       265.720    22984123.655
  94116156.836 5       207.042
  20514821.827    20514821.797   107806174.535 7      5171.133    20514823.477
  84004816.308 7      4029.446
  22454413.161    22454412.551   117998727.100 6      2610.439    22454412.021
  91947080.855 6      2034.090
  21309565.289    21309565.219   111982515.273 6      4334.494    21309566.169
  87259122.362 6      3377.522
 17  4  9 16 17  6.0000000  0  8G26G14G 6G25G12G29G 2G31             0.000170464
  24394382.563    24394381.633   128193339.424 4      7091.999    24394387.953
  99890934.137 4      5526.246
  24011088.369    24011087.669   126179119.323 4       886.400    24011089.529
  98321410.443 4       690.724
  24586303.745    24586300.215   129201902.438 1       448.033    24586303.145
 100676813.381 1       349.244
  20560626.235    20560625.535   108046890.247 7      2307.185    20560630.605
  84192350.954 7      1797.796
  22984071.629    22984071.469   120782121.967 5       265.757    22984073.169
  94115949.727 5       207.051
  20513837.997    20513837.847   107801003.807 7      5170.517    20513839.487
  84000787.165 6      4028.962
  22453916.435    22453915.885   117996116.977 6      2609.683    22453915.275
  91945046.990 6      2033.485
  21308740.571    21308740.581   111978181.181 6      4333.846    21308741.311
  87255745.146 6      3377.016
 17  4  9 16 17  7.0000000  0  8G26G14G 6G25G12G29G 2G31             0.000168174
  24393032.698    24393032.128   128186247.159 4      7092.182    24393038.148
  99885407.691 4      5526.369
  24010919.205    24010919.105   126178232.918 4       885.917    24010920.825
  98320719.742 4       690.336
  24586217.982    24586214.922   129201453.866 1       448.786    24586217.372
 100676463.862 1       349.656
  20560187.322    20560186.612   108044583.170 7      2306.986    20560191.592
  84190553.229 7      1797.660
  22984021.244    22984021.014   120781856.425 5       265.316    22984022.614
  94115742.805 5       206.748
  20512854.456    20512854.006   107795833.615 6      5169.785    20512855.566
  83996758.444 7      4028.407
  22453419.737    22453419.327   117993507.402 6      2609.253    22453418.727
  91943013.561 6      2033.181
  21307915.570    21307915.810   111973847.704 6      4333.234    21307916.570
  87252368.414 6      3376.561
 17  4  9 16 17  8.0000000  0  8G26G14G 6G25G12G29G 2G31             0.000165884
  24391683.153    24391682.473   128179154.982 4      7092.202    24391688.703
  99879881.321 4      5526.390
  24010750.703    24010750.343   126177346.903 4       886.085    24010752.353
  98320029.330 4       690.472
  24586132.221    24586129.131   129201005.673 1       448.702    24586132.891
 100676114.624 1       349.695
  20559748.337    20559747.657   108042276.630 7      2306.436    20559752.677
  84188755.923 7      1797.202
  22983970.924    22983970.624   120781591.042 5       265.606    22983972.014
  94115536.017 5       206.977
  20511870.400    20511870.210   107790663.976 7      5169.348    20511871.860
  83992730.151 7      4028.024
  22452923.153    22452922.893   117990898.411 6      2608.777    22452922.273
  91940980.569 6      2032.810
  21307091.136    21307091.226   111969514.859 6      4332.741    21307092.156
  87248992.178 6      3376.128
 17  4  9 16 17  9.0000000  0  8G26G14G 6G25G12G29G 2G31             0.000163594
  24390333.274    24390333.034   128172062.868 4      7091.945    24390339.144
  99874354.992 4      5526.208
  24010581.855    24010581.745   126176461.126 4       885.402    24010583.665
  98319339.127 4       689.880
  24586046.842    24586043.412   129200557.716 1       448.149    24586047.292
 100675765.547 1       349.120
  20559309.645    20559308.885   108039970.516 7      2305.953    20559313.865
  84186958.957 7      1796.863
  22983920.460    22983920.080   120781325.829 5       264.893    22983921.440
  94115329.351 5       206.440
  20510886.665    20510886.525   107785494.805 6      5168.921    20510888.235
  83988702.229 7      4027.736
  22452426.855    22452426.565   117988289.888 6      2608.252    22452425.945
  91938947.957 6      2032.403
  21306266.602    21306266.692   111965182.605 6      4332.076    21306267.772
  87245616.397 6      3375.639
 17  4  9 16 17 10.0000000  0  8G26G14G 6G25G12G29G 2G31             0.000161304
  24388983.632    24388983.462   128164970.805 4      7092.141    24388989.602
  99868828.711 4      5526.321
  24010413.887    24010413.167   126175575.675 4       885.489    24010415.017
  98318649.163 4       689.994
  24585962.048    24585959.168   129200110.175 1       447.711    24585964.428
 100675416.802 1       348.804
  20558870.936    20558870.166   108037664.898 7      2305.457    20558875.156
  84185162.371 7      1796.450
  22983869.938    22983869.638   120781060.830 5       264.754    22983870.978
  94115122.865 5       206.300
  20509902.957    20509902.957   107780326.136 6      5168.336    20509904.657
  83984674.693 7      4027.258
  22451930.624    22451930.254   117985681.915 6      2607.742    22451929.754
  91936915.769 6      2032.002
  21305442.331    21305442.341   111960850.942 6      4331.429    21305443.481
  87242241.072 6      3375.119
 17  4  9 16 17 11.0000000  0  8G26G14G 6G25G12G29G 2G31             0.000159014
  24387633.769    24387634.029   128157878.828 4      7092.045    24387639.859
  99863302.497 4      5526.264
  24010245.935    24010244.795   126174690.538 4       885.020    24010246.855
  98317959.451 4       689.600
  24585876.826    24585875.176   129199662.835 1       447.861    24585879.386
 100675068.245 1       348.848
  20558432.114    20558431.494   108035359.742 7      2304.850    20558436.494
  84183366.150 7      1795.986
  22983819.443    22983819.153   120780795.934 5       264.787    22983820.563
  94114916.461 5       206.309
  20508919.620    20508919.580   107775157.976 7      5167.996    20508921.190
  83980647.557 7      4027.007
  22451434.478    22451434.028   117983074.461 6      2607.303    22451433.508
  91934883.983 6      2031.667
  21304617.716    21304618.136   111956519.879 6      4330.973    21304619.286
  87238866.214 6      3374.794
 17  4  9 16 17 12.0000000  0  8G26G14G 6G25G12G29G 2G31             0.000156724
  24386284.260    24386284.450   128150786.993 4      7091.588    24386290.130
  99857776.395 4      5525.890
  24010078.075    24010076.375   126173805.808 4       884.680    24010078.515
  98317270.040 4       689.334
  24585792.113    24585790.333   129199215.921 1       446.479    24585794.553
 100674719.976 1       347.983
  20557993.498    20557992.828   108033055.130 7      2304.321    20557997.898
  84181570.347 7      1795.575
  22983769.279    22983768.919   120780531.298 5       264.532    22983770.229
  94114710.247 5       206.140
  20507936.404    20507936.304   107769990.388 7      5167.313    20507937.894
  83976620.863 7      4026.480
  22450938.690    22450937.920   117980467.594 6      2606.602    22450937.460
  91932852.660 6      2031.113
  21303793.720    21303794.160   111952189.469 6      4330.391    21303795.160
  87235491.869 6      3374.310
 17  4  9 16 17 13.0000000  0  8G26G14G 6G25G12G29G 2G31             0.000154435
  24384935.324    24384934.864   128143695.171 4      7091.497    24384940.774
  99852250.307 4      5525.820
  24009909.707    24009907.877   126172921.328 4       884.327    24009910.047
  98316580.824 4       689.081
  24585706.338    24585704.658   129198769.173 1       446.806    24585712.228
 100674371.829 1       348.304
  20557555.040    20557554.370   108030750.980 7      2303.756    20557559.340
  84179774.902 7      1795.132
  22983719.008    22983718.618   120780266.835 5       264.202    22983719.868
  94114504.182 5       205.895
  20506953.399    20506953.079   107764823.272 7      5166.729    20506954.699
  83972594.535 7      4026.018
  22450442.541    22450442.001   117977861.235 6      2605.916    22450441.541
  91930821.730 6      2030.585
  21302969.792    21302970.262   111947859.644 6      4329.455    21302971.352
  87232117.978 6      3373.603
 17  4  9 16 17 14.0000000  0  8G26G14G 6G25G12G29G 2G31             0.000152145
  24383586.259    24383585.569   128136603.541 4      7092.262    24383591.439
  99846724.363 4      5526.457
  24009741.357    24009739.647   126172037.246 4       884.145    24009742.197
  98315891.933 4       688.932
  24585621.749    24585618.209   129198322.913 1       445.937    24585625.309
 100674024.113 1       347.341
  20557116.933    20557116.023   108028447.393 7      2303.466    20557120.953
  84177979.901 7      1794.903
  22983668.676    22983668.426   120780002.666 5       264.175    22983669.596
  94114298.335 5       205.816
  20505969.874    20505969.854   107759656.773 6      5166.176    20505971.554
  83968568.703 6      4025.580
  22449946.855    22449946.245   117975255.484 6      2605.547    22449945.685
  91928791.268 6      2030.298
  21302145.905    21302146.495   111943530.524 6      4328.714    21302147.625
  87228744.640 6      3373.012
 17  4  9 16 17 15.0000000  0  8G26G14G 6G25G12G29G 2G31             0.000149855
  24382236.458    24382235.948   128129512.069 4      7091.550    24382242.058
  99841198.544 4      5525.829
  24009572.709    24009571.509   126171153.586 4       883.644    24009573.959
  98315203.366 4       688.565
  24585538.813    24585533.083   129197876.973 1       446.613    24585540.583
 100673676.634 1       348.185
  20556678.912    20556677.872   108026144.368 7      2302.836    20556682.752
  84176185.334 7      1794.390
  22983618.005    22983618.055   120779738.736 5       263.886    22983619.175
  94114092.671 5       205.587
  20504986.700    20504986.770   107754490.855 6      5165.538    20504988.530
  83964543.311 6      4025.072
  22449451.037    22449450.467   117972650.344 6      2604.897    22449450.007
  91926761.285 6      2029.778
  21301322.253    21301322.723   111939202.050 6      4327.910    21301323.863
  87225371.804 6      3372.368
 17  4  9 16 17 16.0000000  0  8G26G14G 6G25G12G29G 2G31             0.000147565
  24380887.098    24380886.558   128122420.674 4      7090.838    24380892.398
  99835672.778 4      5525.286
  24009404.252    24009403.302   126170270.200 4       883.407    24009405.712
  98314515.010 4       688.381
  24585454.905    24585448.985   129197431.410 1       446.610    24585456.235
 100673329.446 1       348.072
  20556240.738    20556239.648   108023841.822 7      2302.069    20556244.638
  84174391.146 7      1793.833
  22983567.624    22983567.774   120779474.972 5       263.376    22983569.024
  94113887.144 5       205.217
  20504003.467    20504003.797   107749325.454 7      5165.112    20504005.627
  83960518.321 6      4024.765
  22448955.376    22448954.836   117970045.722 6      2604.121    22448954.356
  91924731.712 6      2029.195
  21300498.878    21300499.138   111934874.221 6      4327.405    21300500.258
  87221999.472 6      3371.998
 17  4  9 16 17 17.0000000  0  8G26G14G 6G25G12G29G 2G31             0.000145275
  24379537.501    24379537.131   128115329.434 4      7090.940    24379542.811
  99830147.121 4      5525.435
  24009235.795    24009235.185   126169387.177 4       882.666    24009237.835
  98313826.939 4       687.796
  24585369.018    24585364.358   129196986.153 1       444.960    24585371.658
 100672982.485 1       346.710
  20555802.835    20555801.645   108021539.794 7      2301.904    20555806.645
  84172597.346 7      1793.698
  22983517.351    22983517.521   120779211.430 5       263.301    22983518.991
  94113681.786 5       205.181
  20503020.720    20503020.910   107744160.608 7      5164.485    20503022.760
  83956493.758 7      4024.277
  22448459.725    22448459.255   117967441.665 6      2603.787    22448458.805
  91922702.577 6      2028.931
  21299675.419    21299675.699   111930547.006 6      4326.803    21299676.839
  87218627.604 6      3371.539
 17  4  9 16 17 18.0000000  0  8G26G14G 6G25G12G29G 2G31             0.000142985
  24378188.498    24378187.638   128108238.144 4      7091.343    24378193.288
  99824621.451 4      5525.724
  24009067.928    24009067.228   126168504.466 4       882.620    24009069.868
  98313139.119 4       687.753
  24585281.699    24585279.629   129196541.118 1       445.241    24585286.299
 100672635.691 1       347.092
  20555365.025    20555363.715   108019238.217 7      2301.534    20555368.625
  84170803.911 7      1793.400
  22983467.356    22983467.526   120778948.030 5       263.134    22983468.776
  94113476.540 5       205.008
  20502038.174    20502038.114   107738996.222 7      5164.081    20502039.964
  83952469.564 6      4023.955
  22447964.279    22447963.739   117964838.130 6      2603.460    22447963.359
  91920673.847 6      2028.683
  21298851.769    21298852.219   111926220.360 6      4326.335    21298853.559
  87215256.196 6      3371.177
 17  4  9 16 17 19.0000000  0  8G26G14G 6G25G12G29G 2G31             0.000140695
  24376839.023    24376838.223   128101147.028 4      7090.526    24376843.883
  99819095.908 4      5525.085
  24008899.806    24008899.166   126167622.102 4       882.359    24008901.886
  98312451.544 4       687.550
  24585198.462    24585194.722   129196096.432 1       445.348    24585201.982
 100672289.220 1       347.015
  20554927.259    20554925.959   108016937.145 7      2300.634    20554930.739
  84169010.864 7      1792.709
  22983417.305    22983417.345   120778684.839 5       262.993    22983418.615
  94113271.456 5       204.912
  20501055.548    20501055.518   107733832.378 7      5163.479    20501057.308
  83948445.799 6      4023.472
  22447468.932    22447468.422   117962235.127 6      2602.521    22447468.082
  91918645.540 6      2027.921
  21298028.636    21298028.986   111921894.336 6      4325.582    21298030.226
  87211885.268 6      3370.606
 17  4  9 16 17 20.0000000  0  8G26G14G 6G25G12G29G 2G31             0.000138405
  24375489.169    24375488.669   128094055.935 4      7091.441    24375494.359
  99813570.371 4      5525.794
  24008732.088    24008731.308   126166739.987 4       882.020    24008733.668
  98311764.192 4       687.266
  24585114.680    24585110.230   129195652.155 1       443.552    24585118.080
 100671943.019 1       345.478
  20554489.303    20554488.103   108014636.541 7      2300.442    20554492.963
  84167218.182 7      1792.556
  22983367.264    22983367.374   120778421.786 5       262.957    22983368.634
  94113066.479 5       204.871
  20500072.858    20500072.888   107728669.053 7      5162.958    20500074.748
  83944422.427 7      4023.097
  22446973.739    22446973.149   117959632.654 6      2602.006    22446972.849
  91916617.637 6      2027.524
  21297205.411    21297205.821   111917568.910 6      4325.079    21297207.151
  87208514.806 6      3370.173
 17  4  9 16 17 21.0000000  0  8G26G14G 6G25G12G29G 2G31             0.000136115
  24374140.093    24374139.453   128086964.930 4      7090.723    24374145.113
  99808044.920 4      5525.250
  24008564.238    24008563.428   126165858.203 4       881.897    24008566.018
  98311077.089 4       687.188
  24585030.504    24585024.794   129195208.018 1       443.273    24585032.854
 100671596.958 1       345.316
  20554051.834    20554050.524   108012336.406 7      2299.856    20554055.274
  84165425.868 7      1792.085
  22983317.503    22983317.373   120778158.935 5       262.689    22983318.533
  94112861.658 5       204.687
  20499090.110    20499090.340   107723506.206 6      5162.534    20499092.220
  83940399.433 6      4022.747
  22446478.699    22446478.069   117957030.705 6      2601.606    22446477.719
  91914590.139 6      2027.227
  21296382.551    21296382.821   111913244.090 6      4324.610    21296384.141
  87205144.812 6      3369.833
 17  4  9 16 17 22.0000000  0  8G26G14G 6G25G12G29G 2G31             0.000133825
  24372790.486    24372790.056   128079874.032 4      7090.830    24372795.736
  99802519.547 4      5525.295
  24008396.475    24008395.685   126164976.790 4       880.801    24008398.185
  98310390.272 4       686.338
  24584945.969    24584940.659   129194764.282 1       444.279    24584949.519
 100671251.205 1       346.155
  20553614.246    20553612.936   108010036.777 7      2299.602    20553617.696
  84163633.952 7      1791.901
  22983267.529    22983267.439   120777896.280 5       262.598    22983268.479
  94112656.990 5       204.646
  20498108.142    20498107.962   107718343.893 7      5162.209    20498109.812
  83936376.849 6      4022.496
  22445983.546    22445982.946   117954429.302 6      2601.270    22445982.696
  91912563.068 6      2026.966
  21295559.534    21295559.934   111908919.906 6      4323.904    21295561.254
  87201775.323 6      3369.274
 17  4  9 16 17 23.0000000  0  8G26G14G 6G25G12G29G 2G31             0.000131535
  24371440.759    24371440.779   128072783.275 4      7090.395    24371446.269
  99796994.288 4      5524.955
  24008228.582    24008228.032   126164095.764 4       880.342    24008230.672
  98309703.741 4       685.998
  24584862.121    24584856.041   129194320.877 1       443.253    24584865.511
 100670905.680 1       345.461
  20553176.644    20553175.454   108007737.713 7      2298.894    20553180.044
  84161842.478 7      1791.344
  22983217.225    22983217.365   120777633.889 5       263.048    22983218.565
  94112452.520 5       204.948
  20497125.825    20497125.685   107713182.205 6      5161.489    20497127.495
  83932354.754 6      4021.929
  22445488.830    22445488.070   117951828.516 6      2600.572    22445487.830
  91910536.481 6      2026.416
  21294737.303    21294737.293   111904596.406 6      4322.623    21294738.503
  87198406.364 6      3368.267
 17  4  9 16 17 24.0000000  0  8G26G14G 6G25G12G29G 2G31             0.000129245
  24370091.760    24370091.460   128065692.602 4      7090.825    24370097.190
  99791469.083 4      5525.327
  24008061.066    24008060.546   126163214.985 4       880.630    24008063.046
  98309017.417 4       686.240
  24584777.195    24584771.615   129193877.841 1       442.964    24584780.765
 100670560.459 1       345.058
  20552739.289    20552738.019   108005439.105 7      2298.329    20552742.659
  84160051.354 7      1790.910
  22983167.630    22983167.510   120777371.632 5       261.554    22983168.550
  94112248.171 5       203.816
  20496143.751    20496143.601   107708020.960 6      5161.101    20496145.381
  83928333.005 6      4021.631
  22444993.958    22444993.288   117949228.216 6      2599.858    22444992.978
  91908510.273 6      2025.867
  21293914.487    21293914.597   111900273.463 6      4322.768    21293915.867
  87195037.841 6      3368.398
 17  4  9 16 17 25.0000000  0  8G26G14G 6G25G12G29G 2G31             0.000126956
  24368742.065    24368742.025   128058602.074 4      7090.447    24368747.975
  99785944.007 4      5525.036
  24007893.607    24007892.847   126162334.624 4       880.416    24007895.487
  98308331.429 4       686.038
  24584691.808    24584687.358   129193435.176 1       443.357    24584696.938
 100670215.518 1       345.373
  20552302.037    20552300.727   108003141.046 7      2297.896    20552305.397
  84158260.656 7      1790.562
  22983117.214    22983117.554   120777109.635 5       261.904    22983118.754
  94112044.017 5       204.094
  20495161.910    20495161.570   107702860.334 6      5160.416    20495163.330
  83924311.737 6      4021.092
  22444499.321    22444498.531   117946628.537 6      2599.281    22444498.271
  91906484.551 6      2025.405
  21293091.971    21293092.101   111895951.196 6      4322.463    21293093.321
  87191669.835 6      3368.171
 17  4  9 16 17 26.0000000  0  8G26G14G 6G25G12G29G 2G31             0.000124666
  24367392.925    24367392.595   128051511.634 4      7090.340    24367398.375
  99780418.980 4      5524.941
  24007726.607    24007725.207   126161454.642 4       879.656    24007727.717
  98307645.722 4       685.463
  24584606.429    24584603.919   129192992.806 1       441.717    24584612.399
 100669870.837 1       344.133
  20551864.698    20551863.498   108000843.518 7      2297.289    20551868.238
  84156470.380 7      1790.110
  22983067.357    22983067.627   120776847.829 5       261.514    22983069.017
  94111840.021 5       203.787
  20494179.987    20494179.637   107697700.263 7      5159.864    20494181.397
  83920290.899 6      4020.688
  22444004.534    22444003.954   117944029.414 6      2598.831    22444003.634
  91904459.263 6      2025.068
  21292269.601    21292269.681   111891629.604 6      4321.224    21292270.971
  87188302.366 6      3367.187
 17  4  9 16 17 27.0000000  0  8G26G14G 6G25G12G29G 2G31             0.000122375
  24366043.669    24366043.199   128044421.189 4      7090.252    24366048.999
  99774893.972 4      5524.891
  24007558.595    24007557.845   126160574.815 4       879.769    24007560.485
  98306960.138 4       685.497
  24584523.396    24584520.046   129192550.639 1       442.829    24584527.716
 100669526.259 1       345.126
  20551427.827    20551426.427   107998546.375 7      2296.743    20551431.077
  84154680.394 7      1789.661
  22983017.679    22983017.689   120776586.147 5       261.173    22983019.229
  94111636.114 5       203.491
  20493198.154    20493197.814   107692540.584 7      5159.485    20493199.524
  83916270.369 7      4020.361
  22443510.144    22443509.404   117941430.748 6      2598.365    22443509.054
  91902434.329 6      2024.700
  21291447.525    21291447.415   111887308.519 6      4321.078    21291448.775
  87184935.280 6      3367.077
 17  4  9 16 17 28.0000000  0  8G26G14G 6G25G12G29G 2G31             0.000120085
  24364694.271    24364693.841   128037330.856 4      7090.144    24364699.771
  99769369.029 4      5524.809
  24007391.393    24007390.773   126159695.343 4       879.182    24007393.263
  98306274.847 4       685.053
  24584438.598    24584436.948   129192108.807 1       441.666    24584444.438
 100669182.004 1       344.030
  20550990.672    20550989.312   107996249.698 7      2296.368    20550993.932
  84152890.780 7      1789.384
  22982967.823    22982967.853   120776324.626 5       261.276    22982969.413
  94111432.332 5       203.572
  20492216.388    20492216.078   107687381.449 7      5158.864    20492217.778
  83912250.267 7      4019.893
  22443015.837    22443014.927   117938832.606 6      2597.659    22443014.647
  91900409.812 6      2024.170
  21290625.271    21290625.301   111882988.029 6      4320.313    21290626.601
  87181568.669 6      3366.472
 17  4  9 16 17 29.0000000  0  8G26G14G 6G25G12G29G 2G31             0.000117795
  24363344.581    24363344.541   128030240.611 4      7090.261    24363350.521
  99763844.160 4      5524.893
  24007223.931    24007223.631   126158816.205 4       878.734    24007225.901
  98305589.815 4       684.737
  24584354.809    24584353.479   129191667.324 1       441.932    24584360.349
 100668837.974 1       344.274
  20550553.728    20550552.358   107993953.575 7      2295.597    20550556.918
  84151101.594 7      1788.781
  22982918.148    22982918.008   120776063.354 5       260.807    22982919.688
  94111228.735 5       203.218
  20491234.653    20491234.403   107682222.840 7      5158.087    20491236.223
  83908230.580 7      4019.272
  22442521.512    22442520.562   117936235.026 6      2597.174    22442520.432
  91898385.717 6      2023.766
  21289803.103    21289803.213   111878668.192 6      4319.394    21289804.583
  87178202.567 6      3365.757
 17  4  9 16 17 30.0000000  0  8G26G14G 6G25G12G29G 2G31             0.000115505
  24361995.805    24361995.585   128023150.545 4      7090.270    24362001.295
  99758319.448 4      5524.889
  24007056.179    24007056.529   126157937.467 4       878.535    24007058.489
  98304905.081 4       684.565
  24584271.500    24584269.580   129191226.329 1       439.864    24584276.740
 100668494.330 1       342.782
  20550116.788    20550115.488   107991657.994 7      2295.280    20550120.168
  84149312.829 7      1788.524
  22982868.705    22982868.325   120775802.299 5       261.039    22982869.935
  94111025.321 5       203.378
  20490252.894    20490252.854   107677064.862 7      5157.728    20490254.764
  83904211.370 7      4019.007
  22442027.191    22442026.541   117933638.063 6      2596.589    22442026.301
  91896362.104 6      2023.316
  21288981.047    21288981.207   111874349.038 6      4318.899    21288982.667
  87174836.995 6      3365.366
 17  4  9 16 17 31.0000000  0  8G26G14G 6G25G12G29G 2G31             0.000113215
  24360646.448    24360646.218   128016060.519 4      7090.012    24360652.218
  99752794.754 4      5524.688
  24006888.986    24006889.286   126157059.057 4       878.079    24006891.326
  98304220.603 4       684.231
  24584188.171    24584186.371   129190785.439 1       441.919    24584192.371
 100668150.800 1       344.394
  20549679.991    20549678.661   107989362.883 7      2294.919    20549683.431
  84147524.435 7      1788.271
  22982818.755    22982818.515   120775541.421 5       260.990    22982820.165
  94110822.038 5       203.389
  20489271.605    20489271.455   107671907.360 7      5157.156    20489273.375
  83900192.536 7      4018.567
  22441532.953    22441532.283   117931041.604 6      2596.167    22441532.333
  91894338.895 6      2023.006
  21288159.384    21288159.324   111870030.462 6      4318.461    21288160.834
  87171471.872 6      3365.066
 17  4  9 16 17 32.0000000  0  8G26G14G 6G25G12G29G 2G31             0.000110925
  24359298.203    24359297.333   128008970.676 4      7089.890    24359302.803
  99747270.186 4      5524.579
  24006722.471    24006722.111   126156180.993 4       877.333    24006724.221
  98303536.394 4       683.614
  24584103.261    24584102.651   129190344.905 1       439.794    24584109.021
 100667807.522 1       342.592
  20549243.360    20549242.100   107987068.286 7      2294.574    20549246.820
  84145736.439 7      1787.969
  22982769.137    22982768.877   120775280.787 5       260.085    22982770.357
  94110618.943 5       202.657
  20488290.084    20488290.044   107666750.403 7      5156.711    20488292.044
  83896174.134 7      4018.199
  22441038.861    22441038.271   117928445.726 6      2595.579    22441038.301
  91892316.128 6      2022.528
  21287337.903    21287337.723   111865712.562 6      4317.568    21287339.193
  87168107.265 6      3364.338
 17  4  9 16 17 33.0000000  0  8G26G14G 6G25G12G29G 2G31             0.000108635
  24357947.993    24357948.043   128001880.836 4      7090.050    24357953.923
  99741745.636 4      5524.684
  24006556.070    24006555.350   126155303.217 4       877.384    24006557.350
  98302852.418 4       683.633
  24584018.287    24584018.407   129189904.794 1       437.871    24584025.117
 100667464.592 1       341.255
  20548806.529    20548805.509   107984774.169 7      2293.869    20548810.269
  84143948.814 7      1787.411
  22982719.284    22982719.394   120775020.252 5       259.787    22982720.834
  94110415.941 5       202.437
  20487308.778    20487308.728   107661593.943 7      5155.896    20487310.748
  83892156.113 6      4017.559
  22440544.725    22440544.375   117925850.346 6      2594.678    22440544.355
  91890293.761 6      2021.805
  21286516.442    21286516.242   111861395.235 6      4316.855    21286517.772
  87164743.112 6      3363.770
 17  4  9 16 17 34.0000000  0  8G26G14G 6G25G12G29G 2G31             0.000106345
  24356598.742    24356598.862   127994791.172 4      7089.185    24356604.842
  99736221.220 4      5524.025
  24006388.926    24006388.316   126154425.828 4       876.897    24006390.496
  98302168.733 4       683.316
  24583933.757    24583934.567   129189464.962 1       440.448    24583941.697
 100667121.868 1       343.231
  20548370.163    20548369.133   107982480.609 7      2293.157    20548373.843
  84142161.625 7      1786.880
  22982669.939    22982669.789   120774760.023 5       259.831    22982671.389
  94110213.168 5       202.448
  20486327.287    20486327.537   107656438.097 7      5155.510    20486329.607
  83888138.572 7      4017.283
  22440051.284    22440050.694   117923255.599 6      2594.371    22440050.604
  91888271.877 6      2021.598
  21285694.699    21285694.849   111857078.578 6      4316.077    21285696.419
  87161379.481 6      3363.183
 17  4  9 16 17 35.0000000  0  8G26G14G 6G25G12G29G 2G31             0.000104055
  24355248.768    24355249.618   127987701.595 4      7089.856    24355255.708
  99730696.894 4      5524.579
  24006222.034    24006221.534   126153548.796 4       877.143    24006223.654
  98301485.331 4       683.469
  24583850.552    24583850.372   129189025.465 1       438.745    24583858.832
 100666779.431 1       341.781
  20547933.781    20547932.821   107980187.542 7      2292.739    20547937.491
  84140374.825 7      1786.539
  22982620.707    22982620.217   120774499.964 5       259.985    22982621.737
  94110010.522 5       202.579
  20485346.309    20485346.469   107651282.751 6      5154.921    20485348.519
  83884121.419 6      4016.818
  22439557.798    22439557.108   117920661.372 6      2594.180    22439557.008
  91886250.388 6      2021.458
  21284873.627    21284873.667   111852762.559 6      4315.601    21284875.057
  87158016.355 6      3362.838
 17  4  9 16 17 36.0000000  0  8G26G14G 6G25G12G29G 2G31             0.000101765
  24353899.312    24353900.282   127980612.088 4      7088.896    24353906.502
  99725172.605 4      5523.814
  24006054.844    24006054.704   126152672.024 4       877.131    24006056.674
  98300802.126 4       683.470
  24583767.143    24583766.643   129188586.336 1       438.672    24583775.353
 100666437.259 1       341.900
  20547497.356    20547496.556   107977894.970 7      2292.338    20547501.256
  84138588.406 7      1786.241
  22982571.494    22982570.914   120774240.107 5       259.819    22982572.334
  94109808.026 5       202.454
  20484365.801    20484365.581   107646127.934 7      5154.435    20484367.481
  83880104.677 7      4016.445
  22439064.105    22439063.565   117918067.687 6      2593.574    22439063.385
  91884229.338 6      2020.966
  21284052.393    21284052.403   111848447.137 6      4315.085    21284053.813
  87154653.684 6      3362.397
 17  4  9 16 17 37.0000000  0  8G26G14G 6G25G12G29G 2G31             0.000099475
  24352550.786    24352551.406   127973522.747 4      7089.253    24352557.776
  99719648.440 4      5524.099
  24005888.071    24005887.921   126151795.688 4       876.057    24005889.821
  98300119.274 4       682.646
  24583684.310    24583682.530   129188147.486 1       438.299    24583692.500
 100666095.286 1       341.525
  20547060.947    20547060.287   107975602.957 7      2291.519    20547065.237
  84136802.415 7      1785.585
  22982522.438    22982521.438   120773980.490 5       259.686    22982522.988
  94109605.719 5       202.330
  20483385.083    20483384.833   107640973.705 7      5154.154    20483386.713
  83876088.391 6      4016.231
  22438570.849    22438570.129   117915474.603 6      2592.973    22438569.899
  91882208.744 6      2020.491
  21283231.454    21283231.244   111844132.394 6      4314.472    21283232.744
  87151291.554 6      3361.935
 17  4  9 16 17 38.0000000  0  8G26G14G 6G25G12G29G 2G31             0.000097185
  24351201.331    24351202.431   127966433.557 4      7088.929    24351208.811
  99714124.394 4      5523.848
  24005721.218    24005721.118   126150919.708 4       876.142    24005723.308
  98299436.687 4       682.686
  24583601.615    24583598.875   129187708.930 1       438.921    24583608.915
 100665753.570 1       342.008
  20546625.028    20546624.288   107973311.459 7      2291.151    20546629.208
  84135016.838 7      1785.311
  22982473.146    22982472.136   120773721.105 5       259.335    22982473.656
  94109403.610 5       202.060
  20482404.564    20482404.174   107635820.031 6      5153.406    20482405.974
  83872072.547 6      4015.641
  22438077.590    22438076.770   117912882.097 6      2592.164    22438076.610
  91880188.620 6      2019.866
  21282410.370    21282410.300   111839818.291 6      4314.159    21282411.840
  87147929.919 6      3361.664
 17  4  9 16 17 39.0000000  0  8G26G14G 6G25G12G29G 2G31             0.000094895
  24349852.485    24349853.395   127959344.405 4      7089.315    24349859.875
  99708600.383 4      5524.178
  24005555.561    24005554.571   126150044.037 4       875.437    24005556.751
  98298754.348 4       682.133
  24583517.797    24583516.117   129187270.860 1       437.515    24583524.717
 100665412.201 1       340.885
  20546188.748    20546188.188   107971020.476 7      2290.678    20546193.168
  84133231.651 7      1784.959
  22982423.584    22982422.814   120773461.914 5       259.029    22982424.354
  94109201.641 5       201.872
  20481423.956    20481423.616   107630666.890 6      5152.746    20481425.406
  83868057.110 6      4015.122
  22437584.347    22437583.467   117910290.153 6      2591.766    22437583.397
  91878168.913 6      2019.591
  21281589.860    21281589.690   111835504.849 6      4313.194    21281591.060
  87144568.788 6      3360.932
 17  4  9 16 17 40.0000000  0  8G26G14G 6G25G12G29G 2G31             0.000092605
  24348504.336    24348504.356   127952255.387 4      7088.194    24348510.686
  99703076.476 4      5523.261
  24005389.115    24005388.035   126149168.670 4       874.816    24005390.105
  98298072.265 4       681.672
  24583434.748    24583433.408   129186833.062 1       437.070    24583441.038
 100665071.065 1       340.642
  20545753.100    20545752.270   107968729.954 7      2290.577    20545757.260
  84131446.833 7      1784.864
  22982374.519    22982373.629   120773202.883 5       259.084    22982375.069
  94108999.795 5       201.871
  20480443.276    20480443.146   107625514.277 7      5152.211    20480444.876
  83864042.093 6      4014.698
  22437090.943    22437090.193   117907698.735 6      2590.997    22437090.283
  91876149.633 6      2018.957
  21280769.210    21280769.100   111831191.985 6      4312.604    21280770.300
  87141208.115 6      3360.441
 17  4  9 16 17 41.0000000  0  8G26G14G 6G25G12G29G 2G31             0.000090314
  24347155.673    24347155.373   127945166.431 4      7088.683    24347161.823
  99697552.619 4      5523.650
  24005222.698    24005221.578   126148293.653 4       874.464    24005223.728
  98297390.427 4       681.383
  24583352.265    24583350.325   129186395.389 1       437.459    24583356.915
 100664730.049 1       340.935
  20545317.385    20545316.495   107966439.911 7      2289.702    20545321.455
  84129662.384 7      1784.185
  22982325.226    22982324.476   120772944.011 5       258.827    22982326.016
  94108798.088 5       201.647
  20479462.901    20479462.771   107620362.128 7      5151.788    20479464.501
  83860027.430 7      4014.370
  22436598.101    22436597.071   117905107.799 6      2590.639    22436597.281
  91874130.723 6      2018.654
  21279948.581    21279948.401   111826879.720 6      4312.194    21279949.661
  87137847.911 6      3360.143
 17  4  9 16 17 42.0000000  0  8G26G14G 6G25G12G29G 2G31             0.000088024
  24345807.010    24345806.470   127938077.565 4      7089.190    24345812.860
  99692028.826 4      5524.040
  24005056.025    24005054.965   126147418.922 4       874.374    24005057.315
  98296708.811 4       681.333
  24583268.823    24583267.133   129185958.212 1       437.521    24583273.343
 100664389.406 1       340.928
  20544881.454    20544880.794   107964150.365 7      2289.472    20544885.814
  84127878.319 7      1784.002
  22982275.576    22982274.996   120772685.370 5       258.801    22982276.946
  94108596.546 5       201.641
  20478482.658    20478482.418   107615210.548 7      5151.241    20478484.188
  83856013.221 6      4013.943
  22436104.890    22436104.170   117902517.451 6      2590.208    22436104.390
  91872112.267 6      2018.362
  21279127.745    21279127.915   111822568.086 6      4311.374    21279129.265
  87134488.196 6      3359.511
 17  4  9 16 17 43.0000000  0  8G26G14G 6G25G12G29G 2G31             0.000085734
  24344458.072    24344457.612   127930988.811 4      7088.304    24344463.972
  99686505.118 4      5523.341
  24004889.647    24004888.627   126146544.550 4       874.609    24004890.937
  98296027.492 4       681.504
  24583185.865    24583183.825   129185521.370 1       436.149    24583190.875
 100664049.002 1       339.916
  20544445.977    20544445.227   107961861.346 7      2288.971    20544450.117
  84126094.669 7      1783.620
  22982226.714    22982225.894   120772426.936 5       258.250    22982227.564
  94108395.166 5       201.253
  20477502.599    20477502.219   107610059.487 7      5151.095    20477503.939
  83851999.404 7      4013.842
  22435611.942    22435611.342   117899927.647 6      2589.480    22435611.612
  91870094.237 6      2017.801
  21278307.233    21278307.513   111818257.106 6      4310.802    21278308.863
  87131128.989 6      3359.065
 17  4  9 16 17 44.0000000  0  8G26G14G 6G25G12G29G 2G31             0.000083444
  24343108.668    24343108.598   127923900.103 4      7088.505    24343115.188
  99680981.450 4      5523.473
  24004722.683    24004722.323   126145670.485 4       873.837    24004724.783
  98295346.391 4       680.841
  24583101.467    24583101.027   129185084.700 1       436.279    24583106.547
 100663708.755 1       340.046
  20544010.408    20544009.818   107959572.776 7      2288.082    20544014.588
  84124311.361 7      1782.902
  22982177.556    22982176.946   120772168.639 5       258.180    22982178.576
  94108193.897 5       201.187
  20476522.762    20476522.212   107604908.940 7      5150.037    20476523.812
  83847985.985 7      4013.010
  22435118.923    22435118.593   117897338.377 6      2588.537    22435118.853
  91868076.622 6      2017.031
  21277487.154    21277487.354   111813946.694 6      4309.864    21277488.594
  87127770.229 6      3358.331
 17  4  9 16 17 45.0000000  0  8G26G14G 6G25G12G29G 2G31             0.000081154
  24341759.714    24341759.584   127916811.513 4      7088.331    24341766.094
  99675457.873 4      5523.362
  24004556.724    24004556.234   126144796.740 4       873.352    24004558.264
  98294665.554 4       680.497
  24583018.951    24583018.431   129184648.446 1       436.503    24583022.411
 100663368.830 1       340.134
  20543574.962    20543574.352   107957284.702 7      2287.927    20543579.162
  84122528.450 7      1782.803
  22982128.527    22982127.867   120771910.562 5       258.073    22982129.507
  94107992.791 5       201.103
  20475542.808    20475542.228   107599758.916 7      5149.876    20475543.728
  83843972.972 7      4012.886
  22434626.324    22434625.874   117894749.609 6      2588.724    22434626.204
  91866059.399 6      2017.187
  21276666.963    21276667.253   111809636.905 6      4309.623    21276668.543
  87124411.945 6      3358.121
 17  4  9 16 17 46.0000000  0  8G26G14G 6G25G12G29G 2G31             0.000078864
  24340410.592    24340410.602   127909722.927 4      7088.636    24340416.932
  99669934.297 4      5523.573
  24004390.788    24004389.938   126143923.268 4       873.135    24004392.058
  98293984.922 4       680.389
  24582936.310    24582936.410   129184212.382 1       435.573    24582940.310
 100663029.024 1       339.406
  20543139.817    20543139.037   107954997.064 7      2287.444    20543143.877
  84120745.880 7      1782.429
  22982079.437    22982078.887   120771652.600 5       257.717    22982080.317
  94107791.790 5       200.831
  20474562.822    20474562.322   107594609.359 7      5149.271    20474563.822
  83839960.332 7      4012.411
  22434133.759    22434133.299   117892161.359 6      2588.168    22434133.659
  91864042.579 6      2016.748
  21275847.074    21275847.194   111805327.703 6      4308.756    21275848.434
  87121054.124 6      3357.476
 17  4  9 16 17 47.0000000  0  8G26G14G 6G25G12G29G 2G31             0.000076574
  24339062.154    24339061.844   127902634.470 4      7088.526    24339067.984
  99664410.826 4      5523.529
  24004224.633    24004223.943   126143050.140 4       873.062    24004226.003
  98293304.559 4       680.322
  24582853.382    24582853.352   129183776.726 1       434.814    24582857.782
 100662689.592 1       338.863
  20542704.499    20542703.799   107952709.977 7      2286.893    20542708.629
  84118963.735 7      1782.022
  22982030.197    22982029.747   120771394.881 5       257.675    22982031.437
  94107590.965 5       200.786
  20473582.778    20473582.448   107589460.350 6      5148.773    20473583.968
  83835948.119 6      4012.047
  22433641.359    22433640.729   117889573.688 6      2587.359    22433641.249
  91862026.216 6      2016.158
  21275027.123    21275027.343   111801019.116 6      4308.340    21275028.443
  87117696.785 6      3357.151
 17  4  9 16 17 48.0000000  0  8G26G14G 6G25G12G29G 2G31             0.000074284
  24337713.466    24337713.036   127895546.124 4      7088.455    24337719.216
  99658887.439 4      5523.437
  24004059.157    24004057.817   126142177.335 4       872.721    24004059.847
  98292624.441 4       680.067
  24582770.739    24582770.269   129183341.349 1       434.481    24582774.849
 100662350.335 1       338.518
  20542269.218    20542268.578   107950423.352 7      2286.304    20542273.458
  84117181.940 7      1781.537
  22981981.138    22981980.768   120771137.304 5       257.250    22981982.538
  94107390.254 5       200.437
  20472602.932    20472602.782   107584311.846 7      5148.266    20472604.222
  83831936.293 6      4011.619
  22433149.160    22433148.400   117886986.520 6      2586.927    22433148.910
  91860010.238 6      2015.773
  21274207.655    21274207.615   111796711.157 6      4307.723    21274208.765
  87114339.925 6      3356.651
 17  4  9 16 17 49.0000000  0  8G26G14G 6G25G12G29G 2G31             0.000071994
  24336364.317    24336364.207   127888457.902 4      7087.996    24336370.387
  99653364.158 4      5523.127
  24003893.121    24003891.841   126141304.863 4       872.169    24003893.761
  98291944.594 4       679.620
  24582687.208    24582686.318   129182906.338 1       436.616    24582693.218
 100662011.384 1       340.322
  20541834.371    20541833.521   107948137.256 7      2285.696    20541838.471
  84115400.566 7      1781.081
  22981931.953    22981931.673   120770879.973 5       257.250    22981933.543
  94107189.731 5       200.471
  20471623.178    20471623.218   107579163.929 7      5147.699    20471624.698
  83827924.934 7      4011.210
  22432657.042    22432656.232   117884399.961 6      2585.986    22432656.642
  91857994.740 6      2015.054
  21273387.859    21273387.899   111792403.841 6      4306.953    21273389.129
  87110983.577 6      3356.084
 17  4  9 16 17 50.0000000  0  8G26G14G 6G25G12G29G 2G31             0.000069703
  24335015.006    24335015.156   127881369.818 4      7087.777    24335021.586
  99647840.992 4      5522.944
  24003726.306    24003725.796   126140432.801 4       871.794    24003728.056
  98291265.078 4       679.327
  24582605.681    24582603.911   129182471.723 1       433.699    24582608.891
 100661672.736 1       337.899
  20541399.477    20541398.607   107945851.712 7      2285.445    20541403.467
  84113619.622 7      1780.878
  22981883.105    22981882.755   120770622.894 5       257.023    22981884.565
  94106989.406 5       200.291
  20470643.675    20470643.775   107574016.608 6      5146.806    20470645.215
  83823914.031 6      4010.507
  22432164.767    22432164.177   117881814.000 6      2585.877    22432164.437
  91855979.701 6      2014.976
  21272568.708    21272568.458   111788097.226 6      4306.153    21272569.658
  87107627.774 6      3355.449
 17  4  9 16 17 51.0000000  0  8G26G14G 6G25G12G29G 2G31             0.000067413
  24333665.892    24333666.332   127874281.756 4      7088.544    24333672.782
  99642317.831 4      5523.538
  24003560.779    24003559.779   126139561.041 4       871.101    24003561.909
  98290585.788 4       678.762
  24582523.103    24582521.793   129182037.305 1       434.760    24582526.113
 100661334.187 1       338.684
  20540964.636    20540963.706   107943566.627 7      2284.686    20540968.656
  84111839.036 7      1780.273
  22981833.870    22981833.730   120770365.960 5       256.679    22981835.700
  94106789.200 5       200.011
  20469664.297    20469664.317   107568869.734 6      5146.527    20469665.897
  83819903.481 6      4010.290
  22431673.026    22431672.166   117879228.518 6      2585.301    22431672.426
  91853965.039 6      2014.524
  21271749.433    21271749.023   111783791.142 6      4305.848    21271750.273
  87104272.380 6      3355.229
 17  4  9 16 17 52.0000000  0  8G26G14G 6G25G12G29G 2G31             0.000065123
  24332317.032    24332317.702   127867193.893 4      7087.794    24332323.922
  99636794.800 4      5522.955
  24003394.637    24003393.817   126138689.574 4       871.478    24003395.837
  98289906.716 4       679.068
  24582440.913    24582438.853   129181603.338 1       433.455    24582443.193
 100660996.033 1       337.611
  20540530.101    20540529.081   107941282.063 7      2284.417    20540533.911
  84110058.858 7      1780.064
  22981785.143    22981784.833   120770109.270 5       256.868    22981786.963
  94106589.178 5       200.181
  20468685.172    20468684.982   107563723.453 6      5146.012    20468686.542
  83815893.387 7      4009.876
  22431181.097    22431180.247   117876643.628 6      2584.881    22431180.617
  91851950.842 6      2014.219
  21270930.062    21270929.792   111779485.744 6      4305.386    21270931.072
  87100917.526 6      3354.859
 17  4  9 16 17 53.0000000  0  8G26G14G 6G25G12G29G 2G31             0.000062833
  24330968.283    24330968.863   127860106.125 4      7087.582    24330975.113
  99631271.857 4      5522.780
  24003229.278    24003228.158   126137818.533 4       871.162    24003230.228
  98289227.989 4       678.810
  24582357.729    24582356.769   129181169.639 1       433.902    24582360.299
 100660658.081 1       337.912
  20540095.328    20540094.418   107938998.040 7      2283.739    20540099.288
  84108279.103 7      1779.528
  22981736.315    22981736.035   120769852.777 5       256.281    22981738.175
  94106389.303 5       199.688
  20467705.893    20467705.783   107558577.739 7      5145.349    20467707.433
  83811883.738 7      4009.354
  22430689.140    22430688.520   117874059.303 6      2584.192    22430688.870
  91849937.086 6      2013.643
  21270110.921    21270110.611   111775181.024 6      4304.527    21270111.891
  87097563.203 6      3354.161
 17  4  9 16 17 54.0000000  0  8G26G14G 6G25G12G29G 2G31             0.000060543
  24329619.796    24329620.256   127853018.456 4      7087.685    24329626.486
  99625749.005 4      5522.849
  24003062.982    24003062.432   126136947.824 4       870.644    24003064.842
  98288549.507 4       678.423
  24582275.499    24582272.679   129180736.314 1       434.105    24582279.079
 100660320.429 1       338.293
  20539660.787    20539659.917   107936714.552 7      2283.378    20539664.777
  84106499.758 7      1779.277
  22981687.578    22981687.238   120769596.523 5       256.156    22981689.478
  94106189.615 5       199.630
  20466726.877    20466726.697   107553432.568 7      5145.008    20466728.347
  83807874.510 7      4009.098
  22430197.446    22430196.886   117871475.563 6      2583.552    22430197.196
  91847923.787 6      2013.153
  21269291.996    21269291.526   111770876.937 6      4303.759    21269292.836
  87094209.367 6      3353.559
 17  4  9 16 17 55.0000000  0  8G26G14G 6G25G12G29G 2G31             0.000058252
  24328271.134    24328271.564   127845930.896 4      7086.919    24328277.824
  99620226.252 4      5522.258
  24002896.251    24002896.641   126136077.459 4       869.986    24002899.211
  98287871.290 4       677.904
  24582191.871    24582189.591   129180303.288 1       432.677    24582196.751
 100659983.010 1       337.229
  20539226.589    20539225.529   107934431.534 7      2282.619    20539230.379
  84104720.780 7      1778.656
  22981638.903    22981638.403   120769340.446 5       255.661    22981640.863
  94105990.084 5       199.215
  20465748.084    20465747.724   107548287.923 7      5144.389    20465749.344
  83803865.696 7      4008.615
  22429706.040    22429705.360   117868892.350 6      2582.717    22429705.580
  91845910.896 6      2012.507
  21268473.179    21268472.629   111766573.454 6      4303.000    21268473.869
  87090856.001 6      3352.976
 17  4  9 16 17 56.0000000  0  8G26G14G 6G25G12G29G 2G31             0.000055962
  24326922.599    24326922.869   127838843.479 4      7087.122    24326928.859
  99614703.584 4      5522.408
  24002730.605    24002731.055   126135207.427 4       870.231    24002733.645
  98287193.341 4       678.101
  24582108.956    24582106.386   129179870.587 1       433.083    24582113.546
 100659645.847 1       337.379
  20538792.157    20538791.207   107932149.047 7      2282.306    20538796.017
  84102942.216 7      1778.410
  22981590.012    22981589.702   120769084.580 5       255.943    22981591.932
  94105790.705 5       199.446
  20464768.978    20464768.908   107543143.847 7      5143.823    20464770.438
  83799857.320 7      4008.158
  22429214.330    22429213.870   117866309.730 6      2582.519    22429214.290
  91843898.458 6      2012.352
  21267654.189    21267653.859   111762270.615 6      4302.611    21267655.079
  87087503.135 6      3352.688
 17  4  9 16 17 57.0000000  0  8G26G14G 6G25G12G29G 2G31             0.000053672
  24325573.394    24325573.894   127831756.217 4      7086.830    24325580.164
  99609181.048 4      5522.187
  24002565.815    24002565.505   126134337.780 4       869.361    24002568.255
  98286515.696 4       677.414
  24582026.479    24582024.549   129179438.316 1       433.206    24582030.249
 100659309.012 1       337.594
  20538357.969    20538356.959   107929867.106 7      2281.790    20538361.789
  84101164.086 7      1778.005
  22981541.166    22981541.036   120768828.968 5       255.667    22981543.346
  94105591.530 5       199.201
  20463790.166    20463790.116   107538000.334 7      5143.161    20463791.686
  83795849.389 7      4007.643
  22428722.993    22428722.613   117863727.694 6      2581.667    22428723.023
  91841886.486 6      2011.687
  21266835.543    21266835.133   111757968.444 6      4301.920    21266836.353
  87084150.801 6      3352.124
 17  4  9 16 17 58.0000000  0  8G26G14G 6G25G12G29G 2G31             0.000051382
  24324224.917    24324225.207   127824668.957 4      7086.661    24324231.677
  99603658.507 4      5522.085
  24002400.961    24002400.091   126133468.415 4       868.789    24002402.901
  98285838.250 4       677.000
  24581944.981    24581942.651   129179006.261 1       432.240    24581949.201
 100658972.363 1       336.838
  20537923.726    20537922.836   107927585.622 7      2280.930    20537927.646
  84099386.310 7      1777.361
  22981492.210    22981492.280   120768573.514 5       255.300    22981494.790
  94105392.474 5       198.940
  20462811.236    20462811.376   107532857.322 7      5142.556    20462813.046
  83791841.850 7      4007.204
  22428231.922    22428231.352   117861146.148 6      2581.267    22428231.652
  91839874.891 6      2011.392
  21266017.050    21266016.570   111753666.876 6      4300.956    21266017.830
  87080798.935 6      3351.396
 17  4  9 16 17 59.0000000  0  8G26G14G 6G25G12G29G 2G31             0.000049092
  24322876.813    24322876.843   127817581.882 4      7086.623    24322883.093
  99598136.103 4      5522.068
  24002236.359    24002235.079   126132599.399 4       868.780    24002237.789
  98285161.107 4       676.979
  24581863.270    24581860.810   129178574.634 1       431.426    24581866.300
 100658636.022 1       336.137
  20537489.639    20537488.749   107925304.679 7      2280.339    20537493.619
  84097608.952 7      1776.893
  22981443.854    22981443.774   120768318.279 5       255.245    22981446.304
  94105193.589 5       198.865
  20461832.602    20461832.752   107527714.879 6      5142.135    20461834.472
  83787834.751 7      4006.865
  22427741.133    22427740.173   117858565.191 6      2580.716    22427740.503
  91837863.756 6      2010.947
  21265198.842    21265198.082   111749365.967 6      4300.506    21265199.472
  87077447.576 6      3351.055
 17  4  9 16 18  0.0000000  0  8G26G14G 6G25G12G29G 2G31             0.000046802
  24321528.541    24321528.371   127810494.902 4      7086.779    24321534.341
  99592613.786 4      5522.144
  24002071.390    24002069.730   126131730.755 4       868.532    24002072.550
  98284484.237 4       676.770
  24581782.246    24581779.176   129178143.349 1       430.378    24581783.406
 100658299.932 1       335.345
  20537055.549    20537054.839   107923024.245 7      2280.071    20537059.689
  84095831.991 7      1776.688
  22981395.500    22981395.230   120768063.309 5       254.579    22981397.910
  94104994.909 5       198.384
  20460854.164    20460854.264   107522572.985 7      5141.495    20460856.004
  83783828.086 7      4006.366
  22427250.229    22427249.079   117855984.820 6      2580.026    22427249.369
  91835853.083 6      2010.423
  21264380.753    21264379.753   111745065.692 6      4299.945    21264381.113
  87074096.716 6      3350.612
 17  4  9 16 18  1.0000000  0  8G26G14G 6G25G12G29G 2G31             0.000044511
  24320179.461    24320179.521   127803407.996 4      7087.039    24320185.831
  99587091.532 4      5522.336
  24001906.915    24001904.595   126130862.460 4       867.807    24001907.395
  98283807.633 4       676.163
  24581700.778    24581697.208   129177712.332 1       430.166    24581701.438
 100657964.113 1       335.121
  20536621.740    20536620.950   107920744.331 7      2279.710    20536625.820
  84094055.431 7      1776.392
  22981347.018    22981346.678   120767808.487 5       254.663    22981349.398
  94104796.347 5       198.453
  20459875.736    20459875.876   107517431.609 7      5141.107    20459877.636
  83779821.818 7      4006.050
  22426759.075    22426758.175   117853404.985 6      2579.504    22426758.475
  91833842.819 6      2010.000
  21263562.028    21263561.468   111740766.067 6      4299.259    21263562.948
  87070746.363 6      3350.075
 17  4  9 16 18  2.0000000  0  8G26G14G 6G25G12G29G 2G31             0.000042221
  24318831.091    24318831.001   127796321.210 4      7086.715    24318837.171
  99581569.357 4      5522.083
  24001741.635    24001739.545   126129994.438 4       867.432    24001742.175
  98283131.276 4       675.906
  24581619.558    24581616.808   129177281.623 1       430.922    24581619.008
 100657628.498 1       335.933
  20536187.933    20536187.093   107918464.892 7      2279.090    20536191.973
  84092279.246 7      1775.893
  22981298.291    22981298.211   120767553.864 5       254.041    22981300.921
  94104597.945 5       197.931
  20458897.517    20458897.587   107512290.764 6      5140.495    20458899.347
  83775815.968 6      4005.569
  22426268.234    22426267.264   117850825.686 6      2578.943    22426267.664
  91831832.979 6      2009.552
  21262743.652    21262743.302   111736467.016 6      4298.665    21262744.782
  87067396.458 6      3349.585
 17  4  9 16 18  3.0000000  0  8G26G14G 6G25G12G29G 2G31             0.000039931
  24317482.698    24317482.628   127789234.549 4      7086.251    24317488.748
  99576047.275 4      5521.744
  24001576.319    24001574.389   126129126.761 4       867.862    24001576.839
  98282455.153 4       676.239
  24581537.250    24581534.280   129176851.224 1       429.321    24581538.320
 100657293.115 1       334.619
  20535754.369    20535753.459   107916185.954 7      2278.681    20535758.259
  84090503.448 7      1775.599
  22981249.574    22981249.794   120767299.403 5       254.514    22981252.664
  94104399.658 5       198.350
  20457919.262    20457919.352   107507150.446 6      5140.134    20457921.112
  83771810.519 7      4005.302
  22425777.655    22425776.585   117848246.943 6      2578.425    22425776.935
  91829823.563 6      2009.177
  21261925.806    21261925.296   111732168.627 6      4298.021    21261926.766
  87064047.062 6      3349.098
 17  4  9 16 18  4.0000000  0  8G26G14G 6G25G12G29G 2G31             0.000037641
  24316134.019    24316134.229   127782147.958 4      7086.422    24316140.279
  99570525.256 4      5521.888
  24001411.170    24001409.260   126128259.415 4       867.307    24001411.800
  98281779.294 4       675.821
  24581455.761    24581452.831   129176421.066 1       430.506    24581455.961
 100656957.927 1       335.566
  20535320.648    20535319.818   107913907.507 7      2278.254    20535324.728
  84088728.034 7      1775.270
  22981201.379    22981201.329   120767045.164 5       254.487    22981204.259
  94104201.548 5       198.323
  20456941.269    20456941.299   107502010.680 7      5139.627    20456943.049
  83767805.499 6      4004.907
  22425286.857    22425285.997   117845668.735 6      2578.149    22425286.367
  91827814.572 6      2008.938
  21261108.301    21261107.411   111727870.845 6      4297.622    21261108.881
  87060698.137 6      3348.805
 17  4  9 16 18  5.0000000  0  8G26G14G 6G25G12G29G 2G31             0.000035351
  24314785.727    24314785.707   127775061.507 4      7086.363    24314791.737
  99565003.344 4      5521.854
  24001246.131    24001244.241   126127392.401 4       866.635    24001247.051
  98281103.706 4       675.284
  24581372.866    24581369.516   129175991.435 1       430.111    24581373.546
 100656623.128 1       335.086
  20534887.032    20534886.322   107911629.593 7      2277.572    20534891.172
  84086953.032 7      1774.724
  22981152.937    22981152.997   120766791.146 5       253.771    22981156.097
  94104003.612 5       197.707
  20455963.300    20455963.300   107496871.454 7      5138.776    20455965.090
  83763800.913 7      4004.212
  22424796.317    22424795.447   117843091.098 6      2577.632    22424795.907
  91825806.024 6      2008.543
  21260290.653    21260289.753   111723573.717 6      4296.878    21260291.183
  87057349.725 6      3348.213
 17  4  9 16 18  6.0000000  0  8G26G14G 6G25G12G29G 2G31             0.000033061
  24313437.251    24313437.001   127767975.123 5      7086.223    24313443.441
  99559481.477 5      5521.724
  24001080.946    24001079.286   126126525.726 4       866.845    24001081.836
  98280428.355 4       675.473
  24581291.373    24581288.013   129175561.951 1       429.686    24581291.173
 100656288.495 1       334.711
  20534453.633    20534452.933   107909352.135 7      2277.196    20534457.813
  84085178.397 7      1774.445
  22981104.892    22981104.632   120766537.301 5       253.651    22981107.872
  94103805.807 5       197.657
  20454985.441    20454985.501   107491732.722 7      5138.467    20454987.261
  83759796.713 7      4004.014
  22424306.003    22424305.063   117840513.989 6      2576.774    22424305.483
  91823797.888 6      2007.876
  21259473.321    21259472.291   111719277.177 6      4296.208    21259473.621
  87054001.775 6      3347.697
 17  4  9 16 18  7.0000000  0  8G26G14G 6G25G12G29G 2G31             0.000030770
  24312088.793    24312088.593   127760888.737 5      7085.494    24312094.853
  99553959.623 5      5521.159
  24000915.761    24000914.371   126125659.257 4       866.632    24000916.891
  98279753.186 4       675.341
  24581210.065    24581205.865   129175132.773 1       429.557    24581209.535
 100655954.087 1       334.930
  20534020.386    20534019.666   107907075.099 7      2276.482    20534024.486
  84083404.083 7      1773.868
  22981056.184    22981056.384   120766283.528 5       254.156    22981059.724
  94103608.055 5       198.039
  20454007.843    20454007.723   107486594.437 7      5138.125    20454009.513
  83755792.859 6      4003.727
  22423815.705    22423814.775   117837937.314 6      2576.767    22423815.195
  91821790.089 6      2007.856
  21258656.067    21258654.887   111714981.151 6      4295.700    21258656.107
  87050654.224 6      3347.276
 17  4  9 16 18  8.0000000  0  8G26G14G 6G25G12G29G 2G31             0.000028480
  24310740.596    24310740.186   127753802.452 5      7085.780    24310746.486
  99548437.841 5      5521.396
  24000750.279    24000749.889   126124793.167 4       865.753    24000752.169
  98279078.293 4       674.638
  24581127.928    24581123.928   129174703.932 1       429.092    24581128.658
 100655619.869 1       334.540
  20533586.867    20533586.367   107904798.551 7      2276.421    20533591.227
  84081630.148 7      1773.840
  22981008.335    22981008.305   120766029.995 5       253.678    22981011.395
  94103410.500 5       197.657
  20453030.408    20453030.058   107481456.711 7      5137.479    20453031.798
  83751789.429 7      4003.235
  22423325.599    22423324.589   117835361.247 6      2575.647    22423324.889
  91819782.760 6      2006.989
  21257838.739    21257837.539   111710685.776 6      4295.227    21257838.719
  87047307.183 6      3346.936
 17  4  9 16 18  9.0000000  0  8G26G14G 6G25G12G29G 2G31             0.000026190
  24309392.300    24309391.860   127746716.195 5      7085.966    24309397.720
  99542916.073 5      5521.536
  24000586.028    24000585.118   126123927.332 4       865.496    24000587.438
  98278403.625 4       674.382
  24581046.530    24581043.740   129174275.359 1       427.332    24581046.780
 100655285.906 1       332.771
  20533153.584    20533153.194   107902522.500 7      2275.907    20533158.184
  84079856.603 7      1773.449
  22980960.257    22980960.137   120765776.610 5       253.390    22980963.307
  94103213.054 5       197.432
  20452052.472    20452052.392   107476319.452 7      5137.010    20452054.202
  83747786.380 7      4002.870
  22422835.419    22422834.489   117832785.644 6      2575.151    22422834.819
  91817775.796 6      2006.614
  21257021.382    21257020.282   111706390.978 6      4294.350    21257021.462
  87043960.590 6      3346.245
 17  4  9 16 18 10.0000000  0  9G26G14G 6G25G12G29G23G 2G31          0.000023900
  24308043.691    24308043.321   127739630.129 5      7086.101    24308049.431
  99537394.468 5      5521.625
  24000421.006    24000420.636   126123061.863 4       865.435    24000422.766
  98277729.240 4       674.351
  24580963.922    24580962.332   129173847.092 1       427.568    24580966.212
 100654952.201 1       333.010
  20532720.371    20532720.111   107900246.984 7      2274.954    20532725.141
  84078083.471 7      1772.701
  22980912.072    22980912.002   120765523.480 5       252.698    22980915.052
  94103015.803 5       196.934
  20451074.995    20451074.885   107471182.800 7      5136.105    20451076.715
  83743783.799 7      4002.166
  25347766.608                                        5709.675

  22422345.457    22422344.397   117830210.660 6      2574.528    22422344.857
  91815769.314 6      2006.114
  21256203.994    21256203.184   111702096.884 6      4293.632    21256204.324
  87040614.540 6      3345.693
 17  4  9 16 18 11.0000000  0  9G26G14G 6G25G12G29G23G 2G31          0.000021609
  24306695.119    24306694.809   127732544.219 5      7085.713    24306701.069
  99531872.977 5      5521.347
  24000256.129    24000255.899   126122196.784 4       865.403    24000258.149
  98277055.144 4       674.297
  24580882.549    24580879.649   129173419.140 1       428.534    24580884.729
 100654618.759 1       333.854
  20532287.644    20532287.184   107897971.962 7      2274.555    20532292.194
  84076310.730 7      1772.384
  22980864.288    22980863.898   120765270.553 5       253.214    22980867.088
  94102818.717 5       197.327
  20450097.554    20450097.444   107466046.692 6      5135.725    20450099.304
  83739781.640 6      4001.872
  25346680.684                                        5711.631

  22421855.585    22421854.475   117827636.205 6      2574.396    22421854.975
  91813763.245 6      2006.015
  21255386.808    21255386.178   111697803.407 6      4293.067    21255387.258
  87037268.975 6      3345.258
 17  4  9 16 18 12.0000000  0  9G26G14G 6G25G12G29G23G 2G31          0.000019319
  24305347.155    24305346.485   127725458.357 4      7085.511    24305352.475
  99526351.532 4      5521.175
  24000091.208    24000091.248   126121331.986 4       864.810    24000093.308
  98276381.265 4       673.884
  24580801.640    24580799.070   129172991.630 1       426.875    24580803.390
 100654285.631 1       332.699
  20531854.879    20531854.369   107895697.468 7      2274.219    20531859.439
  84074538.399 7      1772.125
  22980815.552    22980815.632   120765017.825 5       252.725    22980818.892
  94102621.782 5       196.923
  20449120.323    20449120.213   107460911.113 7      5135.405    20449121.993
  83735779.890 7      4001.627
  25345595.084                                        5711.513

  22421365.789    22421364.719   117825062.335 6      2573.588    22421365.229
  91811757.633 6      2005.394
  21254569.578    21254569.278   111693510.569 6      4292.565    21254570.358
  87033923.909 6      3344.848
 17  4  9 16 18 13.0000000  0  9G26G14G 6G25G12G29G23G 2G31          0.000017029
  24303998.867    24303998.327   127718372.629 4      7086.006    24304004.217
  99520830.192 4      5521.575
  23999926.754    23999926.774   126120467.524 4       864.366    23999928.744
  98275707.680 4       673.512
  24580720.273    24580717.783   129172564.391 1       426.652    24580723.283
 100653952.696 1       332.327
  20531422.379    20531421.689   107893423.474 7      2273.744    20531426.709
  84072766.455 7      1771.733
  22980767.425    22980767.535   120764765.290 5       252.710    22980770.845
  94102425.010 5       196.909
  20448143.658    20448143.168   107455776.095 7      5134.903    20448144.998
  83731778.580 7      4001.213
  25344509.165                                        5709.072

  22420876.215    22420875.045   117822489.032 6      2573.022    22420875.585
  91809752.464 6      2004.954
  21253752.572    21253752.452   111689218.369 6      4292.044    21253753.652
  87030579.341 6      3344.440
 17  4  9 16 18 14.0000000  0  9G26G14G 6G25G12G29G23G 2G31          0.000014738
  24302650.214    24302649.954   127711286.940 4      7085.350    24302655.794
  99515308.880 4      5521.069
  23999762.598    23999762.418   126119603.436 4       863.424    23999764.578
  98275034.364 4       672.864
  24580638.863    24580635.673   129172137.383 1       426.627    24580642.643
 100653620.002 1       332.403
  20530989.825    20530989.105   107891149.959 7      2273.392    20530994.075
  84070994.888 7      1771.470
  22980719.111    22980719.391   120764512.949 5       252.503    22980722.941
  94102228.369 5       196.749
  20447166.508    20447166.118   107450641.588 6      5134.292    20447167.868
  83727777.659 6      4000.743
  25343420.892                                        5709.409

  22420386.715    22420385.475   117819916.218 6      2572.604    22420385.855
  91807747.671 6      2004.605
  21252936.130    21252935.780   111684926.767 6      4291.328    21252937.010
  87027235.234 6      3343.894
 17  4  9 16 18 15.0000000  0  9G26G14G 6G25G12G29G23G 2G31          0.000012448
  24301301.910    24301301.620   127704201.340 4      7085.763    24301307.250
  99509787.641 4      5521.348
  23999598.536    23999597.976   126118739.626 4       863.410    23999600.146
  98274361.252 4       672.815
  24580557.675    24580551.515   129171710.686 1       426.803    24580560.415
 100653287.494 1       332.844
  20530557.191    20530556.481   107888876.917 7      2272.809    20530561.581
  84069223.687 7      1771.007
  22980671.180    22980671.410   120764260.764 5       252.074    22980674.930
  94102031.868 5       196.392
  20446189.501    20446189.161   107445507.575 6      5133.829    20446190.901
  83723777.127 6      4000.375
  25342334.373                                        5708.408

  22419897.407    22419896.197   117817343.956 6      2572.039    22419896.297
  91805743.309 6      2004.210
  21252119.325    21252119.125   111680635.762 6      4290.659    21252120.485
  87023891.594 6      3343.381
 17  4  9 16 18 16.0000000  0  9G26G14G 6G25G12G29G23G 2G31          0.000010158
  24299953.793    24299953.393   127697115.961 5      7085.514    24299958.993
  99504266.571 5      5521.178
  23999434.939    23999433.759   126117876.252 4       862.865    23999436.149
  98273688.489 4       672.374
  24580476.335    24580472.445   129171284.417 1       427.454    24580480.585
 100652955.357 1       333.066
  20530124.847    20530124.147   107886604.507 7      2272.167    20530129.157
  84067452.971 7      1770.524
  22980623.371    22980623.521   120764008.891 5       252.022    22980626.931
  94101835.606 5       196.374
  20445212.476    20445212.266   107440374.222 6      5133.006    20445214.046
  83719777.109 7      3999.751
  25341248.042                                        5707.740

  22419408.106    22419406.846   117814772.324 6      2571.379    22419406.806
  91803739.447 6      2003.663
  21251302.760    21251302.730   111676345.487 6      4290.284    21251304.000
  87020548.522 6      3343.086
 17  4  9 16 18 17.0000000  0  9G26G14G 6G25G12G29G23G 2G31          0.000007868
  24298605.718    24298605.108   127690030.703 5      7084.442    24298610.838
  99498745.601 5      5520.331
  23999271.019    23999269.609   126117013.149 4       863.073    23999271.889
  98273015.929 4       672.543
  24580395.909    24580391.429   129170858.631 1       425.837    24580400.039
 100652623.543 1       331.679
  20529692.484    20529691.814   107884332.566 7      2271.517    20529696.664
  84065682.624 7      1770.008
  22980575.304    22980575.634   120763757.183 5       251.581    22980578.934
  94101639.469 5       196.001
  20444235.717    20444235.527   107435241.365 6      5132.643    20444237.227
  83715777.483 6      3999.454
  25340163.208                                        5708.032

  22418918.809    22418917.459   117812201.252 6      2570.638    22418917.579
  91801736.013 6      2003.088
  21250486.214    21250486.244   111672055.840 6      4289.176    21250487.724
  87017205.943 6      3342.222
 17  4  9 16 18 18.0000000  0  9G26G14G 6G25G12G29G23G 2G31          0.000005577
  24297257.747    24297256.957   127682945.561 5      7085.145    24297262.737
  99493224.709 5      5520.916
  23999106.177    23999105.547   126116150.465 4       862.572    23999107.597
  98272343.702 4       672.155
  24580313.935    24580312.575   129170432.986 1       424.848    24580320.085
 100652291.864 1       330.950
  20529260.260    20529259.610   107882061.158 7      2271.189    20529264.430
  84063912.692 7      1769.754
  22980527.534    22980527.854   120763505.705 5       251.319    22980531.054
  94101443.519 5       195.822
  20443259.005    20443258.845   107430109.100 7      5131.810    20443260.625
  83711778.312 6      3998.804
  25339077.704                                        5706.923

  22418429.491    22418428.321   117809630.741 6      2570.304    22418428.461
  91799733.013 6      2002.821
  21249670.289    21249670.069   111667766.865 6      4288.728    21249671.579
  87013863.881 6      3341.875
 17  4  9 16 18 19.0000000  0  9G26G14G 6G25G12G29G23G 2G31          0.000003287
  24295909.851    24295908.841   127675860.446 5      7085.243    24295914.521
  99487703.832 5      5520.997
  23998941.784    23998941.274   126115288.008 4       861.996    23998943.424
  98271671.658 4       671.643
  24580233.289    24580233.569   129170007.718 1       425.595    24580239.029
 100651960.507 1       331.672
  20528827.925    20528827.435   107879790.163 7      2270.767    20528832.245
  84062143.091 7      1769.425
  22980479.740    22980479.970   120763254.358 5       251.545    22980483.250
  94101247.657 5       195.994
  20442282.383    20442282.313   107424977.278 7      5131.565    20442284.003
  83707779.496 7      3998.625
  25337991.859                                        5706.360

  22417940.235    22417939.255   117807060.712 6      2569.770    22417939.345
  91797730.399 6      2002.437
  21248854.141    21248853.951   111663478.411 6      4288.181    21248855.521
  87010522.227 6      3341.440
 17  4  9 16 18 20.0000000  0  9G26G14G 6G25G12G29G23G 2G31          0.000000997
  24294561.472    24294560.692   127668775.403 5      7084.984    24294566.232
  99482183.018 5      5520.797
  23998777.496    23998777.256   126114425.857 4       862.014    23998779.356
  98270999.851 4       671.716
  24580152.145    24580152.675   129169582.722 1       424.198    24580156.255
 100651629.353 1       330.597
  20528395.617    20528395.287   107877519.658 7      2270.277    20528400.197
  84060373.868 7      1769.050
  22980431.883    22980432.093   120763003.202 5       251.230    22980435.453
  94101051.954 5       195.779
  20441305.937    20441305.907   107419845.980 6      5130.938    20441307.597
  83703781.086 6      3998.128
  25336905.803                                        5706.816

  22417451.197    22417450.277   117804491.236 6      2569.306    22417450.447
  91795728.200 6      2002.061
  21248038.091    21248038.031   111659190.583 6      4287.541    21248039.561
  87007181.069 6      3340.960
 17  4  9 16 18 21.0000000  0  9G26G14G 6G25G12G29G23G 2G31         -0.000001294
  24293212.913    24293212.383   127661690.478 5      7084.516    24293217.993
  99476662.299 5      5520.383
  23998613.246    23998613.156   126113564.034 4       861.468    23998615.716
  98270328.313 4       671.235
  24580071.050    24580072.290   129169158.020 1       424.679    24580073.980
 100651298.393 1       330.820
  20527963.707    20527963.367   107875249.691 7      2269.440    20527968.287
  84058605.054 7      1768.375
  22980384.327    22980384.257   120762752.239 5       250.784    22980387.657
  94100856.395 5       195.409
  20440329.747    20440329.607   107414715.240 6      5130.306    20440331.157
  83699783.101 6      3997.627
  25335818.599                                        5704.616

  22416962.450    22416961.430   117801922.290 6      2568.508    22416961.520
  91793726.424 6      2001.442
  21247222.246    21247222.286   111654903.391 6      4286.644    21247223.776
  87003840.403 6      3340.230
 17  4  9 16 18 22.0000000  0  9G26G14G 6G25G12G29G23G 2G31         -0.000003584
  24291864.914    24291864.254   127654605.786 5      7084.706    24291869.734
  99471141.758 5      5520.601
  23998449.700    23998449.140   126112702.683 4       861.365    23998451.720
  98269657.128 4       671.176
  24579990.342    24579992.012   129168733.826 1       424.225    24579992.272
 100650967.806 1       330.720
  20527531.896    20527531.516   107872980.329 7      2268.814    20527536.486
  84056836.719 7      1767.920
  22980336.497    22980336.597   120762501.596 5       250.984    22980339.727
  94100661.083 5       195.584
  20439353.472    20439353.342   107409585.141 7      5129.714    20439354.932
  83695785.621 6      3997.183
  25334732.391                                        5705.328

  22416473.599    22416472.709   117799354.031 6      2567.684    22416472.769
  91791725.175 6      2000.797
  21246406.656    21246406.636   111650616.941 6      4286.347    21246408.046
  87000500.306 6      3340.004
 17  4  9 16 18 23.0000000  0  9G26G14G 6G25G12G29G23G 2G31         -0.000005874
  24290517.087    24290516.087   127647521.155 5      7084.746    24290521.707
  99465621.273 5      5520.595
  23998286.088    23998285.518   126111841.670 4       861.019    23998287.778
  98268986.204 4       670.958
  24579911.189    24579909.399   129168309.846 1       424.380    24579911.619
 100650637.410 1       330.631
  20527100.233    20527099.763   107870711.447 7      2268.616    20527104.823
  84055068.756 7      1767.759
  22980288.777    22980288.987   120762251.133 5       250.231    22980292.217
  94100465.916 5       195.015
  20438377.483    20438377.253   107404455.562 7      5129.467    20438378.903
  83691788.538 7      3997.002
  25333646.048                                        5704.766

  22415984.962    22415983.992   117796786.286 6      2567.448    22415984.282
  91789724.333 6      2000.612
  21245591.206    21245591.036   111646331.113 6      4285.966    21245592.476
  86997160.699 6      3339.722
 17  4  9 16 18 24.0000000  0  9G26G14G 6G25G12G29G23G 2G31         -0.000008164
  24289168.634    24289167.884   127640436.629 5      7084.812    24289173.374
  99460100.857 5      5520.620
  23998122.192    23998121.702   126110980.967 4       860.272    23998123.882
  98268315.519 4       670.322
  24579831.086    24579830.066   129167886.230 1       423.971    24579827.766
 100650307.296 1       330.497
  20526668.684    20526668.094   107868443.050 7      2268.378    20526673.194
  84053301.178 7      1767.575
  22980241.408    22980241.328   120762000.883 5       250.427    22980244.468
  94100270.911 5       195.159
  20437401.630    20437401.200   107399326.526 6      5128.745    20437402.930
  83687791.889 6      3996.438
  25332561.150                                        5704.765

  22415496.259    22415495.499   117794219.073 6      2567.116    22415495.849
  91787723.909 6      2000.373
  21244775.924    21244775.734   111642045.920 6      4284.765    21244777.004
  86993821.588 6      3338.789
 17  4  9 16 18 25.0000000  0  9G26G14G 6G25G12G29G23G 2G31         -0.000010455
  24287820.639    24287819.739   127633352.240 5      7084.795    24287825.209
  99454580.558 5      5520.606
  23997958.369    23997958.089   126110120.588 4       859.963    23997959.879
  98267645.095 4       670.080
  24579749.457    24579750.697   129167462.894 1       423.095    24579746.437
 100649977.447 1       329.611
  20526237.191    20526236.521   107866175.160 7      2267.618    20526241.551
  84051533.993 7      1766.964
  22980193.846    22980193.726   120761750.807 5       249.432    22980197.076
  94100076.059 5       194.341
  20436425.538    20436425.308   107394197.999 6      5128.067    20436427.018
  83683795.637 7      3995.874
  25331475.174                                        5704.748

  22415007.599    22415007.099   117791652.418 6      2566.391    22415007.509
  91785723.920 6      1999.783
  21243960.193    21243960.393   111637761.321 6      4284.644    21243961.573
  86990482.943 6      3338.667
 17  4  9 16 18 26.0000000  0  9G26G14G 6G25G12G29G23G 2G31         -0.000012745
  24286473.120    24286471.690   127626267.989 5      7083.830    24286477.330
  99449060.359 5      5519.893
  23997794.734    23997794.354   126109260.580 4       859.758    23997796.194
  98266974.952 4       669.942
  24579669.921    24579669.831   129167039.946 1       423.192    24579667.341
 100649647.892 1       329.780
  20525805.543    20525805.013   107863907.822 7      2267.333    20525810.083
  84049767.239 7      1766.774
  22980145.791    22980146.181   120761500.950 5       249.597    22980149.641
  94099881.359 5       194.503
  20435449.630    20435449.460   107389070.042 7      5127.640    20435451.240
  83679799.830 6      3995.561
  25330388.046                                        5703.123

  22414519.246    22414518.696   117789086.357 6      2566.165    22414519.086
  91783724.392 6      1999.614
  21243144.900    21243145.170   111633477.417 6      4283.165    21243146.320
  86987144.839 6      3337.556
 17  4  9 16 18 27.0000000  0  9G26G14G 6G25G12G29G23G 2G31         -0.000015035
  24285125.079    24285123.639   127619183.756 5      7084.378    24285129.099
  99443540.188 5      5520.316
  23997631.306    23997630.736   126108400.848 4       860.198    23997632.456
  98266305.028 4       670.268
  24579588.600    24579587.930   129166617.302 1       421.972    24579588.610
 100649318.565 1       328.934
  20525374.039    20525373.649   107861640.939 7      2266.892    20525378.749
  84048000.838 7      1766.413
  22980098.315    22980098.675   120761251.298 5       249.577    22980101.955
  94099686.816 5       194.488
  20434474.000    20434473.800   107383942.623 7      5127.185    20434475.540
  83675804.433 6      3995.195
  25329304.485                                        5702.724

  22414031.152    22414030.512   117786520.811 6      2565.367    22414030.802
  91781725.267 6      1999.006
  21242329.893    21242330.123   111629194.109 6      4283.192    21242331.243
  86983807.190 6      3337.555
 17  4  9 16 18 28.0000000  0  9G26G14G 6G25G12G29G23G 2G31         -0.000017326
  24283776.918    24283775.518   127612099.577 5      7084.331    24283780.798
  99438020.042 5      5520.252
  23997467.433    23997467.123   126107541.377 4       859.581    23997468.923
  98265635.317 4       669.799
  24579507.191    24579506.971   129166194.848 1       422.353    24579509.231
 100648989.369 1       328.919
  20524942.924    20524942.404   107859374.506 7      2266.337    20524947.504
  84046234.787 7      1766.002
  22980051.021    22980051.091   120761001.727 5       249.692    22980054.461
  94099492.350 5       194.566
  20433498.377    20433498.157   107378815.646 7      5126.515    20433499.897
  83671809.392 7      3994.703
  25328219.300                                        5701.496

  22413542.973    22413542.503   117783955.733 6      2565.132    22413542.503
  91779726.504 6      1998.808
  21241514.999    21241515.159   111624911.329 6      4282.342    21241516.329
  86980469.960 6      3336.894
 17  4  9 16 18 29.0000000  0  9G26G14G 6G25G12G29G23G 2G31         -0.000019616
  24282429.145    24282427.615   127605015.512 5      7083.653    24282432.775
  99432499.995 5      5519.721
  23997304.520    23997303.910   126106682.263 4       858.721    23997305.690
  98264965.874 4       669.138
  24579427.137    24579425.117   129165772.795 1       422.085    24579429.137
 100648660.476 1       328.790
  20524512.175    20524511.335   107857108.545 7      2265.605    20524516.285
  84044469.103 7      1765.419
  22980003.943    22980003.803   120760752.374 5       248.888    22980006.993
  94099298.049 5       193.938
  20432522.940    20432522.770   107373689.177 7      5126.139    20432524.430
  83667814.740 6      3994.408
  25327135.084                                        5702.030

  22413055.033    22413054.493   117781391.192 6      2564.045    22413054.483
  91777728.166 6      1997.961
  21240699.704    21240700.194   111620629.172 6      4282.094    21240701.544
  86977133.214 6      3336.713
 17  4  9 16 18 30.0000000  0  9G26G14G 6G25G12G29G23G 2G31         -0.000021906
  24281081.063    24281079.633   127597931.529 5      7084.011    24281084.853
  99426980.004 5      5520.013
  23997140.802    23997140.652   126105823.471 4       858.705    23997142.332
  98264296.681 4       669.136
  24579346.692    24579345.672   129165351.070 1       421.054    24579349.012
 100648331.856 1       328.095
  20524081.009    20524080.309   107854843.110 7      2265.454    20524085.229
  84042703.827 7      1765.295
  22979957.096    22979956.566   120760503.226 5       249.146    22979959.516
  94099103.912 5       194.161
  20431547.332    20431547.252   107368563.289 7      5125.857    20431549.012
  83663820.542 7      3994.169
  25326049.834                                        5701.491

  22412566.997    22412566.527   117778827.231 6      2563.900    22412566.547
  91775730.271 6      1997.869
  21239885.073    21239885.503   111616347.681 6      4281.400    21239886.723
  86973796.984 6      3336.160
 17  4  9 16 18 31.0000000  0  9G26G14G 6G25G12G29G23G 2G31         -0.000024197
  24279732.574    24279731.664   127590847.710 5      7083.439    24279736.854
  99421460.137 5      5519.577
  23996977.896    23996977.256   126104965.038 4       858.195    23996979.046
  98263627.752 4       668.725
  24579266.909    24579264.839   129164929.557 1       421.399    24579270.619
 100648003.426 1       328.246
  20523649.837    20523649.257   107852578.201 7      2264.546    20523654.237
  84040938.964 7      1764.584
  22979909.648    22979909.258   120760254.294 5       248.692    22979912.208
  94098909.939 5       193.796
  20430572.109    20430571.989   107363437.936 7      5124.969    20430573.709
  83659826.762 7      3993.493
  25324965.259                                        5700.457

  22412079.422    22412078.852   117776263.846 6      2563.004    22412078.662
  91773732.828 6      1997.144
  21239070.511    21239070.851   111612066.824 6      4280.614    21239072.131
  86970461.251 6      3335.557
 17  4  9 16 18 32.0000000  0  9G26G14G 6G25G12G29G23G 2G31         -0.000026487
  24278384.625    24278383.405   127583763.970 5      7083.703    24278388.625
  99415940.347 5      5519.789
  23996814.594    23996813.614   126104106.907 4       857.924    23996815.724
  98262959.069 4       668.510
  24579185.482    24579182.832   129164508.423 1       421.429    24579191.462
 100647675.256 1       328.495
  20523219.032    20523218.322   107850313.777 7      2264.237    20523223.292
  84039174.477 7      1764.353
  22979862.667    22979861.997   120760005.555 5       248.716    22979864.907
  94098716.122 5       193.784
  20429596.653    20429596.663   107358313.115 7      5124.483    20429598.533
  83655833.401 7      3993.098
  25323879.963                                        5700.329

  22411591.964    22411591.214   117773700.991 6      2562.493    22411590.884
  91771735.793 6      1996.749
  21238256.177    21238256.427   111607786.608 6      4279.918    21238257.617
  86967126.010 6      3335.008
 17  4  9 16 18 33.0000000  0  9G26G14G 6G25G12G29G23G 2G31         -0.000028777
  24277036.617    24277035.397   127576680.297 5      7083.329    24277040.777
  99410420.602 5      5519.472
  23996650.685    23996650.355   126103249.070 4       857.674    23996652.315
  98262290.619 4       668.327
  24579105.695    24579102.565   129164087.587 1       421.247    24579111.535
 100647347.318 1       328.409
  20522788.236    20522787.566   107848049.823 7      2263.692    20522792.516
  84037410.350 7      1763.925
  22979815.050    22979814.700   120759756.948 5       248.725    22979817.370
  94098522.397 5       193.802
  20428621.641    20428621.551   107353188.792 7      5124.418    20428623.381
  83651840.425 7      3993.058
  25322795.555    25322797.815   133072199.149 1      5700.528    25322798.725
 103692635.585 1      4441.965
  22411104.107    22411103.627   117771138.643 6      2562.123    22411103.387
  91769739.158 6      1996.461
  21237441.630    21237442.060   111603506.978 6      4279.293    21237443.240
  86963791.220 6      3334.521
 17  4  9 16 18 34.0000000  0  9G26G14G 6G25G12G29G23G 2G31         -0.000031068
  24275687.984    24275687.414   127569596.737 5      7084.030    24275692.814
  99404900.957 5      5520.019
  23996488.179    23996487.239   126102391.538 4       857.446    23996489.239
  98261622.428 4       668.179
  24579025.316    24579023.636   129163666.978 1       421.018    24579029.396
 100647019.585 1       327.935
  20522357.586    20522356.876   107845786.350 7      2263.436    20522361.776
  84035646.607 7      1763.706
  22979767.881    22979767.601   120759508.557 5       248.557    22979770.151
  94098328.842 5       193.674
  20427646.788    20427646.588   107348065.021 7      5123.629    20427648.358
  83647847.877 7      3992.448
  25321710.350    25321712.980   133066499.297 1      5700.083    25321713.350
 103688194.140 1      4441.667
  22410616.571    22410616.041   117768576.841 6      2561.637    22410615.951
  91767742.946 6      1996.085
  21236627.145    21236627.735   111599227.935 6      4278.664    21236628.895
  86960456.911 6      3334.030
 17  4  9 16 18 35.0000000  0  9G26G14G 6G25G12G29G23G 2G31         -0.000033358
  24274339.338    24274339.208   127562513.232 5      7083.766    24274344.958
  99399381.351 5      5519.832
  23996324.915    23996324.215   126101534.359 4       856.720    23996326.215
  98260954.488 4       667.564
  24578946.610    24578944.470   129163246.832 1       419.572    24578949.260
 100646692.211 1       326.994
  20521926.777    20521926.277   107843523.383 7      2262.631    20521931.117
  84033883.259 7      1763.090
  22979720.866    22979720.336   120759260.381 5       248.262    22979722.616
  94098135.458 5       193.463
  20426671.792    20426671.602   107342941.784 7      5123.062    20426673.442
  83643855.739 7      3991.992
  25320625.741    25320628.381   133060799.945 1      5699.166    25320628.051
 103683753.118 1      4440.854
  22410129.112    22410128.662   117766015.602 6      2560.953    22410128.532
  91765747.175 6      1995.543
  21235812.989    21235813.599   111594949.542 6      4277.784    21235814.729
  86957123.097 6      3333.345
 17  4  9 16 18 36.0000000  0  9G26G14G 6G25G12G29G23G 2G31         -0.000035648
  24272991.884    24272991.294   127555429.867 5      7083.150    24272997.004
  99393861.855 5      5519.325
  23996161.445    23996160.995   126100677.514 4       856.784    23996163.275
  98260286.815 4       667.599
  24578867.183    24578863.433   129162826.907 1       419.730    24578868.753
 100646364.990 1       327.091
  20521496.376    20521495.726   107841260.938 7      2262.284    20521500.556
  84032120.319 7      1762.812
  22979673.885    22979673.115   120759012.384 5       247.602    22979675.565
  94097942.216 5       192.936
  20425697.092    20425696.772   107337819.093 7      5122.487    20425698.592
  83639864.025 7      3991.552
  25319540.919    25319543.239   133055100.989 1      5699.427    25319543.249
 103679312.372 1      4441.112
  22409641.672    22409641.392   117763454.900 6      2560.400    22409641.102
  91763751.823 6      1995.107
  21234999.083    21234999.453   111590671.784 6      4277.677    21235000.593
  86953789.785 6      3333.245
 17  4  9 16 18 37.0000000  0  9G26G14G 6G25G12G29G23G 2G31         -0.000037939
  24271644.418    24271643.538   127548346.642 5      7083.046    24271648.998
  99388342.451 5      5519.239
  23995999.290    23995998.020   126099821.026 4       855.884    23996000.220
  98259619.415 4       666.945
  24578787.720    24578785.750   129162407.400 1       419.428    24578788.570
 100646038.070 1       326.841
  20521065.850    20521065.250   107838999.016 7      2261.622    20521070.170
  84030357.782 7      1762.302
  22979626.034    22979625.904   120758764.623 5       247.738    22979628.374
  94097749.159 5       193.028
  20424722.237    20424721.997   107332696.951 7      5121.778    20424723.847
  83635872.750 7      3991.016
  25318456.794    25318458.564   133049402.644 1      5697.592    25318458.304
 103674872.085 1      4439.695
  22409154.429    22409154.149   117760894.776 6      2559.620    22409153.949
  91761756.932 6      1994.465
  21234185.278    21234185.508   111586394.686 6      4277.000    21234186.698
  86950456.982 6      3332.743
 17  4  9 16 18 38.0000000  0  9G26G14G 6G25G12G29G23G 2G31         -0.000040229
  24270296.567    24270295.857   127541263.491 5      7082.806    24270301.017
  99382823.115 5      5519.077
  23995836.430    23995835.380   126098964.798 4       856.202    23995837.620
  98258952.222 4       667.162
  24578706.623    24578705.323   129161988.117 1       419.823    24578709.923
 100645711.378 1       326.964
  20520635.502    20520634.882   107836737.563 7      2261.410    20520639.782
  84028595.603 7      1762.134
  22979578.412    22979578.672   120758517.038 5       247.298    22979581.172
  94097556.228 5       192.720
  20423747.566    20423747.356   107327575.293 6      5121.415    20423749.286
  83631881.846 6      3990.694
  25317373.230    25317373.820   133043704.616 1      5697.970    25317373.700
 103670432.060 1      4440.034
  22408667.429    22408667.029   117758335.156 6      2559.443    22408666.849
  91759762.426 6      1994.385
  21233371.562    21233371.702   111582118.176 6      4276.276    21233372.892
  86947124.636 6      3332.176
 17  4  9 16 18 39.0000000  0  9G26G14G 6G25G12G29G23G 2G31         -0.000042519
  24268948.588    24268948.038   127534180.331 5      7082.881    24268953.288
  99377303.783 5      5519.125
  23995673.515    23995672.495   126098108.845 4       855.784    23995674.605
  98258285.252 4       666.876
  24578627.070    24578626.400   129161569.076 1       418.953    24578628.420
 100645384.850 1       326.555
  20520205.621    20520204.751   107834476.525 7      2260.901    20520209.551
  84026833.758 7      1761.764
  22979531.180    22979531.500   120758269.569 5       246.872    22979534.160
  94097363.384 5       192.341
  20422772.545    20422772.785   107322454.125 7      5120.902    20422774.725
  83627891.324 7      3990.313
  25316289.412    25316288.482   133038006.973 1      5696.871    25316289.292
 103665992.341 1      4439.164
  22408180.256    22408179.976   117755776.037 6      2558.644    22408179.886
  91757768.304 6      1993.728
  21232557.994    21232558.004   111577842.231 6      4275.442    21232559.124
  86943792.735 6      3331.516
 17  4  9 16 18 40.0000000  0  9G26G14G 6G25G12G29G23G 2G31         -0.000044810
  24267600.412    24267600.212   127527097.436 5      7082.518    24267605.432
  99371784.640 5      5518.849
  23995510.640    23995509.730   126097253.326 4       855.440    23995511.690
  98257618.614 4       666.544
  24578547.406    24578545.976   129161150.549 1       418.475    24578548.006
 100645058.699 1       326.071
  20519775.182    20519774.582   107832216.113 7      2260.260    20519779.372
  84025072.398 7      1761.235
  22979484.357    22979484.447   120758022.392 5       247.145    22979487.247
  94097170.781 5       192.593
  20421798.240    20421798.380   107317333.603 7      5120.249    20421800.350
  83623901.308 7      3989.798
  25315203.737    25315203.717   133032309.855 1      5696.582    25315205.237
 103661553.059 1      4438.976
  22407693.825    22407693.135   117753217.562 6      2558.493    22407692.875
  91755774.686 6      1993.630
  21231744.156    21231744.366   111573567.011 6      4274.948    21231745.576
  86940461.399 6      3331.128
 17  4  9 16 18 41.0000000  0  9G26G14G 6G25G12G29G23G 2G31         -0.000047100
  24266252.785    24266252.225   127520014.629 5      7082.849    24266257.595
  99366265.565 5      5519.114
  23995348.411    23995346.881   126096398.162 4       855.079    23995349.041
  98256952.258 4       666.325
  24578468.995    24578466.745   129160732.289 1       417.853    24578467.755
 100644732.751 1       325.533
  20519345.251    20519344.511   107829956.206 7      2259.488    20519349.271
  84023311.434 7      1760.637
  22979437.444    22979437.534   120757775.411 5       246.955    22979440.284
  94096978.330 5       192.441
  20420823.939    20420824.139   107312213.609 7      5119.803    20420825.929
  83619911.697 7      3989.453
  25314119.536    25314119.566   133026613.307 1      5695.858    25314120.556
 103657114.195 1      4438.276
  22407206.848    22407206.398   117750659.640 6      2557.375    22407206.138
  91753781.502 6      1992.760
  21230930.905    21230930.995   111569292.445 6      4274.172    21230932.165
  86937130.564 6      3330.520
 17  4  9 16 18 42.0000000  0  9G26G14G 6G25G12G29G23G 2G31         -0.000049391
  24264905.453    24264904.423   127512931.935 5      7082.452    24264909.983
  99360746.580 5      5518.805
  23995185.224    23995183.984   126095543.336 4       854.720    23995186.174
  98256286.158 4       665.994
  24578389.532    24578386.692   129160314.347 1       417.934    24578386.642
 100644407.127 1       325.526
  20518915.372    20518914.612   107827696.808 7      2258.716    20518919.372
  84021550.867 7      1760.032
  22979390.465    22979390.655   120757528.647 5       246.836    22979393.325
  94096786.045 5       192.325
  20419850.025    20419850.035   107307094.161 6      5119.160    20419851.775
  83615922.523 6      3988.957
  25313036.551    25313035.211   133020917.218 1      5696.185    25313036.031
 103652675.666 1      4438.629
  22406720.361    22406719.661   117748102.263 6      2556.942    22406719.531
  91751788.742 6      1992.415
  21230117.474    21230117.734   111565018.481 6      4273.970    21230118.844
  86933800.199 6      3330.365
 17  4  9 16 18 43.0000000  0  9G26G14G 6G25G12G29G23G 2G31         -0.000051681
  24263557.585    24263556.715   127505849.322 5      7081.757    24263562.385
  99355227.678 5      5518.208
  23995022.754    23995021.204   126094688.778 4       854.420    23995023.634
  98255620.268 4       665.752
  24578309.471    24578306.361   129159896.649 1       417.473    24578305.271
 100644081.693 1       325.154
  20518485.378    20518484.698   107825437.849 7      2258.624    20518489.468
  84019790.640 7      1759.950
  22979343.652    22979343.762   120757282.040 5       246.374    22979346.192
  94096593.877 5       191.947
  20418875.941    20418875.861   107301975.202 7      5118.942    20418877.751
  83611933.725 7      3988.773
  25311951.634    25311951.614   133015221.529 1      5694.843    25311952.364
 103648237.480 1      4437.476
  22406233.901    22406233.051   117745545.384 6      2556.799    22406233.021
  91749796.370 6      1992.313
  21229304.328    21229304.588   111560745.126 6      4273.310    21229305.618
  86930470.316 6      3329.816
 17  4  9 16 18 44.0000000  0  9G26G14G 6G25G12G29G23G 2G31         -0.000053971
  24262209.618    24262208.888   127498766.682 5      7082.429    24262214.448
  99349708.731 5      5518.757
  23994860.298    23994858.818   126093834.497 4       853.863    23994861.018
  98254954.592 4       665.343
  24578229.136    24578227.206   129159479.265 1       417.362    24578226.776
 100643756.443 1       325.355
  20518055.406    20518054.896   107823179.375 7      2258.131    20518059.666
  84018030.785 7      1759.582
  22979297.082    22979296.982   120757035.571 5       246.662    22979299.272
  94096401.818 5       192.235
  20417901.784    20417901.834   107296856.748 7      5118.181    20417903.844
  83607945.317 6      3988.190
  25310867.346    25310867.306   133009526.278 2      5695.721    25310868.366
 103643799.592 1      4438.222
  22405747.346    22405746.546   117742989.047 6      2555.826    22405746.506
  91747804.416 6      1991.521
  21228491.222    21228491.572   111556472.369 6      4272.305    21228492.432
  86927140.896 6      3329.074
 17  4  9 16 18 45.0000000  0  9G26G14G 6G25G12G29G23G 2G31         -0.000056262
  24260861.643    24260861.293   127491684.244 5      7082.209    24260866.653
  99344189.956 5      5518.592
  23994697.678    23994696.558   126092980.543 4       853.539    23994698.198
  98254289.172 4       665.058
  24578150.138    24578148.148   129159062.260 1       417.382    24578148.318
 100643431.475 1       325.231
  20517625.663    20517625.153   107820921.378 7      2257.754    20517629.953
  84016271.313 7      1759.276
  22979250.428    22979250.228   120756789.316 5       246.316    22979252.468
  94096209.930 5       191.919
  20416928.155    20416927.935   107291738.838 7      5117.688    20416929.965
  83603957.334 7      3987.801
  25309784.519    25309783.419   133003831.456 2      5695.226    25309784.869
 103639362.060 2      4437.809
  22405261.012    22405260.272   117740433.231 6      2555.813    22405260.032
  91745812.872 6      1991.527
  21227678.710    21227678.640   111552200.235 6      4271.683    21227679.450
  86923811.958 6      3328.580
 17  4  9 16 18 46.0000000  0  9G26G14G 6G25G12G29G23G 2G31         -0.000058552
  24259514.220    24259513.480   127484601.883 5      7082.100    24259518.940
  99338671.229 5      5518.515
  23994535.152    23994534.062   126092126.962 4       853.313    23994535.722
  98253624.033 4       664.934
  24578070.948    24578068.298   129158645.524 1       416.405    24578069.608
 100643106.751 1       324.443
  20517196.018    20517195.538   107818663.900 7      2257.224    20517200.378
  84014512.240 7      1758.884
  22979203.558    22979203.418   120756543.215 5       246.357    22979205.558
  94096018.168 5       191.937
  20415954.546    20415954.076   107286621.432 6      5117.109    20415956.176
  83599969.747 7      3987.350
  25308701.051    25308700.211   132998137.108 2      5693.924    25308701.691
 103634924.924 2      4436.745
  22404774.806    22404774.006   117737877.979 6      2554.845    22404773.706
  91743821.774 6      1990.821
  21226865.816    21226865.706   111547928.721 6      4270.887    21226866.656
  86920483.511 6      3327.967
 17  4  9 16 18 47.0000000  0  9G26G14G 6G25G12G29G23G 2G31         -0.000060843
  24258166.692    24258165.842   127477519.647 5      7081.828    24258171.312
  99333152.601 5      5518.308
  23994372.596    23994371.516   126091273.676 4       853.361    23994373.406
  98252959.117 4       664.991
  24577992.142    24577990.152   129158229.161 1       415.823    24577991.732
 100642782.321 1       324.028
  20516766.347    20516766.007   107816406.913 7      2256.849    20516770.927
  84012753.549 7      1758.583
  22979156.735    22979156.665   120756297.364 5       245.856    22979158.855
  94095826.606 5       191.564
  20414980.686    20414980.396   107281504.599 6      5116.566    20414982.446
  83595982.612 7      3986.930
  25307617.269    25307616.179   132992443.265 2      5693.608    25307617.969
 103630488.171 2      4436.679
  22404288.664    22404287.854   117735323.256 6      2554.654    22404287.504
  91741831.079 6      1990.628
  21226053.015    21226053.015   111543657.848 6      4270.590    21226053.995
  86917155.556 6      3327.732
 17  4  9 16 18 48.0000000  0  9G26G14G 6G25G12G29G23G 2G31         -0.000063133
  24256819.044    24256818.224   127470437.488 5      7082.496    24256823.774
  99327634.037 5      5518.798
  23994210.150    23994209.180   126090420.738 4       852.807    23994211.340
  98252294.489 4       664.505
  24577911.909    24577910.189   129157813.094 1       415.378    24577911.389
 100642458.099 1       323.510
  20516337.269    20516336.669   107814150.471 7      2255.995    20516341.589
  84010995.282 7      1757.911
  22979109.922    22979109.962   120756051.733 5       245.640    22979112.042
  94095635.198 5       191.430
  20414007.082    20414006.802   107276388.315 7      5116.229    20414008.822
  83591995.892 6      3986.667
  25306534.358    25306532.638   132986749.865 2      5692.842    25306534.578
 103626051.765 2      4435.977
  22403802.415    22403801.935   117732769.145 6      2554.069    22403801.635
  91739840.853 6      1990.196
  21225240.326    21225240.356   111539387.627 6      4270.219    21225241.456
  86913828.111 6      3327.441
 17  4  9 16 18 49.0000000  0  9G26G14G 6G25G12G29G23G 2G31         -0.000065424
  24255471.260    24255470.440   127463355.461 5      7082.347    24255476.040
  99322115.581 5      5518.700
  23994047.558    23994046.978   126089568.110 4       852.417    23994048.988
  98251630.112 4       664.202
  24577833.874    24577831.964   129157397.301 1       415.988    24577832.894
 100642134.147 1       324.096
  20515907.896    20515907.426   107811894.514 7      2255.583    20515912.336
  84009237.390 7      1757.621
  22979063.611    22979063.401   120755806.258 5       245.425    22979065.321
  94095443.917 5       191.228
  20413033.393    20413033.243   107271272.556 6      5115.586    20413035.263
  83588009.588 6      3986.190
  25305450.557    25305449.177   132981056.952 2      5692.684    25305451.247
 103621615.722 2      4435.905
  22403316.555    22403316.015   117730215.524 6      2553.779    22403315.735
  91737851.022 6      1989.979
  21224427.958    21224427.878   111535118.023 6      4269.592    21224429.028
  86910501.147 6      3326.977
 17  4  9 16 18 50.0000000  0  9G26G14G 6G25G12G29G23G 2G31         -0.000067714
  24254123.185    24254122.705   127456273.572 5      7081.853    24254128.355
  99316597.220 5      5518.331
  23993885.077    23993884.737   126088715.839 4       851.901    23993886.517
  98250966.005 4       663.789
  24577754.161    24577754.451   129156981.880 1       415.526    24577754.971
 100641810.419 1       323.833
  20515478.751    20515478.251   107809639.076 7      2255.215    20515483.131
  84007479.900 7      1757.334
  22979017.119    22979016.799   120755561.012 5       245.357    22979018.559
  94095252.810 5       191.195
  20412060.189    20412059.859   107266157.368 7      5114.879    20412061.749
  83584023.728 7      3985.638
  25304367.114    25304366.414   132975364.438 2      5692.043    25304366.994
 103617180.011 2      4435.362
  22402830.840    22402830.220   117727662.518 6      2552.941    22402829.870
  91735861.669 6      1989.298
  21223615.759    21223615.559   111530849.083 6      4268.617    21223616.749
  86907174.694 6      3326.208
 17  4  9 16 18 51.0000000  0  9G26G14G 6G25G12G29G23G 2G31         -0.000070004
  24252775.745    24252775.025   127449191.771 5      7081.281    24252780.675
  99311078.931 5      5517.891
  23993722.881    23993722.651   126087863.877 4       851.594    23993724.251
  98250302.148 4       663.583
  24577675.869    24577675.099   129156566.753 1       414.767    24577675.509
 100641486.972 1       323.236
  20515049.638    20515049.078   107807384.102 7      2254.601    20515053.998
  84005722.784 7      1756.816
  22978970.213    22978970.103   120755315.936 5       244.827    22978971.863
  94095061.838 5       190.756
  20411086.895    20411086.535   107261042.679 7      5114.219    20411088.485
  83580038.256 6      3985.094
  25303283.945    25303283.295   132969672.467 2      5691.999    25303283.805
 103612744.718 2      4435.374
  22402345.038    22402344.388   117725110.029 6      2552.048    22402344.098
  91733872.716 6      1988.594
  21222803.592    21222803.402   111526580.741 6      4268.067    21222804.642
  86903848.716 6      3325.753
 17  4  9 16 18 52.0000000  0  9G26G14G 6G25G12G29G23G 2G31         -0.000072295
  24251428.232    24251427.462   127442110.030 5      7081.941    24251433.092
  99305560.690 5      5518.407
  23993560.969    23993560.369   126087012.185 4       851.344    23993562.279
  98249638.498 4       663.390
  24577597.351    24577595.711   129156151.980 1       414.702    24577596.751
 100641163.716 1       323.129
  20514620.810    20514620.080   107805129.652 7      2254.044    20514625.020
  84003966.066 7      1756.404
  22978923.525    22978923.665   120755071.080 5       244.716    22978925.165
  94094871.044 5       190.660
  20410113.579    20410113.389   107255928.542 7      5113.721    20410115.379
  83576053.217 7      3984.733
  25302201.139    25302199.939   132963980.941 2      5690.680    25302200.849
 103608309.770 2      4434.251
  22401859.346    22401858.796   117722558.069 6      2551.529    22401858.436
  91731884.180 6      1988.193
  21221991.361    21221991.281   111522313.018 6      4267.683    21221992.471
  86900523.220 6      3325.479
 17  4  9 16 18 53.0000000  0  9G26G14G 6G25G12G29G23G 2G31         -0.000074585
  24250080.550    24250079.880   127435028.396 5      7081.116    24250085.370
  99300042.556 5      5517.757
  23993399.078    23993398.398   126086160.930 4       850.769    23993400.338
  98248975.168 4       662.963
  24577518.716    24577515.126   129155737.397 1       414.216    24577518.416
 100640840.688 1       322.836
  20514191.897    20514191.217   107802875.674 7      2253.486    20514196.107
  84002209.726 7      1755.968
  22978876.950    22978877.150   120754826.405 5       244.459    22978878.660
  94094680.391 5       190.490
  20409140.445    20409140.345   107250814.922 7      5113.384    20409142.345
  83572068.576 7      3984.462
  25301117.853    25301117.003   132958289.910 2      5690.857    25301117.843
 103603875.195 2      4434.379
  22401373.862    22401373.312   117720006.660 6      2551.288    22401373.002
  91729896.067 6      1988.020
  21221179.376    21221179.286   111518045.953 6      4266.302    21221180.356
  86897198.242 6      3324.386
 17  4  9 16 18 54.0000000  0  9G26G14G 6G25G12G29G23G 2G31         -0.000076876
  24248732.947    24248732.397   127427946.863 5      7081.484    24248737.947
  99294524.477 5      5518.066
  23993236.929    23993236.469   126085309.961 4       850.283    23993238.289
  98248312.069 4       662.565
  24577440.051    24577435.851   129155323.245 1       413.901    24577440.651
 100640517.976 1       322.458
  20513763.239    20513762.479   107800622.191 7      2253.496    20513767.299
  84000453.765 7      1755.967
  22978830.548    22978830.628   120754581.917 5       244.483    22978832.258
  94094489.882 5       190.529
  20408167.524    20408167.354   107245701.828 7      5112.927    20408169.304
  83568084.356 6      3984.097
  25300035.555    25300034.535   132952599.234 2      5690.947    25300035.055
 103599440.900 2      4434.492
  22400888.117    22400887.837   117717455.803 6      2550.559    22400887.567
  91727908.383 6      1987.453
  21220367.560    21220367.450   111513779.460 6      4266.035    21220368.510
  86893873.704 6      3324.177
 17  4  9 16 18 55.0000000  0  9G26G14G 6G25G12G29G23G 2G31         -0.000079166
  24247385.369    24247384.779   127420865.407 5      7081.332    24247390.579
  99289006.448 5      5517.931
  23993075.100    23993074.520   126084459.208 4       850.501    23993076.430
  98247649.154 4       662.706
  24577361.296    24577357.816   129154909.335 1       414.583    24577361.226
 100640195.386 1       322.902
  20513334.478    20513333.708   107798369.173 7      2252.804    20513338.588
  83998698.168 7      1755.439
  22978783.861    22978784.071   120754337.548 5       244.346    22978785.831
  94094299.468 5       190.393
  20407194.518    20407194.458   107240589.233 7      5112.288    20407196.408
  83564100.513 7      3983.602
  25298952.210    25298952.100   132946909.001 2      5690.021    25298952.090
 103595006.951 2      4433.753
  22400403.145    22400402.525   117714905.422 6      2549.867    22400402.235
  91725921.068 6      1986.939
  21219555.827    21219555.677   111509513.580 6      4265.294    21219556.607
  86890549.636 6      3323.620
 17  4  9 16 18 56.0000000  0  9G26G14G 6G25G12G29G23G 2G31         -0.000081457
  24246037.691    24246037.081   127413784.047 5      7081.259    24246042.971
  99283488.514 5      5517.843
  23992913.081    23992912.611   126083608.875 4       849.484    23992914.941
  98246986.556 4       661.926
  24577282.493    24577281.443   129154495.730 1       413.707    24577282.453
 100639873.097 1       322.311
  20512905.915    20512905.165   107796116.703 7      2252.172    20512909.955
  83996942.985 7      1754.936
  22978737.867    22978737.567   120754093.426 5       243.824    22978739.027
  94094109.232 5       190.014
  20406221.674    20406221.674   107235477.227 7      5111.675    20406223.634
  83560117.128 7      3983.108
  25297869.799    25297868.989   132941219.302 2      5689.252    25297869.689
 103590573.430 2      4433.167
  22399917.760    22399917.250   117712355.645 6      2549.406    22399917.010
  91723934.228 6      1986.542
  21218744.339    21218744.109   111505248.346 6      4264.838    21218744.929
  86887226.080 6      3323.247
 17  4  9 16 18 57.0000000  0  9G26G14G 6G25G12G29G23G 2G31         -0.000083747
  24244690.517    24244689.517   127406702.837 5      7081.640    24244695.347
  99277970.686 5      5518.145
  23992751.699    23992751.039   126082758.843 4       850.196    23992753.099
  98246324.188 4       662.492
  24577203.907    24577202.897   129154082.509 1       412.412    24577204.717
 100639551.121 1       321.553
  20512477.282    20512476.562   107793864.711 7      2251.720    20512481.452
  83995188.190 7      1754.581
  22978691.520    22978691.110   120753849.486 5       243.851    22978692.500
  94093919.155 5       190.010
  20405249.412    20405249.052   107230365.733 7      5111.231    20405250.892
  83556134.144 7      3982.777
  25296786.922    25296786.272   132935530.016 2      5688.698    25296787.072
 103586140.213 2      4432.761
  22399432.620    22399432.170   117709806.405 6      2549.104    22399431.890
  91721947.809 6      1986.324
  21217932.861    21217932.661   111500983.740 6      4264.289    21217933.431
  86883903.018 6      3322.804
 17  4  9 16 18 58.0000000  0  9G26G14G 6G25G12G29G23G 2G31         -0.000086038
  24243343.296    24243341.996   127399621.705 5      7080.900    24243348.046
  99272452.923 5      5517.582
  23992589.734    23992589.354   126081909.119 4       849.763    23992591.474
  98245662.065 4       662.186
  24577125.746    24577125.316   129153669.550 1       413.137    24577128.626
 100639229.318 1       321.828
  20512048.915    20512048.125   107791613.231 7      2251.258    20512053.025
  83993433.788 7      1754.230
  22978644.728    22978644.738   120753605.751 5       244.231    22978646.248
  94093729.223 5       190.307
  20404276.908    20404276.488   107225254.767 6      5110.831    20404278.268
  83552151.572 6      3982.461
  25295704.288    25295703.798   132929841.261 2      5688.697    25295704.128
 103581707.421 2      4432.733
  22398948.029    22398947.189   117707257.719 6      2548.115    22398946.959
  91719961.822 6      1985.542
  21217121.489    21217121.209   111496719.772 6      4263.832    21217121.999
  86880580.446 6      3322.466
 17  4  9 16 18 59.0000000  0  9G26G14G 6G25G12G29G23G 2G31         -0.000088328
  24241995.574    24241994.424   127392540.731 5      7080.861    24242000.694
  99266935.281 5      5517.558
  23992428.365    23992427.655   126081059.756 4       848.946    23992429.915
  98245000.234 4       661.480
  24577047.111    24577045.921   129153256.940 1       412.073    24577050.991
 100638907.857 1       321.104
  20511620.807    20511619.867   107789362.245 7      2250.635    20511624.677
  83991679.783 7      1753.766
  22978598.098    22978598.268   120753362.216 5       243.439    22978599.858
  94093539.464 5       189.726
  20403304.125    20403303.925   107220144.362 7      5110.209    20403305.865
  83548169.438 7      3981.997
  25294621.618    25294621.318   132924152.955 2      5688.148    25294621.698
 103577274.961 2      4432.352
  22398463.193    22398462.373   117704709.564 6      2547.672    22398462.023
  91717976.243 6      1985.213
  21216309.911    21216309.971   111492456.447 6      4263.100    21216310.731
  86877258.365 6      3321.911
 17  4  9 16 19  0.0000000  0  9G26G14G 6G25G12G29G23G 2G31         -0.000090619
  24240648.135    24240647.145   127385459.776 5      7080.952    24240653.095
  99261417.657 5      5517.594
  23992266.581    23992265.921   126080210.679 4       849.168    23992268.101
  98244338.616 4       661.686
  24576968.645    24576967.265   129152844.599 1       411.822    24576972.955
 100638586.553 1       320.778
  20511192.505    20511191.675   107787111.747 7      2250.128    20511196.405
  83989926.142 7      1753.336
  22978551.422    22978551.812   120753118.852 5       243.337    22978553.672
  94093349.832 5       189.614
  20402331.395    20402331.435   107215034.467 7      5109.569    20402333.495
  83544187.699 7      3981.474
  25293539.906    25293538.906   132918465.083 2      5688.136    25293539.526
 103572842.863 2      4432.303
  22397977.895    22397977.615   117702161.959 6      2547.213    22397977.295
  91715991.096 6      1984.845
  21215498.489    21215498.699   111488193.727 6      4262.590    21215499.639
  86873936.768 6      3321.492
 17  4  9 16 19  1.0000000  0  9G26G14G 6G25G12G29G23G 2G31         -0.000092909
  24239301.282    24239299.842   127378378.974 5      7081.284    24239305.382
  99255900.146 5      5517.860
  23992104.571    23992104.371   126079361.946 4       848.695    23992106.201
  98243677.261 4       661.342
  24576889.890    24576887.600   129152432.594 1       412.387    24576893.020
 100638265.469 1       321.311
  20510764.269    20510763.499   107784861.787 7      2249.446    20510768.309
  83988172.926 7      1752.835
  22978504.927    22978505.607   120752875.707 5       242.989    22978507.277
  94093160.367 5       189.353
  20401359.273    20401359.133   107209925.128 7      5108.988    20401361.123
  83540206.396 7      3981.051
  25292457.420    25292456.920   132912777.713 2      5686.338    25292457.160
 103568411.145 2      4431.017
  22397493.535    22397493.045   117699614.914 6      2546.696    22397492.625
  91714006.384 6      1984.428
  21214687.932    21214687.702   111483931.651 6      4261.845    21214688.582
  86870615.660 6      3320.930
 17  4  9 16 19  2.0000000  0  9G26G14G 6G25G12G29G23G 2G31         -0.000095200
  24237953.577    24237952.607   127371298.317 5      7080.822    24237958.117
  99250382.752 5      5517.526
  23991943.781    23991942.751   126078513.613 4       847.800    23991944.971
  98243016.208 4       660.669
  24576811.714    24576809.964   129152020.954 1       412.285    24576816.034
 100637944.751 1       321.320
  20510336.431    20510335.381   107782612.335 7      2249.130    20510340.211
  83986420.104 7      1752.577
  22978458.694    22978459.414   120752632.777 5       243.254    22978461.014
  94092971.065 5       189.530
  20400387.167    20400386.957   107204816.359 7      5108.466    20400388.937
  83536225.535 7      3980.612
  25291375.528    25291374.728   132907090.819 2      5687.390    25291375.338
 103563979.814 2      4431.724
  22397009.029    22397008.519   117697068.439 6      2546.225    22397008.039
  91712022.118 6      1984.056
  21213877.305    21213876.915   111479670.269 6      4261.295    21213877.675
  86867295.101 6      3320.503
 17  4  9 16 19  3.0000000  0  9G26G14G 6G25G12G29G23G 2G31         -0.000097491
  24236606.260    24236605.220   127364217.692 5      7080.630    24236610.790
  99244865.388 5      5517.391
  23991782.381    23991781.441   126077665.520 4       847.671    23991783.501
  98242355.354 4       660.559
  24576732.805    24576732.945   129151609.588 1       411.101    24576737.845
 100637624.228 1       320.142
  20509908.476    20509907.396   107780363.334 7      2248.602    20509912.266
  83984667.640 7      1752.157
  22978412.854    22978412.974   120752390.010 5       243.240    22978414.624
  94092781.900 5       189.579
  20399415.025    20399414.915   107199708.062 7      5107.934    20399416.865
  83532245.050 7      3980.211
  25290293.349    25290292.839   132901404.306 2      5686.860    25290292.999
 103559548.775 2      4431.327
  22396524.886    22396524.126   117694522.478 6      2545.360    22396523.556
  91710038.257 6      1983.403
  21213066.699    21213066.099   111475409.444 6      4260.228    21213066.919
  86863974.984 6      3319.663
 17  4  9 16 19  4.0000000  0  9G26G14G 6G25G12G29G23G 2G31         -0.000099781
  24235258.934    24235257.904   127357137.216 5      7079.873    24235263.284
  99239348.137 5      5516.820
  23991621.048    23991620.278   126076817.736 4       847.265    23991622.118
  98241694.733 4       660.187
  24576654.843    24576655.553   129151198.495 1       410.721    24576658.973
 100637303.909 1       319.964
  20509480.697    20509479.527   107778114.817 7      2248.232    20509484.427
  83982915.549 7      1751.862
  22978366.367    22978366.787   120752147.466 5       242.542    22978368.607
  94092592.903 5       188.992
  20398443.223    20398442.943   107194600.317 7      5107.512    20398444.873
  83528264.992 6      3979.866
  25289211.369    25289210.569   132895718.313 2      5685.954    25289210.829
 103555118.113 2      4430.614
  22396040.665    22396039.795   117691977.056 6      2545.208    22396039.185
  91708054.813 6      1983.270
  21212255.716    21212255.386   111471149.238 6      4260.094    21212256.216
  86860655.349 6      3319.529
 17  4  9 16 19  5.0000000  0  9G26G14G 6G25G12G29G23G 2G31         -0.000102072
  24233911.649    24233910.609   127350056.718 5      7080.358    24233915.849
  99233830.871 5      5517.130
  23991460.163    23991458.813   126075970.250 4       847.292    23991460.933
  98241034.365 4       660.248
  24576576.550    24576575.480   129150787.687 1       411.022    24576581.310
 100636983.765 1       320.358
  20509052.813    20509051.703   107775866.758 7      2247.736    20509056.643
  83981163.818 7      1751.483
  22978319.979    22978320.549   120751905.009 5       242.032    22978322.429
  94092403.975 5       188.609
  20397471.184    20397471.084   107189493.038 7      5107.108    20397473.024
  83524285.296 6      3979.575
  25288130.250    25288129.030   132890032.694 2      5685.184    25288129.190
 103550687.777 2      4429.977
  22395556.335    22395555.485   117689432.143 6      2544.400    22395554.845
  91706071.765 6      1982.652
  21211445.244    21211444.864   111466889.627 6      4259.210    21211445.564
  86857336.166 6      3318.865
 17  4  9 16 19  6.0000000  0  9G26G14G 6G25G12G29G23G 2G31         -0.000104362
  24232564.194    24232563.214   127342976.424 5      7080.028    24232568.874
  99228313.760 5      5516.920
  23991298.819    23991297.749   126075123.106 4       847.229    23991299.739
  98240374.246 4       660.224
  24576499.725    24576497.225   129150377.250 1       410.275    24576502.475
 100636663.936 1       319.711
  20508625.110    20508624.000   107773619.254 7      2247.336    20508628.970
  83979412.512 7      1751.151
  22978273.866    22978274.326   120751662.806 5       241.683    22978276.336
  94092215.253 5       188.348
  20396499.337    20396499.377   107184386.348 6      5106.666    20396501.237
  83520306.057 6      3979.238
  25287048.265    25287047.055   132884347.623 2      5684.122    25287047.385
 103546257.858 2      4429.187
  22395072.238    22395071.298   117686887.788 6      2544.144    22395070.738
  91704089.146 6      1982.462
  21210634.802    21210634.402   111462630.653 6      4258.698    21210635.072
  86854017.489 6      3318.448
 17  4  9 16 19  7.0000000  0  9G26G14G 6G25G12G29G23G 2G31         -0.000106653
  24231216.901    24231215.861   127335896.220 5      7080.159    24231221.611
  99222796.723 5      5517.006
  23991137.581    23991136.591   126074276.293 4       846.653    23991138.621
  98239714.401 4       659.689
  24576422.087    24576419.927   129149967.113 1       409.776    24576424.567
 100636344.345 1       319.230
  20508197.638    20508196.428   107771372.245 7      2246.684    20508201.398
  83977661.594 7      1750.670
  22978228.193    22978228.353   120751420.796 5       242.148    22978230.323
  94092026.668 5       188.711
  20395527.743    20395527.703   107179280.201 7      5105.816    20395529.563
  83516327.238 7      3978.571
  25285966.460    25285965.540   132878662.947 2      5683.885    25285965.660
 103541828.236 2      4428.989
  22394588.257    22394587.297   117684343.996 6      2543.530    22394586.757
  91702106.970 6      1981.956
  21209824.216    21209824.086   111458372.345 6      4258.149    21209824.756
  86850699.328 6      3318.036
 17  4  9 16 19  8.0000000  0  9G26G14G 6G25G12G29G23G 2G31         -0.000108944
  24229869.650    24229868.630   127328816.067 5      7080.076    24229874.360
  99217279.721 5      5516.940
  23990976.163    23990975.583   126073429.799 4       846.328    23990977.763
  98239054.790 4       659.483
  24576344.189    24576342.089   129149557.251 1       409.857    24576345.789
 100636024.967 1       319.411
  20507770.355    20507768.965   107769125.701 7      2246.219    20507773.905
  83975911.042 7      1750.297
  22978181.776    22978182.096   120751178.937 5       241.911    22978184.626
  94091838.210 5       188.488
  20394556.299    20394556.189   107174174.541 7      5105.309    20394557.999
  83512348.802 7      3978.165
  25284884.249    25284883.929   132872978.743 2      5683.161    25284883.689
 103537398.980 2      4428.456
  22394103.957    22394103.287   117681800.687 6      2543.038    22394102.767
  91700125.178 6      1981.562
  21209013.919    21209013.829   111454114.596 6      4257.329    21209014.579
  86847381.600 6      3317.400
 17  4  9 16 19  9.0000000  0  9G26G14G 6G25G12G29G23G 2G31         -0.000111234
  24228522.031    24228521.401   127321736.093 5      7079.889    24228527.191
  99211762.863 5      5516.785
  23990815.274    23990814.694   126072583.682 4       845.738    23990816.614
  98238395.488 4       658.988
  24576266.247    24576264.207   129149147.794 1       409.486    24576267.707
 100635705.905 1       318.909
  20507343.070    20507341.670   107766879.723 7      2245.904    20507346.530
  83974160.923 7      1750.052
  22978135.710    22978136.080   120750937.355 5       241.847    22978138.670
  94091649.958 5       188.435
  20393585.048    20393584.748   107169069.500 7      5104.729    20393586.538
  83508370.840 7      3977.705
  25283802.240    25283802.230   132867295.104 2      5681.971    25283802.830
 103532970.157 2      4427.594
  22393620.211    22393619.451   117679258.012 6      2542.845    22393618.981
  91698143.874 6      1981.456
  21208203.954    21208203.784   111449857.564 6      4256.464    21208204.524
  86844064.431 6      3316.716
 17  4  9 16 19 10.0000000  0  9G26G14G 6G25G12G29G23G 2G31         -0.000113525
  24227174.518    24227174.068   127314656.222 5      7080.447    24227179.998
  99206246.079 5      5517.266
  23990653.656    23990653.356   126071737.875 4       845.190    23990655.416
  98237736.416 4       658.637
  24576188.337    24576185.947   129148738.614 1       408.757    24576190.577
 100635387.042 1       318.448
  20506915.738    20506914.338   107764634.195 7      2245.612    20506919.208
  83972411.163 7      1749.825
  22978090.296    22978090.026   120750695.935 5       241.149    22978092.786
  94091461.843 5       187.932
  20392613.704    20392613.404   107163964.940 7      5104.318    20392615.184
  83504393.263 7      3977.393
  25282720.844    25282720.804   132861611.826 3      5683.192    25282721.674
 103528541.618 2      4428.426
  22393136.668    22393135.718   117676715.863 6      2541.825    22393135.208
  91696162.977 6      1980.656
  21207394.105    21207393.815   111445601.136 6      4255.930    21207394.535
  86840747.735 6      3316.314
 17  4  9 16 19 11.0000000  0  9G26G14G 6G25G12G29G23G 2G31         -0.000115815
  24225827.436    24225826.886   127307576.425 5      7079.738    24225832.706
  99200729.350 5      5516.684
  23990492.244    23990492.214   126070892.325 4       845.466    23990494.624
  98237077.532 4       658.826
  24576110.056    24576109.306   129148329.685 1       409.483    24576114.386
 100635068.385 1       319.255
  20506488.347    20506487.107   107762389.153 7      2245.083    20506492.047
  83970661.782 7      1749.428
  22978044.251    22978044.241   120750454.674 5       241.133    22978046.881
  94091273.843 5       187.917
  20391642.378    20391642.088   107158860.907 7      5103.944    20391643.898
  83500416.091 7      3977.107
  25281639.734    25281639.434   132855929.013 3      5682.686    25281639.204
 103524113.437 2      4428.131
  22392653.207    22392652.057   117674174.223 6      2541.447    22392651.677
  91694182.478 6      1980.358
  21206584.041    21206583.961   111441345.302 6      4255.983    21206584.641
  86837431.496 6      3316.370
 17  4  9 16 19 12.0000000  0  9G26G14G 6G25G12G29G23G 2G31         -0.000118106
  24224480.043    24224479.563   127300496.694 5      7079.926    24224485.623
  99195212.685 5      5516.815
  23990331.912    23990331.682   126070047.134 4       845.166    23990334.002
  98236418.932 4       658.541
  24576032.400    24576031.130   129147921.096 1       408.355    24576034.590
 100634750.038 1       318.325
  20506061.248    20506060.048   107760144.595 7      2244.225    20506064.878
  83968912.779 7      1748.738
  22977998.251    22977998.241   120750213.620 5       241.106    22978000.941
  94091086.009 5       187.907
  20390671.103    20390670.933   107153757.389 6      5103.300    20390672.803
  83496439.327 6      3976.601
  25280558.813    25280558.643   132850246.615 3      5682.295    25280558.133
 103519685.613 3      4427.771
  22392169.974    22392168.574   117671633.136 6      2540.709    22392168.144
  91692202.407 6      1979.788
  21205774.352    21205774.172   111437090.078 6      4254.769    21205774.812
  86834115.744 6      3315.392
 17  4  9 16 19 13.0000000  0  9G26G14G 6G25G12G29G23G 2G31         -0.000120397
  24223132.839    24223132.379   127293417.048 5      7079.862    24223138.369
  99189696.069 5      5516.794
  23990171.101    23990171.011   126069202.188 4       844.938    23990173.221
  98235760.530 4       658.383
  24575954.504    24575952.564   129147512.781 1       407.421    24575956.684
 100634431.860 1       317.482
  20505634.356    20505633.056   107757900.511 7      2243.846    20505637.786
  83967164.141 7      1748.431
  22977952.215    22977952.315   120749972.678 5       241.413    22977955.145
  94090898.253 5       188.122
  20389699.977    20389699.817   107148654.355 7      5102.775    20389701.687
  83492462.935 6      3976.182
  25279477.735    25279477.785   132844564.674 3      5681.433    25279477.295
 103515258.125 3      4427.104
  22391686.364    22391685.184   117669092.547 6      2540.137    22391684.634
  91690222.725 6      1979.318
  21204964.509    21204964.539   111432835.453 6      4254.383    21204965.179
  86830800.451 6      3315.091
 17  4  9 16 19 14.0000000  0  9G26G14G 6G25G12G29G23G 2G31         -0.000122687
  24221785.321    24221785.311   127286337.522 5      7079.439    24221791.101
  99184179.550 5      5516.425
  23990010.199    23990010.239   126068357.549 4       844.536    23990012.319
  98235102.384 4       658.062
  24575877.452    24575873.172   129147104.690 1       408.445    24575879.722
 100634113.885 1       318.249
  20505207.114    20505206.124   107755656.909 7      2243.526    20505210.864
  83965415.876 7      1748.202
  22977906.589    22977906.699   120749731.934 5       241.029    22977909.409
  94090710.657 5       187.818
  20388728.759    20388728.849   107143551.831 7      5102.288    20388730.729
  83488486.944 7      3975.806
  25278396.020    25278396.440   132838883.192 3      5681.850    25278395.850
 103510830.997 3      4427.333
  22391202.787    22391201.847   117666552.488 6      2539.932    22391201.257
  91688243.458 6      1979.146
  21204154.858    21204155.028   111428581.440 6      4253.818    21204155.648
  86827485.639 6      3314.659
 17  4  9 16 19 15.0000000  0  9G26G14G 6G25G12G29G23G 2G31         -0.000124978
  24220438.042    24220437.962   127279258.075 5      7079.096    24220444.052
  99178663.114 5      5516.157
  23989849.486    23989849.546   126067513.296 4       844.144    23989851.366
  98234444.525 4       657.782
  24575800.053    24575797.233   129146697.047 1       407.707    24575800.883
 100633796.223 1       317.730
  20504780.177    20504779.257   107753413.826 7      2243.034    20504784.027
  83963668.019 7      1747.821
  22977860.685    22977860.925   120749491.440 5       240.591    22977863.555
  94090523.266 5       187.484
  20387757.741    20387758.031   107138449.883 6      5101.537    20387759.821
  83484511.393 7      3975.235
  25277314.574    25277315.514   132833202.191 3      5680.767    25277314.314
 103506404.247 3      4426.520
  22390719.274    22390718.504   117664013.001 6      2539.320    22390717.984
  91686264.637 6      1978.680
  21203345.531    21203345.621   111424328.116 6      4252.797    21203346.341
  86824171.361 6      3313.875
 17  4  9 16 19 16.0000000  0  9G26G14G 6G25G12G29G23G 2G31         -0.000127269
  24219091.061    24219090.771   127272178.764 5      7078.920    24219096.961
  99173146.770 5      5516.042
  23989689.047    23989688.757   126066669.353 4       843.825    23989690.327
  98233786.903 4       657.505
  24575722.283    24575720.063   129146289.686 1       407.014    24575723.853
 100633478.802 1       317.157
  20504353.337    20504352.457   107751171.293 7      2242.243    20504357.337
  83961920.586 7      1747.200
  22977815.059    22977815.399   120749251.085 5       240.748    22977817.809
  94090335.978 5       187.592
  20386787.383    20386787.293   107133348.478 7      5101.311    20386789.053
  83480536.273 7      3975.033
  25276233.237    25276234.447   132827521.710 3      5680.103    25276233.927
 103501977.895 3      4426.053
  22390236.109    22390235.409   117661474.076 6      2538.793    22390234.859
  91684286.250 6      1978.283
  21202536.269    21202536.379   111420075.418 6      4252.324    21202537.059
  86820857.565 6      3313.500
 17  4  9 16 19 17.0000000  0  9G26G14G 6G25G12G29G23G 2G31         -0.000129560
  24217743.752    24217743.632   127265099.530 5      7079.238    24217749.962
  99167630.477 5      5516.292
  23989529.047    23989528.207   126065825.703 4       843.123    23989529.727
  98233129.518 4       656.939
  24575644.964    24575643.894   129145882.621 1       406.845    24575648.474
 100633161.594 1       316.991
  20503926.520    20503925.770   107748929.168 7      2241.912    20503930.610
  83960173.478 7      1746.965
  22977769.181    22977769.811   120749010.942 5       239.825    22977772.131
  94090148.856 5       186.883
  20385816.621    20385816.641   107128247.557 7      5100.540    20385818.371
  83476561.530 7      3974.448
  25275153.862    25275153.672   132821841.562 3      5679.606    25275152.652
 103497551.819 3      4425.648
  22389752.945    22389752.295   117658935.645 6      2537.893    22389751.855
  91682308.254 6      1977.591
  21201727.286    21201727.236   111415823.284 6      4251.853    21201727.916
  86817544.214 6      3313.133
 17  4  9 16 19 18.0000000  0  9G26G14G 6G25G12G29G23G 2G31         -0.000131850
  24216396.540    24216396.420   127258020.365 5      7079.948    24216402.710
  99162114.244 5      5516.861
  23989368.289    23989367.849   126064982.372 4       843.281    23989369.349
  98232472.375 4       657.088
  24575567.679    24575566.719   129145475.859 1       406.866    24575569.579
 100632844.614 1       317.101
  20503499.723    20503499.203   107746687.577 7      2241.071    20503503.993
  83958426.782 7      1746.302
  22977723.493    22977724.193   120748771.003 5       239.758    22977726.473
  94089961.880 5       186.821
  20384846.165    20384846.095   107123147.208 7      5100.110    20384847.835
  83472587.232 7      3974.118
  25274072.222    25274072.872   132816161.935 3      5680.170    25274071.212
 103493126.138 3      4426.060
  22389270.116    22389269.336   117656397.754 6      2537.657    22389268.936
  91680330.680 6      1977.406
  21200918.251    21200918.201   111411571.819 6      4251.055    21200918.881
  86814231.388 6      3312.524
 17  4  9 16 19 19.0000000  0  9G26G14G 6G25G12G29G23G 2G31         -0.000134141
  24215049.164    24215049.354   127250941.334 5      7079.353    24215055.644
  99156598.113 5      5516.394
  23989207.825    23989207.115   126064139.330 4       842.707    23989208.805
  98231815.456 4       656.721
  24575489.993    24575489.253   129145069.340 1       407.004    24575490.223
 100632527.848 1       317.271
  20503073.317    20503072.767   107744446.447 7      2240.845    20503077.477
  83956680.448 7      1746.113
  22977678.209    22977678.579   120748531.232 5       239.925    22977680.809
  94089775.035 5       186.930
  20383875.707    20383875.597   107118047.352 7      5099.584    20383877.337
  83468613.316 7      3973.696
  25272990.953    25272992.133   132810482.776 3      5679.135    25272990.053
 103488700.835 3      4425.290
  22388787.340    22388786.590   117653860.413 6      2537.226    22388786.130
  91678353.529 6      1977.063
  21200108.943    21200109.243   111407320.942 6      4250.718    21200109.943
  86810919.013 6      3312.242
 17  4  9 16 19 20.0000000  0  9G26G14G 6G25G12G29G23G 2G31         -0.000136432
  24213702.148    24213702.118   127243862.417 5      7078.295    24213708.558
  99151082.075 5      5515.550
  23989047.670    23989046.600   126063296.612 4       842.910    23989048.160
  98231158.791 4       656.831
  24575412.713    24575412.033   129144663.191 1       406.353    24575413.623
 100632211.359 1       316.663
  20502646.757    20502646.357   107742205.832 7      2240.351    20502651.107
  83954934.516 7      1745.738
  22977632.650    22977632.960   120748291.616 5       239.726    22977635.300
  94089588.328 5       186.800
  20382905.544    20382905.254   107112948.033 7      5099.103    20382907.024
  83464639.823 7      3973.327
  25271910.114    25271911.124   132804804.060 3      5677.999    25271909.434
 103484275.859 3      4424.397
  22388304.569    22388303.769   117651323.600 6      2536.481    22388303.249
  91676376.791 6      1976.467
  21199299.930    21199300.360   111403070.676 6      4249.952    21199301.130
  86807607.119 6      3311.658
 17  4  9 16 19 21.0000000  0  9G26G14G 6G25G12G29G23G 2G31         -0.000138723
  24212355.285    24212355.095   127236783.564 5      7078.549    24212361.425
  99145566.094 5      5515.748
  23988887.945    23988886.475   126062454.244 4       842.244    23988887.885
  98230502.406 4       656.279
  24575335.119    24575334.919   129144257.309 1       406.000    24575337.009
 100631895.119 1       316.522
  20502220.420    20502220.100   107739965.706 7      2239.837    20502224.770
  83953188.956 7      1745.325
  22977587.308    22977587.508   120748052.238 5       239.107    22977589.798
  94089401.800 5       186.350
  20381935.224    20381935.024   107107849.254 7      5098.647    20381936.734
  83460666.746 7      3972.978
  25270829.247    25270830.347   132799125.794 3      5677.375    25270828.547
 103479851.229 3      4424.000
  22387821.684    22387821.184   117648787.334 6      2536.081    22387820.574
  91674400.472 6      1976.177
  21198491.583    21198491.743   111398821.044 6      4249.425    21198492.523
  86804295.714 6      3311.256
 17  4  9 16 19 22.0000000  0  9G26G14G 6G25G12G29G23G 2G31         -0.000141013
  24211007.878    24211007.958   127229704.856 5      7078.449    24211014.398
  99140050.218 5      5515.706
  23988728.239    23988726.329   126061612.191 4       841.956    23988727.999
  98229846.254 4       656.053
  24575258.006    24575257.796   129143851.805 1       405.587    24575260.216
 100631579.152 1       315.980
  20501794.133    20501793.933   107737726.072 7      2239.194    20501798.563
  83951443.794 7      1744.840
  22977541.931    22977542.031   120747813.022 5       239.137    22977544.341
  94089215.391 5       186.396
  20380965.274    20380964.954   107102751.030 7      5097.855    20380966.524
  83456694.108 7      3972.367
  25269749.486    25269749.296   132793448.006 2      5677.774    25269748.386
 103475426.985 3      4424.327
  22387339.063    22387338.613   117646251.631 6      2535.155    22387338.113
  91672424.602 6      1975.449
  21197682.978    21197683.198   111394572.082 6      4248.485    21197683.888
  86800984.833 6      3310.521
 17  4  9 16 19 23.0000000  0  9G26G14G 6G25G12G29G23G 2G31         -0.000143304
  24209661.033    24209661.033   127222626.164 5      7078.455    24209667.413
  99134534.348 5      5515.674
  23988567.838    23988566.278   126060770.425 4       841.577    23988568.188
  98229190.338 4       655.780
  24575181.442    24575180.162   129143446.559 1       405.322    24575183.862
 100631263.379 1       316.005
  20501367.693    20501367.753   107735486.917 7      2238.771    20501372.353
  83949698.997 7      1744.509
  22977496.476    22977496.636   120747573.978 5       239.122    22977498.916
  94089029.114 5       186.328
  20379995.295    20379994.945   107097653.304 7      5097.413    20379996.475
  83452721.855 7      3972.011
  25268669.011    25268668.901   132787770.693 2      5677.007    25268668.171
 103471003.082 3      4423.754
  22386856.614    22386856.094   117643716.428 6      2535.017    22386855.664
  91670449.122 6      1975.347
  21196874.576    21196874.796   111390323.682 6      4248.094    21196875.466
  86797674.386 6      3310.224
 17  4  9 16 19 24.0000000  0  9G26G14G 6G25G12G29G23G 2G31         -0.000145595
  24208313.705    24208313.955   127215547.593 5      7078.694    24208320.395
  99129018.584 5      5515.836
  23988407.469    23988406.329   126059928.986 4       841.626    23988407.909
  98228534.670 4       655.824
  24575104.470    24575104.220   129143041.639 1       405.068    24575106.970
 100630947.861 1       315.745
  20500941.646    20500941.696   107733248.264 7      2238.429    20500946.366
  83947954.586 7      1744.229
  22977451.475    22977451.295   120747335.123 5       238.886    22977453.275
  94088842.984 5       186.149
  20379025.305    20379025.015   107092556.105 7      5097.031    20379026.515
  83448750.011 7      3971.701
  25267588.150    25267588.280   132782093.770 2      5676.607    25267587.870
 103466579.487 3      4423.329
  22386374.312    22386373.722   117641181.764 6      2534.553    22386373.432
  91668474.060 6      1974.982
  21196066.204    21196066.374   111386075.896 6      4247.763    21196067.064
  86794364.419 6      3309.950
 17  4  9 16 19 25.0000000  0  9G26G14G 6G25G12G29G23G 2G31         -0.000147886
  24206967.058    24206967.168   127208469.147 5      7078.663    24206973.138
  99123502.922 5      5515.857
  23988246.875    23988246.305   126059087.873 4       841.338    23988248.025
  98227879.260 4       655.588
  24575027.166    24575027.136   129142637.030 1       404.162    24575029.796
 100630632.577 1       315.088
  20500515.703    20500515.713   107731010.114 7      2237.737    20500520.533
  83946210.572 7      1743.686
  22977406.150    22977405.860   120747096.483 5       238.443    22977407.750
  94088657.041 5       185.787
  20378055.592    20378055.192   107087459.468 7      5096.416    20378056.702
  83444778.603 7      3971.221
  25266508.351    25266508.361   132776417.334 2      5676.180    25266508.211
 103462156.307 2      4423.034
  22385892.066    22385891.366   117638647.680 6      2533.682    22385891.126
  91666499.452 6      1974.284
  21195258.217    21195258.207   111381828.771 6      4246.964    21195258.897
  86791054.969 6      3309.328
 17  4  9 16 19 26.0000000  0  9G26G14G 6G25G12G29G23G 2G31         -0.000150176
  24205620.492    24205620.262   127201390.886 5      7077.861    24205626.022
  99117987.393 5      5515.205
  23988087.184    23988086.284   126058247.132 4       840.675    23988088.254
  98227224.125 4       655.087
  24574950.562    24574950.372   129142232.756 1       404.004    24574952.832
 100630317.542 1       314.822
  20500090.084    20500089.934   107728772.513 7      2237.258    20500094.844
  83944466.985 7      1743.327
  22977360.763    22977360.613   120746858.048 5       238.278    22977362.363
  94088471.248 5       185.653
  20377085.811    20377085.411   107082363.413 7      5095.515    20377086.911
  83440807.653 7      3970.544
  25265428.950    25265428.630   132770741.343 2      5675.833    25265428.590
 103457733.459 2      4422.739
  22385409.781    22385409.121   117636114.178 6      2533.029    22385409.131
  91664525.289 6      1973.791
  21194450.364    21194450.154   111377582.331 6      4245.934    21194450.804
  86787746.052 6      3308.526
 17  4  9 16 19 27.0000000  0  9G26G14G 6G25G12G29G23G 2G31         -0.000152467
  24204272.761    24204273.381   127194312.655 5      7078.433    24204278.751
  99112471.886 5      5515.682
  23987927.115    23987926.265   126057406.643 4       840.428    23987928.295
  98226569.184 4       654.899
  24574872.997    24574873.377   129141828.758 1       404.104    24574876.947
 100630002.737 1       314.870
  20499664.488    20499664.248   107726535.325 7      2237.099    20499669.138
  83942723.722 7      1743.209
  22977315.902    22977315.392   120746619.800 5       238.032    22977317.152
  94088285.598 5       185.506
  20376116.147    20376115.827   107077267.815 7      5095.513    20376117.147
  83436837.053 7      3970.544
  25264348.902    25264348.602   132765065.870 2      5675.350    25264348.652
 103453311.029 2      4422.340
  22384927.509    22384927.089   117633581.142 6      2532.909    22384927.139
  91662551.493 6      1973.722
  21193642.149    21193642.149   111373336.444 6      4245.521    21193642.949
  86784437.570 6      3308.200
 17  4  9 16 19 28.0000000  0  9G26G14G 6G25G12G29G23G 2G31         -0.000154758
  24202926.008    24202926.528   127187234.576 5      7077.966    24202932.028
  99106956.499 5      5515.308
  23987766.574    23987766.374   126056566.576 4       839.837    23987768.434
  98225914.585 4       654.420
  24574796.302    24574797.062   129141425.146 1       403.130    24574800.552
 100629688.227 1       314.111
  20499239.255    20499238.765   107724298.728 7      2236.255    20499243.545
  83940980.915 7      1742.543
  22977270.433    22977270.053   120746381.761 5       238.034    22977272.013
  94088100.105 5       185.479
  20375146.602    20375146.282   107072172.835 7      5094.783    20375147.642
  83432866.946 7      3969.966
  25263269.268    25263268.138   132759390.891 2      5674.663    25263268.798
 103448888.968 2      4421.847
  22384445.551    22384445.161   117631048.719 6      2532.113    22384445.201
  91660578.177 6      1973.092
  21192834.217    21192834.357   111369091.250 6      4244.888    21192835.097
  86781129.622 6      3307.719
 17  4  9 16 19 29.0000000  0  9G26G14G 6G25G12G29G23G 2G31         -0.000157049
  24201579.095    24201579.545   127180156.576 5      7077.879    24201584.995
  99101441.179 5      5515.235
  23987606.052    23987606.432   126055726.809 4       839.477    23987608.512
  98225260.224 4       654.190
  24574718.622    24574719.872   129141021.791 1       402.956    24574722.782
 100629373.935 1       314.155
  20498813.597    20498813.267   107722062.638 7      2236.015    20498818.027
  83939238.507 7      1742.359
  22977225.208    22977224.688   120746143.885 5       238.135    22977226.768
  94087914.752 5       185.555
  20374177.290    20374176.810   107067078.400 7      5094.352    20374178.230
  83428897.257 7      3969.648
  25262189.578    25262188.838   132753716.396 2      5674.419    25262188.858
 103444467.263 2      4421.717
  22383963.782    22383963.382   117628516.856 6      2531.530    22383963.312
  91658605.305 6      1972.635
  21192026.157    21192026.517   111364846.686 6      4244.249    21192027.387
  86777822.171 6      3307.216
 17  4  9 16 19 30.0000000  0  9G26G14G 6G25G12G29G23G 2G31         -0.000159339
  24200232.111    24200232.641   127173078.649 5      7077.282    24200238.291
  99095925.914 5      5514.771
  23987446.866    23987446.616   126054887.247 4       839.337    23987448.556
  98224606.008 4       654.053
  24574642.267    24574642.007   129140618.690 1       403.632    24574644.997
 100629059.817 1       314.511
  20498388.163    20498387.853   107719826.930 7      2235.293    20498392.603
  83937496.398 7      1741.793
  22977179.924    22977179.524   120745906.182 5       237.599    22977181.504
  94087729.529 5       185.121
  20373208.117    20373207.427   107061984.380 7      5093.769    20373208.887
  83424927.897 6      3969.158
  25261109.011    25261109.541   132748042.257 2      5674.644    25261108.601
 103440045.872 2      4421.790
  22383481.919    22383481.709   117625985.425 6      2531.160    22383481.749
  91656632.757 6      1972.340
  21191218.627    21191218.927   111360602.668 6      4243.276    21191219.707
  86774515.149 6      3306.440
 17  4  9 16 19 31.0000000  0  9G26G14G 6G25G12G29G23G 2G31         -0.000161630
  24198885.102    24198885.842   127166000.838 5      7077.217    24198891.442
  99090410.730 5      5514.711
  23987286.803    23987287.203   126054048.024 4       839.248    23987289.063
  98223952.061 4       653.954
  24574565.681    24574563.861   129140215.937 1       402.263    24574569.171
 100628745.991 1       313.507
  20497962.975    20497962.515   107717591.756 7      2234.752    20497967.315
  83935754.708 7      1741.358
  22977134.499    22977134.319   120745668.685 5       237.111    22977136.459
  94087544.455 5       184.743
  20372239.000    20372238.250   107056890.949 7      5093.345    20372239.590
  83420958.982 7      3968.854
  25260029.772    25260029.812   132742368.626 2      5673.789    25260028.962
 103435624.840 2      4421.169
  22383000.509    22383000.299   117623454.572 6      2530.739    22383000.179
  91654660.664 6      1972.008
  21190411.062    21190411.382   111356359.283 6      4243.418    21190412.172
  86771208.614 6      3306.559
 17  4  9 16 19 32.0000000  0  9G26G14G 6G25G12G29G23G 2G31         -0.000163921
  24197538.321    24197538.911   127158923.049 5      7077.660    24197544.601
  99084895.575 5      5515.076
  23987127.168    23987127.438   126053209.073 4       838.967    23987129.398
  98223298.350 4       653.765
  24574488.946    24574487.236   129139813.398 1       402.253    24574493.116
 100628432.344 1       313.363
  20497537.772    20497537.252   107715357.014 7      2234.617    20497542.052
  83934013.351 7      1741.267
  22977089.205    22977089.055   120745431.278 5       236.838    22977091.315
  94087359.466 5       184.536
  20371269.704    20371269.114   107051797.980 7      5092.740    20371270.414
  83416990.437 7      3968.370
  25258949.881    25258950.141   132736695.385 2      5673.666    25258949.301
 103431204.124 2      4421.085
  22382519.078    22382518.808   117620924.188 6      2530.240    22382518.618
  91652688.945 6      1971.623
  21189604.046    21189604.116   111352116.473 6      4242.866    21189604.856
  86767902.521 6      3306.148
 17  4  9 16 19 33.0000000  0  9G26G14G 6G25G12G29G23G 2G31         -0.000166212
  24196192.035    24196192.075   127151845.398 5      7078.013    24196197.725
  99079380.526 5      5515.337
  23986968.090    23986967.850   126052370.461 4       838.736    23986969.820
  98222644.904 4       653.563
  24574412.069    24574411.149   129139411.244 1       402.174    24574416.189
 100628118.976 1       313.366
  20497112.779    20497112.109   107713122.801 7      2233.819    20497116.909
  83932272.407 7      1740.651
  22977043.704    22977043.874   120745194.118 5       237.491    22977046.184
  94087174.666 5       185.056
  20370300.477    20370300.007   107046705.584 7      5092.123    20370301.377
  83413022.338 7      3967.896
  25257870.632    25257870.482   132731022.695 2      5671.703    25257869.262
 103426783.849 2      4419.495
  22382037.454    22382037.464   117618394.407 6      2529.808    22382037.164
  91650717.687 6      1971.288
  21188796.797    21188796.777   111347874.346 6      4241.800    21188797.527
  86764596.976 6      3305.300
 17  4  9 16 19 34.0000000  0  9G26G14G 6G25G12G29G23G 2G31         -0.000168503
  24194845.291    24194845.331   127144767.867 5      7077.178    24194850.871
  99073865.573 5      5514.658
  23986807.714    23986808.174   126051532.216 4       838.306    23986810.174
  98221991.725 4       653.253
  24574335.405    24574334.485   129139009.395 1       401.536    24574339.515
 100627805.875 1       312.819
  20496687.568    20496686.978   107710889.080 7      2233.484    20496691.868
  83930531.846 7      1740.362
  22976999.140    22976998.820   120744957.136 5       237.216    22977000.980
  94086990.004 5       184.847
  20369331.590    20369331.150   107041613.712 7      5091.557    20369332.420
  83409054.645 7      3967.439
  25256791.673    25256790.893   132725350.357 2      5671.628    25256789.213
 103422363.855 2      4419.449
  22381555.935    22381556.035   117615865.144 6      2529.187    22381555.875
  91648746.841 6      1970.767
  21187989.254    21187989.554   111343632.828 6      4241.237    21187990.384
  86761291.899 6      3304.853
 17  4  9 16 19 35.0000000  0  9G26G14G 6G25G12G29G23G 2G31         -0.000170794
  24193498.462    24193498.622   127137690.465 5      7077.330    24193504.202
  99068350.713 5      5514.766
  23986648.469    23986648.639   126050694.279 4       838.116    23986651.269
  98221338.778 4       653.072
  24574258.346    24574257.876   129138607.855 1       401.067    24574263.186
 100627493.016 1       312.459
  20496262.843    20496262.063   107708655.887 7      2232.856    20496266.923
  83928791.697 7      1739.881
  22976954.285    22976953.615   120744720.409 5       236.717    22976956.085
  94086805.547 5       184.454
  20368362.670    20368362.250   107036522.416 7      5091.091    20368363.610
  83405087.401 7      3967.081
  25255712.885    25255711.965   132719678.563 2      5671.445    25255710.505
 103417944.271 2      4419.289
  22381075.081    22381074.841   117613336.477 6      2528.226    22381074.721
  91646776.450 6      1970.041
  21187181.990    21187182.460   111339391.978 6      4240.403    21187183.430
  86757987.338 6      3304.206
 17  4  9 16 19 36.0000000  0  9G26G14G 6G25G12G29G23G 2G31         -0.000173084
  24192151.769    24192151.959   127130613.160 5      7077.276    24192157.399
  99062835.929 5      5514.753
  23986489.494    23986489.134   126049856.725 4       837.510    23986491.844
  98220686.141 4       652.611
  24574182.226    24574181.896   129138206.710 1       401.168    24574186.396
 100627180.389 1       312.541
  20495838.316    20495837.346   107706423.222 7      2232.316    20495842.066
  83927051.961 7      1739.461
  22976909.033    22976908.623   120744483.859 5       236.871    22976911.113
  94086621.218 5       184.557
  20367393.742    20367393.502   107031431.674 7      5090.550    20367394.892
  83401120.590 6      3966.667
  25254633.440    25254632.660   132714007.279 2      5670.883    25254631.780
 103413525.058 2      4418.959
  22380593.673    22380593.823   117610808.372 6      2527.619    22380593.593
  91644806.497 6      1969.579
  21186375.509    21186375.599   111335151.773 6      4239.311    21186376.469
  86754683.285 6      3303.362
 17  4  9 16 19 37.0000000  0  9G26G14G 6G25G12G29G23G 2G31         -0.000175375
  24190805.079    24190805.269   127123536.031 5      7076.827    24190810.779
  99057321.282 5      5514.418
  23986329.736    23986330.016   126049019.477 4       837.713    23986332.706
  98220033.729 4       652.768
  24574106.730    24574105.810   129137805.845 1       401.495    24574111.180
 100626867.999 1       312.912
  20495413.814    20495412.694   107704191.057 7      2232.038    20495417.314
  83925312.615 7      1739.259
  22976864.086    22976863.706   120744247.547 5       236.182    22976866.216
  94086437.078 5       184.033
  20366425.042    20366424.862   107026341.486 7      5090.104    20366426.272
  83397154.210 7      3966.314
  25253554.824    25253553.594   132708336.448 2      5671.336    25253552.554
 103409106.226 2      4419.180
  22380112.735    22380112.895   117608280.815 6      2527.543    22380112.585
  91642836.967 6      1969.545
  21185569.000    21185568.920   111330912.189 6      4239.398    21185569.740
  86751379.710 6      3303.420
 17  4  9 16 19 38.0000000  0  9G26G14G 6G25G12G29G23G 2G31         -0.000177666
  24189457.880    24189458.410   127116458.960 5      7076.364    24189464.190
  99051806.685 5      5514.045
  23986170.294    23986170.864   126048182.527 4       837.413    23986173.264
  98219381.556 4       652.518
  24574029.493    24574029.453   129137405.298 1       399.860    24574034.603
 100626555.914 1       311.522
  20494988.864    20494987.984   107701959.381 7      2231.511    20494992.644
  83923573.653 7      1738.831
  22976818.896    22976818.686   120744011.381 5       236.096    22976821.186
  94086253.039 5       183.990
  20365456.465    20365456.325   107021251.797 7      5089.469    20365457.775
  83393188.221 7      3965.814
  25252476.517    25252474.837   132702666.032 2      5670.083    25252473.397
 103404687.711 2      4418.218
  22379632.072    22379632.022   117605753.792 6      2526.664    22379631.732
  91640867.861 6      1968.801
  21184762.317    21184762.347   111326673.199 6      4238.713    21184763.087
  86748076.606 6      3302.878
 17  4  9 16 19 39.0000000  0  9G26G14G 6G25G12G29G23G 2G31         -0.000179957
  24188111.139    24188111.719   127109381.949 5      7076.599    24188117.349
  99046292.133 5      5514.237
  23986011.203    23986011.423   126047345.899 4       836.618    23986014.013
  98218729.624 4       651.919
  24573953.875    24573953.535   129137005.012 1       400.111    24573957.565
 100626243.979 1       311.633
  20494564.560    20494563.460   107699728.168 7      2231.072    20494568.030
  83921835.046 7      1738.517
  22976774.139    22976773.909   120743775.391 5       235.891    22976776.289
  94086069.148 5       183.817
  20364488.244    20364487.954   107016162.650 7      5089.037    20364489.344
  83389222.652 7      3965.485
  25251396.741    25251396.061   132696996.082 2      5669.283    25251393.841
 103400269.591 2      4417.523
  22379151.466    22379151.256   117603227.304 6      2526.084    22379150.996
  91638899.165 6      1968.403
  21183955.648    21183955.838   111322434.870 6      4237.802    21183956.588
  86744774.016 6      3302.190
 17  4  9 16 19 40.0000000  0  9G26G14G 6G25G12G29G23G 2G31         -0.000182248
  24186764.689    24186765.049   127102305.173 5      7076.386    24186770.869
  99040777.762 5      5514.072
  23985852.415    23985852.105   126046509.679 4       835.549    23985854.605
  98218078.026 4       651.048
  24573877.996    24573876.936   129136605.124 1       399.732    24573881.576
 100625932.358 1       311.594
  20494139.807    20494138.957   107697497.542 7      2230.554    20494143.547
  83920096.901 7      1738.082
  22976728.990    22976729.060   120743539.688 5       234.940    22976731.430
  94085885.482 5       183.056
  20363519.813    20363519.653   107011074.117 7      5088.188    20363520.963
  83385257.563 7      3964.829
  25250316.874    25250317.484   132691326.706 2      5668.903    25250315.804
 103395851.909 2      4417.348
  22378671.046    22378670.626   117600701.408 6      2525.533    22378670.326
  91636930.944 6      1967.940
  21183149.476    21183149.446   111318197.241 6      4237.161    21183150.166
  86741471.966 6      3301.679
 17  4  9 16 19 41.0000000  0  9G26G14G 6G25G12G29G23G 2G31         -0.000184539
  24185417.837    24185418.297   127095228.503 5      7076.248    24185424.177
  99035263.478 5      5513.953
  23985693.103    23985692.873   126045673.751 4       835.971    23985695.673
  98217426.650 4       651.445
  24573801.511    24573800.801   129136205.536 1       399.372    24573805.741
 100625620.997 1       311.299
  20493715.367    20493714.647   107695267.455 7      2229.637    20493719.177
  83918359.169 7      1737.387
  22976684.405    22976684.245   120743304.173 5       235.452    22976686.585
  94085701.963 5       183.496
  20362551.612    20362551.472   107005986.130 7      5087.697    20362552.692
  83381292.893 7      3964.439
  25249237.651    25249238.711   132685657.871 2      5668.670    25249236.571
 103391434.617 2      4417.109
  22378190.785    22378190.105   117598176.092 6      2524.988    22378189.755
  91634963.167 6      1967.531
  21182343.014    21182343.114   111313960.250 6      4236.790    21182343.974
  86738170.409 6      3301.406
